<?xml version="1.0" encoding="UTF-8" standalone="no" ?>
<gpx xmlns="http://www.topografix.com/GPX/1/1" xmlns:xsi="http://www.w3.org/2001/XMLSchema-instance" xsi:schemaLocation="http://www.topografix.com/GPX/1/1 http://www.topografix.com/GPX/1/1/gpx.xsd" version="1.1" creator="VisuGPX - https://www.visugpx.com">
  <metadata>
    <name>veyre gergovie jpm63</name>
    <desc><![CDATA[de veyre à gergovie pour les cavaliers de la veyre]]></desc>
  </metadata>
  <trk>
    <name><![CDATA[t 120112 gergovie veyre]]></name>
    <trkseg>
      <trkpt lat="45.68679" lon="3.16299">
        <ele>425.011261</ele>
        <time>2012-01-12T09:05:13Z</time>
      </trkpt>
      <trkpt lat="45.68688" lon="3.16292">
        <ele>424.348755</ele>
        <time>2012-01-12T09:05:17Z</time>
      </trkpt>
      <trkpt lat="45.68698" lon="3.16285">
        <ele>423.617493</ele>
        <time>2012-01-12T09:05:21Z</time>
      </trkpt>
      <trkpt lat="45.68707" lon="3.16279">
        <ele>423.047485</ele>
        <time>2012-01-12T09:05:25Z</time>
      </trkpt>
      <trkpt lat="45.68717" lon="3.16272">
        <ele>422.454987</ele>
        <time>2012-01-12T09:05:29Z</time>
      </trkpt>
      <trkpt lat="45.68725" lon="3.16261">
        <ele>422.327484</ele>
        <time>2012-01-12T09:05:33Z</time>
      </trkpt>
      <trkpt lat="45.68734" lon="3.1625">
        <ele>422.147491</ele>
        <time>2012-01-12T09:05:37Z</time>
      </trkpt>
      <trkpt lat="45.6874" lon="3.16238">
        <ele>422.539948</ele>
        <time>2012-01-12T09:05:40Z</time>
      </trkpt>
      <trkpt lat="45.68743" lon="3.16224">
        <ele>423.243591</ele>
        <time>2012-01-12T09:05:43Z</time>
      </trkpt>
      <trkpt lat="45.68745" lon="3.1621">
        <ele>423.922577</ele>
        <time>2012-01-12T09:05:46Z</time>
      </trkpt>
      <trkpt lat="45.68746" lon="3.16194">
        <ele>424.899597</ele>
        <time>2012-01-12T09:05:50Z</time>
      </trkpt>
      <trkpt lat="45.68746" lon="3.16178">
        <ele>425.812378</ele>
        <time>2012-01-12T09:05:54Z</time>
      </trkpt>
      <trkpt lat="45.68747" lon="3.16164">
        <ele>426.682556</ele>
        <time>2012-01-12T09:05:58Z</time>
      </trkpt>
      <trkpt lat="45.68747" lon="3.16148">
        <ele>427.066467</ele>
        <time>2012-01-12T09:06:02Z</time>
      </trkpt>
      <trkpt lat="45.68747" lon="3.16133">
        <ele>427.434174</ele>
        <time>2012-01-12T09:06:06Z</time>
      </trkpt>
      <trkpt lat="45.68747" lon="3.16116">
        <ele>427.747528</ele>
        <time>2012-01-12T09:06:10Z</time>
      </trkpt>
      <trkpt lat="45.68747" lon="3.16101">
        <ele>427.997925</ele>
        <time>2012-01-12T09:06:14Z</time>
      </trkpt>
      <trkpt lat="45.68751" lon="3.16088">
        <ele>427.6875</ele>
        <time>2012-01-12T09:06:18Z</time>
      </trkpt>
      <trkpt lat="45.6876" lon="3.16085">
        <ele>426.649994</ele>
        <time>2012-01-12T09:06:22Z</time>
      </trkpt>
      <trkpt lat="45.68772" lon="3.16083">
        <ele>425.350006</ele>
        <time>2012-01-12T09:06:26Z</time>
      </trkpt>
      <trkpt lat="45.68782" lon="3.16082">
        <ele>424.237488</ele>
        <time>2012-01-12T09:06:29Z</time>
      </trkpt>
      <trkpt lat="45.68792" lon="3.16081">
        <ele>423.320007</ele>
        <time>2012-01-12T09:06:32Z</time>
      </trkpt>
      <trkpt lat="45.68801" lon="3.1608">
        <ele>422.48999</ele>
        <time>2012-01-12T09:06:35Z</time>
      </trkpt>
      <trkpt lat="45.68811" lon="3.16079">
        <ele>421.589996</ele>
        <time>2012-01-12T09:06:38Z</time>
      </trkpt>
      <trkpt lat="45.68821" lon="3.16078">
        <ele>420.709991</ele>
        <time>2012-01-12T09:06:41Z</time>
      </trkpt>
      <trkpt lat="45.68831" lon="3.16077">
        <ele>419.779053</ele>
        <time>2012-01-12T09:06:44Z</time>
      </trkpt>
      <trkpt lat="45.68841" lon="3.16075">
        <ele>418.773041</ele>
        <time>2012-01-12T09:06:47Z</time>
      </trkpt>
      <trkpt lat="45.68851" lon="3.16074">
        <ele>417.773865</ele>
        <time>2012-01-12T09:06:50Z</time>
      </trkpt>
      <trkpt lat="45.6886" lon="3.16074">
        <ele>416.789764</ele>
        <time>2012-01-12T09:06:53Z</time>
      </trkpt>
      <trkpt lat="45.6887" lon="3.16073">
        <ele>415.84137</ele>
        <time>2012-01-12T09:06:56Z</time>
      </trkpt>
      <trkpt lat="45.68879" lon="3.16072">
        <ele>415.066254</ele>
        <time>2012-01-12T09:06:59Z</time>
      </trkpt>
      <trkpt lat="45.68889" lon="3.1607">
        <ele>414.44751</ele>
        <time>2012-01-12T09:07:02Z</time>
      </trkpt>
      <trkpt lat="45.68899" lon="3.16068">
        <ele>413.818756</ele>
        <time>2012-01-12T09:07:05Z</time>
      </trkpt>
      <trkpt lat="45.68909" lon="3.16066">
        <ele>413.220001</ele>
        <time>2012-01-12T09:07:08Z</time>
      </trkpt>
      <trkpt lat="45.68918" lon="3.16063">
        <ele>412.628754</ele>
        <time>2012-01-12T09:07:11Z</time>
      </trkpt>
      <trkpt lat="45.68928" lon="3.16061">
        <ele>412.13797</ele>
        <time>2012-01-12T09:07:14Z</time>
      </trkpt>
      <trkpt lat="45.68937" lon="3.16058">
        <ele>411.728729</ele>
        <time>2012-01-12T09:07:17Z</time>
      </trkpt>
      <trkpt lat="45.68947" lon="3.16055">
        <ele>411.278381</ele>
        <time>2012-01-12T09:07:24Z</time>
      </trkpt>
      <trkpt lat="45.68956" lon="3.16054">
        <ele>410.875427</ele>
        <time>2012-01-12T09:07:30Z</time>
      </trkpt>
      <trkpt lat="45.68957" lon="3.16054">
        <ele>410.82428</ele>
        <time>2012-01-12T09:07:56Z</time>
      </trkpt>
      <trkpt lat="45.68956" lon="3.16053">
        <ele>410.88797</ele>
        <time>2012-01-12T09:08:30Z</time>
      </trkpt>
      <trkpt lat="45.68961" lon="3.16054">
        <ele>410.624573</ele>
        <time>2012-01-12T09:08:52Z</time>
      </trkpt>
      <trkpt lat="45.68972" lon="3.16051">
        <ele>410.054993</ele>
        <time>2012-01-12T09:08:59Z</time>
      </trkpt>
      <trkpt lat="45.68981" lon="3.16049">
        <ele>409.494995</ele>
        <time>2012-01-12T09:09:05Z</time>
      </trkpt>
      <trkpt lat="45.6899" lon="3.16046">
        <ele>408.984985</ele>
        <time>2012-01-12T09:09:11Z</time>
      </trkpt>
      <trkpt lat="45.69" lon="3.16044">
        <ele>408.417511</ele>
        <time>2012-01-12T09:09:17Z</time>
      </trkpt>
      <trkpt lat="45.69009" lon="3.16043">
        <ele>407.783844</ele>
        <time>2012-01-12T09:09:23Z</time>
      </trkpt>
      <trkpt lat="45.69019" lon="3.16042">
        <ele>406.746613</ele>
        <time>2012-01-12T09:09:29Z</time>
      </trkpt>
      <trkpt lat="45.69029" lon="3.16042">
        <ele>405.724396</ele>
        <time>2012-01-12T09:09:35Z</time>
      </trkpt>
      <trkpt lat="45.69038" lon="3.16042">
        <ele>404.714905</ele>
        <time>2012-01-12T09:09:41Z</time>
      </trkpt>
      <trkpt lat="45.69048" lon="3.16042">
        <ele>403.694702</ele>
        <time>2012-01-12T09:09:47Z</time>
      </trkpt>
      <trkpt lat="45.69057" lon="3.16042">
        <ele>402.423889</ele>
        <time>2012-01-12T09:09:53Z</time>
      </trkpt>
      <trkpt lat="45.69067" lon="3.16041">
        <ele>400.65329</ele>
        <time>2012-01-12T09:09:59Z</time>
      </trkpt>
      <trkpt lat="45.69077" lon="3.1604">
        <ele>398.916656</ele>
        <time>2012-01-12T09:10:05Z</time>
      </trkpt>
      <trkpt lat="45.69087" lon="3.1604">
        <ele>397.131012</ele>
        <time>2012-01-12T09:10:11Z</time>
      </trkpt>
      <trkpt lat="45.69098" lon="3.16039">
        <ele>395.272369</ele>
        <time>2012-01-12T09:10:17Z</time>
      </trkpt>
      <trkpt lat="45.69108" lon="3.16038">
        <ele>393.640594</ele>
        <time>2012-01-12T09:10:23Z</time>
      </trkpt>
      <trkpt lat="45.69118" lon="3.16037">
        <ele>392.026062</ele>
        <time>2012-01-12T09:10:29Z</time>
      </trkpt>
      <trkpt lat="45.69128" lon="3.16037">
        <ele>390.43927</ele>
        <time>2012-01-12T09:10:35Z</time>
      </trkpt>
      <trkpt lat="45.69139" lon="3.16038">
        <ele>388.842651</ele>
        <time>2012-01-12T09:10:39Z</time>
      </trkpt>
      <trkpt lat="45.69148" lon="3.1604">
        <ele>387.588745</ele>
        <time>2012-01-12T09:10:42Z</time>
      </trkpt>
      <trkpt lat="45.69158" lon="3.16044">
        <ele>386.462494</ele>
        <time>2012-01-12T09:10:45Z</time>
      </trkpt>
      <trkpt lat="45.69169" lon="3.16049">
        <ele>385.339996</ele>
        <time>2012-01-12T09:10:48Z</time>
      </trkpt>
      <trkpt lat="45.6918" lon="3.16053">
        <ele>384.21875</ele>
        <time>2012-01-12T09:10:51Z</time>
      </trkpt>
      <trkpt lat="45.69191" lon="3.16057">
        <ele>383.152496</ele>
        <time>2012-01-12T09:10:54Z</time>
      </trkpt>
      <trkpt lat="45.69202" lon="3.1606">
        <ele>382.424988</ele>
        <time>2012-01-12T09:10:57Z</time>
      </trkpt>
      <trkpt lat="45.69213" lon="3.16059">
        <ele>381.691254</ele>
        <time>2012-01-12T09:11:00Z</time>
      </trkpt>
      <trkpt lat="45.6922" lon="3.16049">
        <ele>381.045013</ele>
        <time>2012-01-12T09:11:03Z</time>
      </trkpt>
      <trkpt lat="45.69224" lon="3.16034">
        <ele>380.59375</ele>
        <time>2012-01-12T09:11:06Z</time>
      </trkpt>
      <trkpt lat="45.69227" lon="3.1602">
        <ele>380.178741</ele>
        <time>2012-01-12T09:11:09Z</time>
      </trkpt>
      <trkpt lat="45.69229" lon="3.16006">
        <ele>379.785004</ele>
        <time>2012-01-12T09:11:12Z</time>
      </trkpt>
      <trkpt lat="45.69233" lon="3.15992">
        <ele>379.362488</ele>
        <time>2012-01-12T09:11:15Z</time>
      </trkpt>
      <trkpt lat="45.69236" lon="3.15979">
        <ele>378.952515</ele>
        <time>2012-01-12T09:11:19Z</time>
      </trkpt>
      <trkpt lat="45.69241" lon="3.15968">
        <ele>378.476044</ele>
        <time>2012-01-12T09:11:24Z</time>
      </trkpt>
      <trkpt lat="45.69246" lon="3.15957">
        <ele>378.001038</ele>
        <time>2012-01-12T09:11:29Z</time>
      </trkpt>
      <trkpt lat="45.69254" lon="3.15948">
        <ele>377.433655</ele>
        <time>2012-01-12T09:11:35Z</time>
      </trkpt>
      <trkpt lat="45.69263" lon="3.15941">
        <ele>376.918732</ele>
        <time>2012-01-12T09:11:39Z</time>
      </trkpt>
      <trkpt lat="45.69272" lon="3.15933">
        <ele>376.386932</ele>
        <time>2012-01-12T09:11:42Z</time>
      </trkpt>
      <trkpt lat="45.69282" lon="3.15925">
        <ele>375.915009</ele>
        <time>2012-01-12T09:11:45Z</time>
      </trkpt>
      <trkpt lat="45.69291" lon="3.15917">
        <ele>375.5</ele>
        <time>2012-01-12T09:11:48Z</time>
      </trkpt>
      <trkpt lat="45.69299" lon="3.1591">
        <ele>375.149994</ele>
        <time>2012-01-12T09:11:51Z</time>
      </trkpt>
      <trkpt lat="45.69303" lon="3.15908">
        <ele>374.980011</ele>
        <time>2012-01-12T09:12:11Z</time>
      </trkpt>
      <trkpt lat="45.69305" lon="3.15904">
        <ele>374.910004</ele>
        <time>2012-01-12T09:12:47Z</time>
      </trkpt>
      <trkpt lat="45.69315" lon="3.15898">
        <ele>374.459991</ele>
        <time>2012-01-12T09:12:52Z</time>
      </trkpt>
      <trkpt lat="45.69326" lon="3.1589">
        <ele>373.955139</ele>
        <time>2012-01-12T09:12:56Z</time>
      </trkpt>
      <trkpt lat="45.69336" lon="3.15885">
        <ele>373.617615</ele>
        <time>2012-01-12T09:12:58Z</time>
      </trkpt>
      <trkpt lat="45.69347" lon="3.15878">
        <ele>373.307007</ele>
        <time>2012-01-12T09:13:00Z</time>
      </trkpt>
      <trkpt lat="45.69358" lon="3.15871">
        <ele>373.041779</ele>
        <time>2012-01-12T09:13:02Z</time>
      </trkpt>
      <trkpt lat="45.69369" lon="3.15864">
        <ele>372.834747</ele>
        <time>2012-01-12T09:13:04Z</time>
      </trkpt>
      <trkpt lat="45.69381" lon="3.15856">
        <ele>372.665466</ele>
        <time>2012-01-12T09:13:06Z</time>
      </trkpt>
      <trkpt lat="45.69392" lon="3.15851">
        <ele>372.515778</ele>
        <time>2012-01-12T09:13:08Z</time>
      </trkpt>
      <trkpt lat="45.69403" lon="3.15848">
        <ele>372.328766</ele>
        <time>2012-01-12T09:13:10Z</time>
      </trkpt>
      <trkpt lat="45.69412" lon="3.15849">
        <ele>372.111237</ele>
        <time>2012-01-12T09:13:12Z</time>
      </trkpt>
      <trkpt lat="45.69421" lon="3.15851">
        <ele>371.859985</ele>
        <time>2012-01-12T09:13:15Z</time>
      </trkpt>
      <trkpt lat="45.6943" lon="3.15855">
        <ele>371.554993</ele>
        <time>2012-01-12T09:13:19Z</time>
      </trkpt>
      <trkpt lat="45.69439" lon="3.15856">
        <ele>371.324982</ele>
        <time>2012-01-12T09:13:28Z</time>
      </trkpt>
      <trkpt lat="45.6945" lon="3.1585">
        <ele>371.253754</ele>
        <time>2012-01-12T09:13:34Z</time>
      </trkpt>
      <trkpt lat="45.69461" lon="3.15848">
        <ele>371.058746</ele>
        <time>2012-01-12T09:13:40Z</time>
      </trkpt>
      <trkpt lat="45.69471" lon="3.15845">
        <ele>371.101257</ele>
        <time>2012-01-12T09:13:43Z</time>
      </trkpt>
      <trkpt lat="45.69481" lon="3.15844">
        <ele>371.116241</ele>
        <time>2012-01-12T09:13:46Z</time>
      </trkpt>
      <trkpt lat="45.69491" lon="3.15845">
        <ele>371.11499</ele>
        <time>2012-01-12T09:13:49Z</time>
      </trkpt>
      <trkpt lat="45.69503" lon="3.15844">
        <ele>371.122498</ele>
        <time>2012-01-12T09:13:52Z</time>
      </trkpt>
      <trkpt lat="45.69514" lon="3.15842">
        <ele>370.967499</ele>
        <time>2012-01-12T09:13:55Z</time>
      </trkpt>
      <trkpt lat="45.69525" lon="3.15839">
        <ele>370.773743</ele>
        <time>2012-01-12T09:13:58Z</time>
      </trkpt>
      <trkpt lat="45.69537" lon="3.15837">
        <ele>370.55249</ele>
        <time>2012-01-12T09:14:01Z</time>
      </trkpt>
      <trkpt lat="45.69547" lon="3.15834">
        <ele>370.386261</ele>
        <time>2012-01-12T09:14:04Z</time>
      </trkpt>
      <trkpt lat="45.69548" lon="3.15822">
        <ele>370.543762</ele>
        <time>2012-01-12T09:14:07Z</time>
      </trkpt>
      <trkpt lat="45.69543" lon="3.15808">
        <ele>370.85376</ele>
        <time>2012-01-12T09:14:10Z</time>
      </trkpt>
      <trkpt lat="45.6954" lon="3.15792">
        <ele>371.173737</ele>
        <time>2012-01-12T09:14:13Z</time>
      </trkpt>
      <trkpt lat="45.69541" lon="3.15776">
        <ele>372.073792</ele>
        <time>2012-01-12T09:14:16Z</time>
      </trkpt>
      <trkpt lat="45.69543" lon="3.15761">
        <ele>373.100708</ele>
        <time>2012-01-12T09:14:19Z</time>
      </trkpt>
      <trkpt lat="45.69548" lon="3.15747">
        <ele>374.194244</ele>
        <time>2012-01-12T09:14:22Z</time>
      </trkpt>
      <trkpt lat="45.69547" lon="3.15732">
        <ele>375.252411</ele>
        <time>2012-01-12T09:14:25Z</time>
      </trkpt>
      <trkpt lat="45.69545" lon="3.15716">
        <ele>375.589996</ele>
        <time>2012-01-12T09:14:28Z</time>
      </trkpt>
      <trkpt lat="45.69544" lon="3.157">
        <ele>375.299988</ele>
        <time>2012-01-12T09:14:31Z</time>
      </trkpt>
      <trkpt lat="45.69543" lon="3.15684">
        <ele>374.998749</ele>
        <time>2012-01-12T09:14:34Z</time>
      </trkpt>
      <trkpt lat="45.69542" lon="3.15668">
        <ele>374.676239</ele>
        <time>2012-01-12T09:14:37Z</time>
      </trkpt>
      <trkpt lat="45.6954" lon="3.15651">
        <ele>374.372681</ele>
        <time>2012-01-12T09:14:40Z</time>
      </trkpt>
      <trkpt lat="45.69539" lon="3.15636">
        <ele>374.137177</ele>
        <time>2012-01-12T09:14:43Z</time>
      </trkpt>
      <trkpt lat="45.69538" lon="3.15621">
        <ele>373.947021</ele>
        <time>2012-01-12T09:14:46Z</time>
      </trkpt>
      <trkpt lat="45.69537" lon="3.15605">
        <ele>373.764648</ele>
        <time>2012-01-12T09:14:49Z</time>
      </trkpt>
      <trkpt lat="45.69536" lon="3.15589">
        <ele>373.640015</ele>
        <time>2012-01-12T09:14:52Z</time>
      </trkpt>
      <trkpt lat="45.69535" lon="3.15574">
        <ele>373.625</ele>
        <time>2012-01-12T09:14:55Z</time>
      </trkpt>
      <trkpt lat="45.69535" lon="3.15559">
        <ele>373.617493</ele>
        <time>2012-01-12T09:14:58Z</time>
      </trkpt>
      <trkpt lat="45.69534" lon="3.15544">
        <ele>373.589996</ele>
        <time>2012-01-12T09:15:01Z</time>
      </trkpt>
      <trkpt lat="45.69533" lon="3.1553">
        <ele>373.567505</ele>
        <time>2012-01-12T09:15:04Z</time>
      </trkpt>
      <trkpt lat="45.69533" lon="3.15517">
        <ele>373.549988</ele>
        <time>2012-01-12T09:15:07Z</time>
      </trkpt>
      <trkpt lat="45.69532" lon="3.15502">
        <ele>373.529999</ele>
        <time>2012-01-12T09:15:10Z</time>
      </trkpt>
      <trkpt lat="45.6953" lon="3.15487">
        <ele>373.497498</ele>
        <time>2012-01-12T09:15:13Z</time>
      </trkpt>
      <trkpt lat="45.6953" lon="3.15473">
        <ele>373.48999</ele>
        <time>2012-01-12T09:15:16Z</time>
      </trkpt>
      <trkpt lat="45.6953" lon="3.15459">
        <ele>373.60376</ele>
        <time>2012-01-12T09:15:19Z</time>
      </trkpt>
      <trkpt lat="45.69529" lon="3.15446">
        <ele>373.806244</ele>
        <time>2012-01-12T09:15:22Z</time>
      </trkpt>
      <trkpt lat="45.6953" lon="3.15428">
        <ele>374.087494</ele>
        <time>2012-01-12T09:15:26Z</time>
      </trkpt>
      <trkpt lat="45.69531" lon="3.15411">
        <ele>374.377502</ele>
        <time>2012-01-12T09:15:30Z</time>
      </trkpt>
      <trkpt lat="45.69534" lon="3.15398">
        <ele>374.593445</ele>
        <time>2012-01-12T09:15:33Z</time>
      </trkpt>
      <trkpt lat="45.69538" lon="3.15386">
        <ele>374.75116</ele>
        <time>2012-01-12T09:15:36Z</time>
      </trkpt>
      <trkpt lat="45.69544" lon="3.1537">
        <ele>374.893677</ele>
        <time>2012-01-12T09:15:40Z</time>
      </trkpt>
      <trkpt lat="45.69548" lon="3.15356">
        <ele>374.963898</ele>
        <time>2012-01-12T09:15:43Z</time>
      </trkpt>
      <trkpt lat="45.69551" lon="3.15342">
        <ele>374.996979</ele>
        <time>2012-01-12T09:15:46Z</time>
      </trkpt>
      <trkpt lat="45.69554" lon="3.15329">
        <ele>375</ele>
        <time>2012-01-12T09:15:49Z</time>
      </trkpt>
      <trkpt lat="45.69558" lon="3.15313">
        <ele>375.091248</ele>
        <time>2012-01-12T09:15:52Z</time>
      </trkpt>
      <trkpt lat="45.69561" lon="3.15294">
        <ele>375.081573</ele>
        <time>2012-01-12T09:15:55Z</time>
      </trkpt>
      <trkpt lat="45.69563" lon="3.1528">
        <ele>375.028015</ele>
        <time>2012-01-12T09:15:57Z</time>
      </trkpt>
      <trkpt lat="45.69566" lon="3.15266">
        <ele>375.185577</ele>
        <time>2012-01-12T09:15:59Z</time>
      </trkpt>
      <trkpt lat="45.69568" lon="3.1525">
        <ele>375.513824</ele>
        <time>2012-01-12T09:16:01Z</time>
      </trkpt>
      <trkpt lat="45.69571" lon="3.15234">
        <ele>375.888794</ele>
        <time>2012-01-12T09:16:03Z</time>
      </trkpt>
      <trkpt lat="45.69575" lon="3.15218">
        <ele>376.282532</ele>
        <time>2012-01-12T09:16:05Z</time>
      </trkpt>
      <trkpt lat="45.69577" lon="3.15203">
        <ele>376.559692</ele>
        <time>2012-01-12T09:16:07Z</time>
      </trkpt>
      <trkpt lat="45.6958" lon="3.15189">
        <ele>376.715149</ele>
        <time>2012-01-12T09:16:09Z</time>
      </trkpt>
      <trkpt lat="45.69583" lon="3.15174">
        <ele>376.84079</ele>
        <time>2012-01-12T09:16:11Z</time>
      </trkpt>
      <trkpt lat="45.69586" lon="3.15161">
        <ele>376.930939</ele>
        <time>2012-01-12T09:16:13Z</time>
      </trkpt>
      <trkpt lat="45.69588" lon="3.15146">
        <ele>377.016235</ele>
        <time>2012-01-12T09:16:16Z</time>
      </trkpt>
      <trkpt lat="45.69591" lon="3.15132">
        <ele>377.236237</ele>
        <time>2012-01-12T09:16:19Z</time>
      </trkpt>
      <trkpt lat="45.69594" lon="3.15116">
        <ele>377.484985</ele>
        <time>2012-01-12T09:16:22Z</time>
      </trkpt>
      <trkpt lat="45.69598" lon="3.15102">
        <ele>377.716248</ele>
        <time>2012-01-12T09:16:25Z</time>
      </trkpt>
      <trkpt lat="45.69602" lon="3.15087">
        <ele>377.971252</ele>
        <time>2012-01-12T09:16:28Z</time>
      </trkpt>
      <trkpt lat="45.69605" lon="3.15074">
        <ele>378.311249</ele>
        <time>2012-01-12T09:16:31Z</time>
      </trkpt>
      <trkpt lat="45.69609" lon="3.1506">
        <ele>378.731232</ele>
        <time>2012-01-12T09:16:34Z</time>
      </trkpt>
      <trkpt lat="45.69615" lon="3.15047">
        <ele>379.179993</ele>
        <time>2012-01-12T09:16:37Z</time>
      </trkpt>
      <trkpt lat="45.69621" lon="3.15037">
        <ele>379.598755</ele>
        <time>2012-01-12T09:16:42Z</time>
      </trkpt>
      <trkpt lat="45.69624" lon="3.15026">
        <ele>379.898743</ele>
        <time>2012-01-12T09:17:30Z</time>
      </trkpt>
      <trkpt lat="45.69614" lon="3.15018">
        <ele>379.604187</ele>
        <time>2012-01-12T09:17:35Z</time>
      </trkpt>
      <trkpt lat="45.69606" lon="3.1501">
        <ele>379.34729</ele>
        <time>2012-01-12T09:17:38Z</time>
      </trkpt>
      <trkpt lat="45.69596" lon="3.14998">
        <ele>379.193756</ele>
        <time>2012-01-12T09:17:41Z</time>
      </trkpt>
      <trkpt lat="45.69587" lon="3.14989">
        <ele>379.137512</ele>
        <time>2012-01-12T09:17:43Z</time>
      </trkpt>
      <trkpt lat="45.69576" lon="3.14979">
        <ele>379.057495</ele>
        <time>2012-01-12T09:17:45Z</time>
      </trkpt>
      <trkpt lat="45.69566" lon="3.1497">
        <ele>378.971252</ele>
        <time>2012-01-12T09:17:47Z</time>
      </trkpt>
      <trkpt lat="45.69556" lon="3.14962">
        <ele>378.892273</ele>
        <time>2012-01-12T09:17:49Z</time>
      </trkpt>
      <trkpt lat="45.69546" lon="3.14955">
        <ele>379.219238</ele>
        <time>2012-01-12T09:17:51Z</time>
      </trkpt>
      <trkpt lat="45.69537" lon="3.14948">
        <ele>379.817505</ele>
        <time>2012-01-12T09:17:53Z</time>
      </trkpt>
      <trkpt lat="45.69527" lon="3.14942">
        <ele>380.402496</ele>
        <time>2012-01-12T09:17:55Z</time>
      </trkpt>
      <trkpt lat="45.69519" lon="3.14936">
        <ele>380.940002</ele>
        <time>2012-01-12T09:17:57Z</time>
      </trkpt>
      <trkpt lat="45.69514" lon="3.14924">
        <ele>381.779999</ele>
        <time>2012-01-12T09:18:00Z</time>
      </trkpt>
      <trkpt lat="45.69523" lon="3.14913">
        <ele>382.287506</ele>
        <time>2012-01-12T09:18:04Z</time>
      </trkpt>
      <trkpt lat="45.69534" lon="3.14909">
        <ele>382.290009</ele>
        <time>2012-01-12T09:18:08Z</time>
      </trkpt>
      <trkpt lat="45.69545" lon="3.14905">
        <ele>382.304993</ele>
        <time>2012-01-12T09:18:12Z</time>
      </trkpt>
      <trkpt lat="45.69554" lon="3.14902">
        <ele>382.290009</ele>
        <time>2012-01-12T09:18:15Z</time>
      </trkpt>
      <trkpt lat="45.69564" lon="3.149">
        <ele>382.293854</ele>
        <time>2012-01-12T09:18:18Z</time>
      </trkpt>
      <trkpt lat="45.69575" lon="3.14897">
        <ele>382.262024</ele>
        <time>2012-01-12T09:18:22Z</time>
      </trkpt>
      <trkpt lat="45.69587" lon="3.14893">
        <ele>382.253174</ele>
        <time>2012-01-12T09:18:26Z</time>
      </trkpt>
      <trkpt lat="45.69598" lon="3.1489">
        <ele>382.167511</ele>
        <time>2012-01-12T09:18:30Z</time>
      </trkpt>
      <trkpt lat="45.6961" lon="3.14884">
        <ele>383.052704</ele>
        <time>2012-01-12T09:18:34Z</time>
      </trkpt>
      <trkpt lat="45.6962" lon="3.1488">
        <ele>383.954407</ele>
        <time>2012-01-12T09:18:38Z</time>
      </trkpt>
      <trkpt lat="45.69632" lon="3.14876">
        <ele>384.908905</ele>
        <time>2012-01-12T09:18:42Z</time>
      </trkpt>
      <trkpt lat="45.69645" lon="3.14872">
        <ele>385.799072</ele>
        <time>2012-01-12T09:18:46Z</time>
      </trkpt>
      <trkpt lat="45.69657" lon="3.14866">
        <ele>386.250885</ele>
        <time>2012-01-12T09:18:50Z</time>
      </trkpt>
      <trkpt lat="45.69667" lon="3.14855">
        <ele>386.666229</ele>
        <time>2012-01-12T09:18:54Z</time>
      </trkpt>
      <trkpt lat="45.6967" lon="3.1484">
        <ele>387.109009</ele>
        <time>2012-01-12T09:18:58Z</time>
      </trkpt>
      <trkpt lat="45.69676" lon="3.14821">
        <ele>387.408844</ele>
        <time>2012-01-12T09:19:07Z</time>
      </trkpt>
      <trkpt lat="45.69673" lon="3.14795">
        <ele>387.649841</ele>
        <time>2012-01-12T09:19:11Z</time>
      </trkpt>
      <trkpt lat="45.69674" lon="3.14781">
        <ele>387.729858</ele>
        <time>2012-01-12T09:19:14Z</time>
      </trkpt>
      <trkpt lat="45.69677" lon="3.14763">
        <ele>387.716064</ele>
        <time>2012-01-12T09:19:18Z</time>
      </trkpt>
      <trkpt lat="45.69682" lon="3.14747">
        <ele>387.644928</ele>
        <time>2012-01-12T09:19:22Z</time>
      </trkpt>
      <trkpt lat="45.69686" lon="3.14731">
        <ele>387.6651</ele>
        <time>2012-01-12T09:19:26Z</time>
      </trkpt>
      <trkpt lat="45.69689" lon="3.14714">
        <ele>387.823242</ele>
        <time>2012-01-12T09:19:30Z</time>
      </trkpt>
      <trkpt lat="45.69691" lon="3.14701">
        <ele>387.983307</ele>
        <time>2012-01-12T09:19:33Z</time>
      </trkpt>
      <trkpt lat="45.69693" lon="3.14687">
        <ele>388.001953</ele>
        <time>2012-01-12T09:19:36Z</time>
      </trkpt>
      <trkpt lat="45.69694" lon="3.14673">
        <ele>387.992706</ele>
        <time>2012-01-12T09:19:39Z</time>
      </trkpt>
      <trkpt lat="45.69697" lon="3.14659">
        <ele>387.977936</ele>
        <time>2012-01-12T09:19:42Z</time>
      </trkpt>
      <trkpt lat="45.69698" lon="3.14645">
        <ele>387.986267</ele>
        <time>2012-01-12T09:19:45Z</time>
      </trkpt>
      <trkpt lat="45.69698" lon="3.14632">
        <ele>388</ele>
        <time>2012-01-12T09:19:48Z</time>
      </trkpt>
      <trkpt lat="45.69699" lon="3.14615">
        <ele>388</ele>
        <time>2012-01-12T09:19:52Z</time>
      </trkpt>
      <trkpt lat="45.697" lon="3.14598">
        <ele>388</ele>
        <time>2012-01-12T09:19:56Z</time>
      </trkpt>
      <trkpt lat="45.69704" lon="3.14583">
        <ele>388</ele>
        <time>2012-01-12T09:20:00Z</time>
      </trkpt>
      <trkpt lat="45.69706" lon="3.14567">
        <ele>388</ele>
        <time>2012-01-12T09:20:04Z</time>
      </trkpt>
      <trkpt lat="45.69703" lon="3.1455">
        <ele>388</ele>
        <time>2012-01-12T09:20:08Z</time>
      </trkpt>
      <trkpt lat="45.697" lon="3.14536">
        <ele>388</ele>
        <time>2012-01-12T09:20:11Z</time>
      </trkpt>
      <trkpt lat="45.69696" lon="3.14518">
        <ele>388</ele>
        <time>2012-01-12T09:20:15Z</time>
      </trkpt>
      <trkpt lat="45.69695" lon="3.14505">
        <ele>388.061493</ele>
        <time>2012-01-12T09:20:18Z</time>
      </trkpt>
      <trkpt lat="45.69697" lon="3.14488">
        <ele>388.282928</ele>
        <time>2012-01-12T09:20:22Z</time>
      </trkpt>
      <trkpt lat="45.69699" lon="3.14474">
        <ele>388.467926</ele>
        <time>2012-01-12T09:20:25Z</time>
      </trkpt>
      <trkpt lat="45.697" lon="3.1446">
        <ele>388.656586</ele>
        <time>2012-01-12T09:20:28Z</time>
      </trkpt>
      <trkpt lat="45.697" lon="3.14446">
        <ele>388.86441</ele>
        <time>2012-01-12T09:20:31Z</time>
      </trkpt>
      <trkpt lat="45.69699" lon="3.14432">
        <ele>389.079376</ele>
        <time>2012-01-12T09:20:34Z</time>
      </trkpt>
      <trkpt lat="45.69698" lon="3.14416">
        <ele>389.351379</ele>
        <time>2012-01-12T09:20:38Z</time>
      </trkpt>
      <trkpt lat="45.69697" lon="3.14401">
        <ele>389.613617</ele>
        <time>2012-01-12T09:20:42Z</time>
      </trkpt>
      <trkpt lat="45.69698" lon="3.14385">
        <ele>389.837128</ele>
        <time>2012-01-12T09:20:46Z</time>
      </trkpt>
      <trkpt lat="45.69697" lon="3.14369">
        <ele>390.239166</ele>
        <time>2012-01-12T09:20:50Z</time>
      </trkpt>
      <trkpt lat="45.69697" lon="3.14353">
        <ele>390.725128</ele>
        <time>2012-01-12T09:20:54Z</time>
      </trkpt>
      <trkpt lat="45.69699" lon="3.14338">
        <ele>391.08905</ele>
        <time>2012-01-12T09:20:58Z</time>
      </trkpt>
      <trkpt lat="45.69702" lon="3.14323">
        <ele>391.249451</ele>
        <time>2012-01-12T09:21:02Z</time>
      </trkpt>
      <trkpt lat="45.69706" lon="3.14308">
        <ele>391.440002</ele>
        <time>2012-01-12T09:21:06Z</time>
      </trkpt>
      <trkpt lat="45.6971" lon="3.14295">
        <ele>391.772491</ele>
        <time>2012-01-12T09:21:09Z</time>
      </trkpt>
      <trkpt lat="45.69714" lon="3.14281">
        <ele>392.066254</ele>
        <time>2012-01-12T09:21:12Z</time>
      </trkpt>
      <trkpt lat="45.69716" lon="3.14267">
        <ele>392.464996</ele>
        <time>2012-01-12T09:21:15Z</time>
      </trkpt>
      <trkpt lat="45.69719" lon="3.14253">
        <ele>392.943756</ele>
        <time>2012-01-12T09:21:18Z</time>
      </trkpt>
      <trkpt lat="45.69722" lon="3.14236">
        <ele>393.490906</ele>
        <time>2012-01-12T09:21:21Z</time>
      </trkpt>
      <trkpt lat="45.69724" lon="3.14217">
        <ele>394.328217</ele>
        <time>2012-01-12T09:21:24Z</time>
      </trkpt>
      <trkpt lat="45.69726" lon="3.14201">
        <ele>394.986115</ele>
        <time>2012-01-12T09:21:26Z</time>
      </trkpt>
      <trkpt lat="45.69728" lon="3.14186">
        <ele>395.663177</ele>
        <time>2012-01-12T09:21:28Z</time>
      </trkpt>
      <trkpt lat="45.6973" lon="3.14169">
        <ele>395.91449</ele>
        <time>2012-01-12T09:21:30Z</time>
      </trkpt>
      <trkpt lat="45.69732" lon="3.14151">
        <ele>396.144409</ele>
        <time>2012-01-12T09:21:32Z</time>
      </trkpt>
      <trkpt lat="45.69735" lon="3.14133">
        <ele>396.33847</ele>
        <time>2012-01-12T09:21:34Z</time>
      </trkpt>
      <trkpt lat="45.69738" lon="3.14114">
        <ele>396.471527</ele>
        <time>2012-01-12T09:21:36Z</time>
      </trkpt>
      <trkpt lat="45.6974" lon="3.14096">
        <ele>396.623138</ele>
        <time>2012-01-12T09:21:38Z</time>
      </trkpt>
      <trkpt lat="45.69742" lon="3.14079">
        <ele>396.754883</ele>
        <time>2012-01-12T09:21:40Z</time>
      </trkpt>
      <trkpt lat="45.69745" lon="3.14063">
        <ele>396.892853</ele>
        <time>2012-01-12T09:21:42Z</time>
      </trkpt>
      <trkpt lat="45.6975" lon="3.14047">
        <ele>397.184875</ele>
        <time>2012-01-12T09:21:44Z</time>
      </trkpt>
      <trkpt lat="45.69754" lon="3.14032">
        <ele>397.480286</ele>
        <time>2012-01-12T09:21:46Z</time>
      </trkpt>
      <trkpt lat="45.69758" lon="3.14017">
        <ele>397.755463</ele>
        <time>2012-01-12T09:21:48Z</time>
      </trkpt>
      <trkpt lat="45.69762" lon="3.14002">
        <ele>397.971863</ele>
        <time>2012-01-12T09:21:50Z</time>
      </trkpt>
      <trkpt lat="45.69766" lon="3.13989">
        <ele>398.157776</ele>
        <time>2012-01-12T09:21:52Z</time>
      </trkpt>
      <trkpt lat="45.6977" lon="3.13975">
        <ele>398.286407</ele>
        <time>2012-01-12T09:21:54Z</time>
      </trkpt>
      <trkpt lat="45.69773" lon="3.13961">
        <ele>398.396118</ele>
        <time>2012-01-12T09:21:56Z</time>
      </trkpt>
      <trkpt lat="45.69776" lon="3.13946">
        <ele>398.560394</ele>
        <time>2012-01-12T09:21:58Z</time>
      </trkpt>
      <trkpt lat="45.69777" lon="3.1393">
        <ele>398.795746</ele>
        <time>2012-01-12T09:22:00Z</time>
      </trkpt>
      <trkpt lat="45.69779" lon="3.13913">
        <ele>398.997009</ele>
        <time>2012-01-12T09:22:02Z</time>
      </trkpt>
      <trkpt lat="45.69782" lon="3.13895">
        <ele>399.169769</ele>
        <time>2012-01-12T09:22:04Z</time>
      </trkpt>
      <trkpt lat="45.69786" lon="3.13878">
        <ele>399.15152</ele>
        <time>2012-01-12T09:22:06Z</time>
      </trkpt>
      <trkpt lat="45.6979" lon="3.1386">
        <ele>399.199982</ele>
        <time>2012-01-12T09:22:08Z</time>
      </trkpt>
      <trkpt lat="45.69795" lon="3.13841">
        <ele>399.692749</ele>
        <time>2012-01-12T09:22:10Z</time>
      </trkpt>
      <trkpt lat="45.69799" lon="3.13823">
        <ele>400.080627</ele>
        <time>2012-01-12T09:22:12Z</time>
      </trkpt>
      <trkpt lat="45.69803" lon="3.13805">
        <ele>400.36676</ele>
        <time>2012-01-12T09:22:14Z</time>
      </trkpt>
      <trkpt lat="45.69809" lon="3.13788">
        <ele>400.806915</ele>
        <time>2012-01-12T09:22:16Z</time>
      </trkpt>
      <trkpt lat="45.69816" lon="3.13772">
        <ele>400.93631</ele>
        <time>2012-01-12T09:22:18Z</time>
      </trkpt>
      <trkpt lat="45.69822" lon="3.13758">
        <ele>400.894562</ele>
        <time>2012-01-12T09:22:20Z</time>
      </trkpt>
      <trkpt lat="45.69827" lon="3.13743">
        <ele>400.860077</ele>
        <time>2012-01-12T09:22:22Z</time>
      </trkpt>
      <trkpt lat="45.69831" lon="3.13729">
        <ele>400.618744</ele>
        <time>2012-01-12T09:22:24Z</time>
      </trkpt>
      <trkpt lat="45.69836" lon="3.13714">
        <ele>400.398315</ele>
        <time>2012-01-12T09:22:26Z</time>
      </trkpt>
      <trkpt lat="45.69841" lon="3.13698">
        <ele>400.642944</ele>
        <time>2012-01-12T09:22:28Z</time>
      </trkpt>
      <trkpt lat="45.69846" lon="3.13683">
        <ele>400.731262</ele>
        <time>2012-01-12T09:22:30Z</time>
      </trkpt>
      <trkpt lat="45.69851" lon="3.13667">
        <ele>400.832703</ele>
        <time>2012-01-12T09:22:32Z</time>
      </trkpt>
      <trkpt lat="45.69853" lon="3.1365">
        <ele>401.105164</ele>
        <time>2012-01-12T09:22:34Z</time>
      </trkpt>
      <trkpt lat="45.69854" lon="3.13632">
        <ele>401.411163</ele>
        <time>2012-01-12T09:22:36Z</time>
      </trkpt>
      <trkpt lat="45.69855" lon="3.13615">
        <ele>401.713318</ele>
        <time>2012-01-12T09:22:38Z</time>
      </trkpt>
      <trkpt lat="45.69855" lon="3.13597">
        <ele>402.165009</ele>
        <time>2012-01-12T09:22:40Z</time>
      </trkpt>
      <trkpt lat="45.69856" lon="3.1358">
        <ele>402.684998</ele>
        <time>2012-01-12T09:22:42Z</time>
      </trkpt>
      <trkpt lat="45.69856" lon="3.13564">
        <ele>403.170013</ele>
        <time>2012-01-12T09:22:44Z</time>
      </trkpt>
      <trkpt lat="45.69857" lon="3.13549">
        <ele>403.577484</ele>
        <time>2012-01-12T09:22:46Z</time>
      </trkpt>
      <trkpt lat="45.69859" lon="3.13533">
        <ele>403.542542</ele>
        <time>2012-01-12T09:22:48Z</time>
      </trkpt>
      <trkpt lat="45.69861" lon="3.13519">
        <ele>403.412994</ele>
        <time>2012-01-12T09:22:50Z</time>
      </trkpt>
      <trkpt lat="45.69862" lon="3.13504">
        <ele>403.305145</ele>
        <time>2012-01-12T09:22:52Z</time>
      </trkpt>
      <trkpt lat="45.69862" lon="3.13489">
        <ele>403.308502</ele>
        <time>2012-01-12T09:22:54Z</time>
      </trkpt>
      <trkpt lat="45.69861" lon="3.13474">
        <ele>403.548737</ele>
        <time>2012-01-12T09:22:56Z</time>
      </trkpt>
      <trkpt lat="45.69858" lon="3.13459">
        <ele>404.048737</ele>
        <time>2012-01-12T09:22:58Z</time>
      </trkpt>
      <trkpt lat="45.69856" lon="3.13444">
        <ele>404.565002</ele>
        <time>2012-01-12T09:23:00Z</time>
      </trkpt>
      <trkpt lat="45.69856" lon="3.1343">
        <ele>404.832489</ele>
        <time>2012-01-12T09:23:02Z</time>
      </trkpt>
      <trkpt lat="45.69857" lon="3.13415">
        <ele>404.917908</ele>
        <time>2012-01-12T09:23:04Z</time>
      </trkpt>
      <trkpt lat="45.6986" lon="3.13401">
        <ele>404.974091</ele>
        <time>2012-01-12T09:23:06Z</time>
      </trkpt>
      <trkpt lat="45.69861" lon="3.13386">
        <ele>405.204956</ele>
        <time>2012-01-12T09:23:08Z</time>
      </trkpt>
      <trkpt lat="45.69862" lon="3.13371">
        <ele>405.484436</ele>
        <time>2012-01-12T09:23:10Z</time>
      </trkpt>
      <trkpt lat="45.69863" lon="3.13357">
        <ele>405.754333</ele>
        <time>2012-01-12T09:23:12Z</time>
      </trkpt>
      <trkpt lat="45.69864" lon="3.13342">
        <ele>406.152191</ele>
        <time>2012-01-12T09:23:14Z</time>
      </trkpt>
      <trkpt lat="45.69864" lon="3.13327">
        <ele>406.634491</ele>
        <time>2012-01-12T09:23:16Z</time>
      </trkpt>
      <trkpt lat="45.69863" lon="3.13313">
        <ele>407.144012</ele>
        <time>2012-01-12T09:23:18Z</time>
      </trkpt>
      <trkpt lat="45.69863" lon="3.13298">
        <ele>407.652191</ele>
        <time>2012-01-12T09:23:20Z</time>
      </trkpt>
      <trkpt lat="45.69863" lon="3.13283">
        <ele>408.04126</ele>
        <time>2012-01-12T09:23:22Z</time>
      </trkpt>
      <trkpt lat="45.69862" lon="3.13269">
        <ele>408.273743</ele>
        <time>2012-01-12T09:23:24Z</time>
      </trkpt>
      <trkpt lat="45.69863" lon="3.13255">
        <ele>408.466248</ele>
        <time>2012-01-12T09:23:26Z</time>
      </trkpt>
      <trkpt lat="45.69862" lon="3.13239">
        <ele>408.753754</ele>
        <time>2012-01-12T09:23:28Z</time>
      </trkpt>
      <trkpt lat="45.69861" lon="3.13225">
        <ele>409.04126</ele>
        <time>2012-01-12T09:23:30Z</time>
      </trkpt>
      <trkpt lat="45.69859" lon="3.13211">
        <ele>409.36499</ele>
        <time>2012-01-12T09:23:32Z</time>
      </trkpt>
      <trkpt lat="45.69856" lon="3.13196">
        <ele>409.693756</ele>
        <time>2012-01-12T09:23:34Z</time>
      </trkpt>
      <trkpt lat="45.69855" lon="3.13182">
        <ele>409.975006</ele>
        <time>2012-01-12T09:23:36Z</time>
      </trkpt>
      <trkpt lat="45.69855" lon="3.13167">
        <ele>410.231262</ele>
        <time>2012-01-12T09:23:38Z</time>
      </trkpt>
      <trkpt lat="45.69854" lon="3.13152">
        <ele>410.502747</ele>
        <time>2012-01-12T09:23:40Z</time>
      </trkpt>
      <trkpt lat="45.69849" lon="3.1314">
        <ele>410.786957</ele>
        <time>2012-01-12T09:23:42Z</time>
      </trkpt>
      <trkpt lat="45.69843" lon="3.13128">
        <ele>410.964813</ele>
        <time>2012-01-12T09:23:44Z</time>
      </trkpt>
      <trkpt lat="45.69838" lon="3.13115">
        <ele>411.164307</ele>
        <time>2012-01-12T09:23:46Z</time>
      </trkpt>
      <trkpt lat="45.69832" lon="3.13103">
        <ele>411.541626</ele>
        <time>2012-01-12T09:23:48Z</time>
      </trkpt>
      <trkpt lat="45.69826" lon="3.13092">
        <ele>412.117401</ele>
        <time>2012-01-12T09:23:50Z</time>
      </trkpt>
      <trkpt lat="45.69819" lon="3.13082">
        <ele>412.77951</ele>
        <time>2012-01-12T09:23:52Z</time>
      </trkpt>
      <trkpt lat="45.69812" lon="3.13072">
        <ele>413.296448</ele>
        <time>2012-01-12T09:23:54Z</time>
      </trkpt>
      <trkpt lat="45.69805" lon="3.13061">
        <ele>413.717865</ele>
        <time>2012-01-12T09:23:57Z</time>
      </trkpt>
      <trkpt lat="45.69798" lon="3.13052">
        <ele>413.95636</ele>
        <time>2012-01-12T09:24:03Z</time>
      </trkpt>
      <trkpt lat="45.69802" lon="3.13041">
        <ele>413.934235</ele>
        <time>2012-01-12T09:24:13Z</time>
      </trkpt>
      <trkpt lat="45.69812" lon="3.13036">
        <ele>413.942352</ele>
        <time>2012-01-12T09:24:19Z</time>
      </trkpt>
      <trkpt lat="45.69821" lon="3.13031">
        <ele>414.106934</ele>
        <time>2012-01-12T09:24:23Z</time>
      </trkpt>
      <trkpt lat="45.69831" lon="3.13028">
        <ele>414.427948</ele>
        <time>2012-01-12T09:24:27Z</time>
      </trkpt>
      <trkpt lat="45.6984" lon="3.13024">
        <ele>414.899323</ele>
        <time>2012-01-12T09:24:31Z</time>
      </trkpt>
      <trkpt lat="45.69851" lon="3.13019">
        <ele>416.547791</ele>
        <time>2012-01-12T09:24:36Z</time>
      </trkpt>
      <trkpt lat="45.69856" lon="3.13007">
        <ele>418.419922</ele>
        <time>2012-01-12T09:24:41Z</time>
      </trkpt>
      <trkpt lat="45.6985" lon="3.12994">
        <ele>419.204773</ele>
        <time>2012-01-12T09:24:45Z</time>
      </trkpt>
      <trkpt lat="45.69848" lon="3.12992">
        <ele>419.318542</ele>
        <time>2012-01-12T09:24:53Z</time>
      </trkpt>
      <trkpt lat="45.69856" lon="3.12985">
        <ele>421.076111</ele>
        <time>2012-01-12T09:25:06Z</time>
      </trkpt>
      <trkpt lat="45.69852" lon="3.12971">
        <ele>422.174316</ele>
        <time>2012-01-12T09:25:12Z</time>
      </trkpt>
      <trkpt lat="45.69846" lon="3.12957">
        <ele>423.105011</ele>
        <time>2012-01-12T09:25:17Z</time>
      </trkpt>
      <trkpt lat="45.69842" lon="3.12944">
        <ele>424.100006</ele>
        <time>2012-01-12T09:25:22Z</time>
      </trkpt>
      <trkpt lat="45.69837" lon="3.12931">
        <ele>425.302704</ele>
        <time>2012-01-12T09:25:27Z</time>
      </trkpt>
      <trkpt lat="45.69832" lon="3.12917">
        <ele>426.462433</ele>
        <time>2012-01-12T09:25:32Z</time>
      </trkpt>
      <trkpt lat="45.69827" lon="3.12905">
        <ele>427.302032</ele>
        <time>2012-01-12T09:25:36Z</time>
      </trkpt>
      <trkpt lat="45.69821" lon="3.12891">
        <ele>428.25412</ele>
        <time>2012-01-12T09:25:40Z</time>
      </trkpt>
      <trkpt lat="45.69815" lon="3.12879">
        <ele>428.939026</ele>
        <time>2012-01-12T09:25:44Z</time>
      </trkpt>
      <trkpt lat="45.69809" lon="3.12867">
        <ele>429.585999</ele>
        <time>2012-01-12T09:25:48Z</time>
      </trkpt>
      <trkpt lat="45.69802" lon="3.12854">
        <ele>430.129059</ele>
        <time>2012-01-12T09:25:53Z</time>
      </trkpt>
      <trkpt lat="45.69797" lon="3.12843">
        <ele>430.571533</ele>
        <time>2012-01-12T09:25:57Z</time>
      </trkpt>
      <trkpt lat="45.6979" lon="3.12831">
        <ele>430.695435</ele>
        <time>2012-01-12T09:26:02Z</time>
      </trkpt>
      <trkpt lat="45.69783" lon="3.1282">
        <ele>430.750061</ele>
        <time>2012-01-12T09:26:06Z</time>
      </trkpt>
      <trkpt lat="45.69776" lon="3.12808">
        <ele>430.623535</ele>
        <time>2012-01-12T09:26:10Z</time>
      </trkpt>
      <trkpt lat="45.6977" lon="3.12799">
        <ele>430.26413</ele>
        <time>2012-01-12T09:26:14Z</time>
      </trkpt>
      <trkpt lat="45.69764" lon="3.12789">
        <ele>430.111084</ele>
        <time>2012-01-12T09:26:24Z</time>
      </trkpt>
      <trkpt lat="45.69763" lon="3.12774">
        <ele>431.127502</ele>
        <time>2012-01-12T09:26:34Z</time>
      </trkpt>
      <trkpt lat="45.69763" lon="3.12759">
        <ele>432.017487</ele>
        <time>2012-01-12T09:26:38Z</time>
      </trkpt>
      <trkpt lat="45.69763" lon="3.12743">
        <ele>433.11499</ele>
        <time>2012-01-12T09:26:42Z</time>
      </trkpt>
      <trkpt lat="45.69768" lon="3.1273">
        <ele>434.829987</ele>
        <time>2012-01-12T09:26:46Z</time>
      </trkpt>
      <trkpt lat="45.69776" lon="3.12718">
        <ele>437.102509</ele>
        <time>2012-01-12T09:26:51Z</time>
      </trkpt>
      <trkpt lat="45.69784" lon="3.12708">
        <ele>439.041107</ele>
        <time>2012-01-12T09:26:56Z</time>
      </trkpt>
      <trkpt lat="45.69793" lon="3.127">
        <ele>440.656586</ele>
        <time>2012-01-12T09:27:02Z</time>
      </trkpt>
      <trkpt lat="45.69801" lon="3.12693">
        <ele>441.779999</ele>
        <time>2012-01-12T09:27:06Z</time>
      </trkpt>
      <trkpt lat="45.69811" lon="3.12685">
        <ele>442.419098</ele>
        <time>2012-01-12T09:27:11Z</time>
      </trkpt>
      <trkpt lat="45.6982" lon="3.12675">
        <ele>443.082123</ele>
        <time>2012-01-12T09:27:16Z</time>
      </trkpt>
      <trkpt lat="45.69829" lon="3.12667">
        <ele>443.822784</ele>
        <time>2012-01-12T09:27:21Z</time>
      </trkpt>
      <trkpt lat="45.69838" lon="3.12657">
        <ele>444.554474</ele>
        <time>2012-01-12T09:27:26Z</time>
      </trkpt>
      <trkpt lat="45.69847" lon="3.12647">
        <ele>445.203979</ele>
        <time>2012-01-12T09:27:31Z</time>
      </trkpt>
      <trkpt lat="45.69856" lon="3.1264">
        <ele>445.248016</ele>
        <time>2012-01-12T09:27:36Z</time>
      </trkpt>
      <trkpt lat="45.69867" lon="3.12634">
        <ele>445.460205</ele>
        <time>2012-01-12T09:27:41Z</time>
      </trkpt>
      <trkpt lat="45.69877" lon="3.1263">
        <ele>445.979736</ele>
        <time>2012-01-12T09:27:46Z</time>
      </trkpt>
      <trkpt lat="45.69888" lon="3.12627">
        <ele>446.620056</ele>
        <time>2012-01-12T09:27:51Z</time>
      </trkpt>
      <trkpt lat="45.69899" lon="3.12624">
        <ele>447.657288</ele>
        <time>2012-01-12T09:27:56Z</time>
      </trkpt>
      <trkpt lat="45.69909" lon="3.12621">
        <ele>448.739594</ele>
        <time>2012-01-12T09:28:01Z</time>
      </trkpt>
      <trkpt lat="45.6992" lon="3.12619">
        <ele>449.951263</ele>
        <time>2012-01-12T09:28:06Z</time>
      </trkpt>
      <trkpt lat="45.6993" lon="3.12618">
        <ele>451.12561</ele>
        <time>2012-01-12T09:28:16Z</time>
      </trkpt>
      <trkpt lat="45.69937" lon="3.12607">
        <ele>451.926208</ele>
        <time>2012-01-12T09:28:25Z</time>
      </trkpt>
      <trkpt lat="45.69942" lon="3.12593">
        <ele>452.477844</ele>
        <time>2012-01-12T09:28:33Z</time>
      </trkpt>
      <trkpt lat="45.69943" lon="3.12577">
        <ele>452.454651</ele>
        <time>2012-01-12T09:28:37Z</time>
      </trkpt>
      <trkpt lat="45.69944" lon="3.12561">
        <ele>452.222046</ele>
        <time>2012-01-12T09:28:41Z</time>
      </trkpt>
      <trkpt lat="45.69943" lon="3.12546">
        <ele>451.882507</ele>
        <time>2012-01-12T09:28:45Z</time>
      </trkpt>
      <trkpt lat="45.69942" lon="3.12531">
        <ele>451.091461</ele>
        <time>2012-01-12T09:28:49Z</time>
      </trkpt>
      <trkpt lat="45.69941" lon="3.12517">
        <ele>450.518768</ele>
        <time>2012-01-12T09:28:52Z</time>
      </trkpt>
      <trkpt lat="45.69938" lon="3.125">
        <ele>449.672485</ele>
        <time>2012-01-12T09:28:56Z</time>
      </trkpt>
      <trkpt lat="45.69937" lon="3.12485">
        <ele>449.003754</ele>
        <time>2012-01-12T09:29:00Z</time>
      </trkpt>
      <trkpt lat="45.69934" lon="3.12471">
        <ele>448.209351</ele>
        <time>2012-01-12T09:29:07Z</time>
      </trkpt>
      <trkpt lat="45.69932" lon="3.12455">
        <ele>447.409088</ele>
        <time>2012-01-12T09:29:12Z</time>
      </trkpt>
      <trkpt lat="45.69929" lon="3.12439">
        <ele>446.425323</ele>
        <time>2012-01-12T09:29:16Z</time>
      </trkpt>
      <trkpt lat="45.69926" lon="3.12422">
        <ele>445.535522</ele>
        <time>2012-01-12T09:29:20Z</time>
      </trkpt>
      <trkpt lat="45.69923" lon="3.1241">
        <ele>444.840363</ele>
        <time>2012-01-12T09:29:23Z</time>
      </trkpt>
      <trkpt lat="45.69921" lon="3.12396">
        <ele>444.21048</ele>
        <time>2012-01-12T09:29:26Z</time>
      </trkpt>
      <trkpt lat="45.69918" lon="3.12379">
        <ele>443.444885</ele>
        <time>2012-01-12T09:29:30Z</time>
      </trkpt>
      <trkpt lat="45.69915" lon="3.12365">
        <ele>442.908752</ele>
        <time>2012-01-12T09:29:33Z</time>
      </trkpt>
      <trkpt lat="45.69913" lon="3.12352">
        <ele>442.441772</ele>
        <time>2012-01-12T09:29:36Z</time>
      </trkpt>
      <trkpt lat="45.6991" lon="3.12336">
        <ele>441.972748</ele>
        <time>2012-01-12T09:29:40Z</time>
      </trkpt>
      <trkpt lat="45.69906" lon="3.12324">
        <ele>441.486603</ele>
        <time>2012-01-12T09:29:47Z</time>
      </trkpt>
      <trkpt lat="45.69901" lon="3.12313">
        <ele>441.029602</ele>
        <time>2012-01-12T09:29:51Z</time>
      </trkpt>
      <trkpt lat="45.69895" lon="3.123">
        <ele>440.493256</ele>
        <time>2012-01-12T09:29:55Z</time>
      </trkpt>
      <trkpt lat="45.69889" lon="3.12286">
        <ele>440.067505</ele>
        <time>2012-01-12T09:29:59Z</time>
      </trkpt>
      <trkpt lat="45.69883" lon="3.12272">
        <ele>439.809998</ele>
        <time>2012-01-12T09:30:03Z</time>
      </trkpt>
      <trkpt lat="45.69876" lon="3.12258">
        <ele>439.473297</ele>
        <time>2012-01-12T09:30:07Z</time>
      </trkpt>
      <trkpt lat="45.6987" lon="3.12246">
        <ele>439.066711</ele>
        <time>2012-01-12T09:30:11Z</time>
      </trkpt>
      <trkpt lat="45.69864" lon="3.12234">
        <ele>438.602753</ele>
        <time>2012-01-12T09:30:15Z</time>
      </trkpt>
      <trkpt lat="45.69857" lon="3.12222">
        <ele>437.998383</ele>
        <time>2012-01-12T09:30:19Z</time>
      </trkpt>
      <trkpt lat="45.69849" lon="3.12209">
        <ele>437.157288</ele>
        <time>2012-01-12T09:30:23Z</time>
      </trkpt>
      <trkpt lat="45.69843" lon="3.12199">
        <ele>436.663757</ele>
        <time>2012-01-12T09:30:26Z</time>
      </trkpt>
      <trkpt lat="45.69835" lon="3.12186">
        <ele>436.675964</ele>
        <time>2012-01-12T09:30:30Z</time>
      </trkpt>
      <trkpt lat="45.69829" lon="3.12172">
        <ele>436.743927</ele>
        <time>2012-01-12T09:30:34Z</time>
      </trkpt>
      <trkpt lat="45.69824" lon="3.12159">
        <ele>436.792511</ele>
        <time>2012-01-12T09:30:38Z</time>
      </trkpt>
      <trkpt lat="45.69819" lon="3.12146">
        <ele>436.773468</ele>
        <time>2012-01-12T09:30:42Z</time>
      </trkpt>
      <trkpt lat="45.69814" lon="3.12133">
        <ele>436.683746</ele>
        <time>2012-01-12T09:30:46Z</time>
      </trkpt>
      <trkpt lat="45.6981" lon="3.1212">
        <ele>437.079987</ele>
        <time>2012-01-12T09:30:50Z</time>
      </trkpt>
      <trkpt lat="45.69806" lon="3.12108">
        <ele>437.415009</ele>
        <time>2012-01-12T09:30:54Z</time>
      </trkpt>
      <trkpt lat="45.69802" lon="3.12096">
        <ele>437.856323</ele>
        <time>2012-01-12T09:30:58Z</time>
      </trkpt>
      <trkpt lat="45.69798" lon="3.12082">
        <ele>438.538391</ele>
        <time>2012-01-12T09:31:02Z</time>
      </trkpt>
      <trkpt lat="45.69796" lon="3.12068">
        <ele>439.311066</ele>
        <time>2012-01-12T09:31:06Z</time>
      </trkpt>
      <trkpt lat="45.69795" lon="3.12054">
        <ele>439.922791</ele>
        <time>2012-01-12T09:31:10Z</time>
      </trkpt>
      <trkpt lat="45.69795" lon="3.1204">
        <ele>440.561157</ele>
        <time>2012-01-12T09:31:14Z</time>
      </trkpt>
      <trkpt lat="45.69794" lon="3.12026">
        <ele>441.207855</ele>
        <time>2012-01-12T09:31:18Z</time>
      </trkpt>
      <trkpt lat="45.69794" lon="3.12013">
        <ele>441.81662</ele>
        <time>2012-01-12T09:31:22Z</time>
      </trkpt>
      <trkpt lat="45.69794" lon="3.11997">
        <ele>442.390289</ele>
        <time>2012-01-12T09:31:27Z</time>
      </trkpt>
      <trkpt lat="45.69795" lon="3.11982">
        <ele>442.748077</ele>
        <time>2012-01-12T09:31:31Z</time>
      </trkpt>
      <trkpt lat="45.69796" lon="3.11968">
        <ele>443.139801</ele>
        <time>2012-01-12T09:31:35Z</time>
      </trkpt>
      <trkpt lat="45.69799" lon="3.11955">
        <ele>443.539124</ele>
        <time>2012-01-12T09:31:40Z</time>
      </trkpt>
      <trkpt lat="45.69802" lon="3.11941">
        <ele>443.929413</ele>
        <time>2012-01-12T09:31:44Z</time>
      </trkpt>
      <trkpt lat="45.69805" lon="3.11929">
        <ele>444.342651</ele>
        <time>2012-01-12T09:31:48Z</time>
      </trkpt>
      <trkpt lat="45.69811" lon="3.11918">
        <ele>444.882263</ele>
        <time>2012-01-12T09:31:52Z</time>
      </trkpt>
      <trkpt lat="45.69818" lon="3.11907">
        <ele>445.450165</ele>
        <time>2012-01-12T09:31:57Z</time>
      </trkpt>
      <trkpt lat="45.69825" lon="3.11897">
        <ele>445.967163</ele>
        <time>2012-01-12T09:32:02Z</time>
      </trkpt>
      <trkpt lat="45.69834" lon="3.11892">
        <ele>446.437988</ele>
        <time>2012-01-12T09:32:06Z</time>
      </trkpt>
      <trkpt lat="45.6984" lon="3.11878">
        <ele>446.612</ele>
        <time>2012-01-12T09:32:11Z</time>
      </trkpt>
      <trkpt lat="45.69843" lon="3.11865">
        <ele>446.73999</ele>
        <time>2012-01-12T09:32:15Z</time>
      </trkpt>
      <trkpt lat="45.69847" lon="3.11851">
        <ele>446.934998</ele>
        <time>2012-01-12T09:32:19Z</time>
      </trkpt>
      <trkpt lat="45.6985" lon="3.11837">
        <ele>447.092896</ele>
        <time>2012-01-12T09:32:23Z</time>
      </trkpt>
      <trkpt lat="45.69851" lon="3.11823">
        <ele>447.173798</ele>
        <time>2012-01-12T09:32:27Z</time>
      </trkpt>
      <trkpt lat="45.69854" lon="3.11808">
        <ele>447.321899</ele>
        <time>2012-01-12T09:32:32Z</time>
      </trkpt>
      <trkpt lat="45.69861" lon="3.11798">
        <ele>447.699738</ele>
        <time>2012-01-12T09:32:36Z</time>
      </trkpt>
      <trkpt lat="45.69868" lon="3.11789">
        <ele>448.067139</ele>
        <time>2012-01-12T09:32:40Z</time>
      </trkpt>
      <trkpt lat="45.69875" lon="3.11779">
        <ele>448.402191</ele>
        <time>2012-01-12T09:32:44Z</time>
      </trkpt>
      <trkpt lat="45.69883" lon="3.11773">
        <ele>448.790283</ele>
        <time>2012-01-12T09:32:48Z</time>
      </trkpt>
      <trkpt lat="45.69894" lon="3.11774">
        <ele>449.349213</ele>
        <time>2012-01-12T09:32:52Z</time>
      </trkpt>
      <trkpt lat="45.69903" lon="3.11774">
        <ele>450.141388</ele>
        <time>2012-01-12T09:32:56Z</time>
      </trkpt>
      <trkpt lat="45.69913" lon="3.11771">
        <ele>450.851196</ele>
        <time>2012-01-12T09:33:03Z</time>
      </trkpt>
      <trkpt lat="45.69922" lon="3.11768">
        <ele>451.486115</ele>
        <time>2012-01-12T09:33:10Z</time>
      </trkpt>
      <trkpt lat="45.69933" lon="3.11763">
        <ele>452.117004</ele>
        <time>2012-01-12T09:33:15Z</time>
      </trkpt>
      <trkpt lat="45.69942" lon="3.1176">
        <ele>452.790588</ele>
        <time>2012-01-12T09:33:24Z</time>
      </trkpt>
      <trkpt lat="45.69952" lon="3.11758">
        <ele>453.814087</ele>
        <time>2012-01-12T09:33:32Z</time>
      </trkpt>
      <trkpt lat="45.69962" lon="3.11756">
        <ele>454.801239</ele>
        <time>2012-01-12T09:33:40Z</time>
      </trkpt>
      <trkpt lat="45.69971" lon="3.11752">
        <ele>455.643921</ele>
        <time>2012-01-12T09:33:49Z</time>
      </trkpt>
      <trkpt lat="45.69981" lon="3.11748">
        <ele>456.495667</ele>
        <time>2012-01-12T09:33:55Z</time>
      </trkpt>
      <trkpt lat="45.69992" lon="3.11744">
        <ele>457.510071</ele>
        <time>2012-01-12T09:34:00Z</time>
      </trkpt>
      <trkpt lat="45.70003" lon="3.11739">
        <ele>458.578308</ele>
        <time>2012-01-12T09:34:05Z</time>
      </trkpt>
      <trkpt lat="45.70014" lon="3.11735">
        <ele>459.546967</ele>
        <time>2012-01-12T09:34:10Z</time>
      </trkpt>
      <trkpt lat="45.70023" lon="3.11734">
        <ele>460.664398</ele>
        <time>2012-01-12T09:34:15Z</time>
      </trkpt>
      <trkpt lat="45.70034" lon="3.11734">
        <ele>462.046875</ele>
        <time>2012-01-12T09:34:20Z</time>
      </trkpt>
      <trkpt lat="45.70044" lon="3.11733">
        <ele>463.628021</ele>
        <time>2012-01-12T09:34:25Z</time>
      </trkpt>
      <trkpt lat="45.70055" lon="3.11735">
        <ele>465.695496</ele>
        <time>2012-01-12T09:34:30Z</time>
      </trkpt>
      <trkpt lat="45.70066" lon="3.11735">
        <ele>467.413849</ele>
        <time>2012-01-12T09:34:35Z</time>
      </trkpt>
      <trkpt lat="45.70077" lon="3.11736">
        <ele>469.26001</ele>
        <time>2012-01-12T09:34:40Z</time>
      </trkpt>
      <trkpt lat="45.70088" lon="3.11732">
        <ele>470.23999</ele>
        <time>2012-01-12T09:34:45Z</time>
      </trkpt>
      <trkpt lat="45.70099" lon="3.1173">
        <ele>471.429993</ele>
        <time>2012-01-12T09:34:50Z</time>
      </trkpt>
      <trkpt lat="45.7011" lon="3.11727">
        <ele>472.589996</ele>
        <time>2012-01-12T09:34:55Z</time>
      </trkpt>
      <trkpt lat="45.70119" lon="3.11725">
        <ele>473.484985</ele>
        <time>2012-01-12T09:35:00Z</time>
      </trkpt>
      <trkpt lat="45.70129" lon="3.11723">
        <ele>473.86499</ele>
        <time>2012-01-12T09:35:05Z</time>
      </trkpt>
      <trkpt lat="45.70139" lon="3.11719">
        <ele>474.089996</ele>
        <time>2012-01-12T09:35:10Z</time>
      </trkpt>
      <trkpt lat="45.70148" lon="3.11715">
        <ele>474.200012</ele>
        <time>2012-01-12T09:35:15Z</time>
      </trkpt>
      <trkpt lat="45.70159" lon="3.1171">
        <ele>474.274994</ele>
        <time>2012-01-12T09:35:21Z</time>
      </trkpt>
      <trkpt lat="45.70168" lon="3.11709">
        <ele>474.670013</ele>
        <time>2012-01-12T09:35:26Z</time>
      </trkpt>
      <trkpt lat="45.70178" lon="3.11706">
        <ele>474.744995</ele>
        <time>2012-01-12T09:35:31Z</time>
      </trkpt>
      <trkpt lat="45.70188" lon="3.11707">
        <ele>475.299988</ele>
        <time>2012-01-12T09:35:36Z</time>
      </trkpt>
      <trkpt lat="45.70199" lon="3.1171">
        <ele>476.144989</ele>
        <time>2012-01-12T09:35:41Z</time>
      </trkpt>
      <trkpt lat="45.70209" lon="3.11715">
        <ele>477.100006</ele>
        <time>2012-01-12T09:35:46Z</time>
      </trkpt>
      <trkpt lat="45.70218" lon="3.1172">
        <ele>477.806519</ele>
        <time>2012-01-12T09:35:51Z</time>
      </trkpt>
      <trkpt lat="45.70227" lon="3.11723">
        <ele>478.313812</ele>
        <time>2012-01-12T09:35:56Z</time>
      </trkpt>
      <trkpt lat="45.70236" lon="3.1173">
        <ele>479.194397</ele>
        <time>2012-01-12T09:36:02Z</time>
      </trkpt>
      <trkpt lat="45.70246" lon="3.11735">
        <ele>479.854218</ele>
        <time>2012-01-12T09:36:08Z</time>
      </trkpt>
      <trkpt lat="45.70257" lon="3.11741">
        <ele>480.585266</ele>
        <time>2012-01-12T09:36:14Z</time>
      </trkpt>
      <trkpt lat="45.70267" lon="3.11745">
        <ele>481.238129</ele>
        <time>2012-01-12T09:36:19Z</time>
      </trkpt>
      <trkpt lat="45.70277" lon="3.1175">
        <ele>482.004333</ele>
        <time>2012-01-12T09:36:25Z</time>
      </trkpt>
      <trkpt lat="45.70287" lon="3.11755">
        <ele>482.717499</ele>
        <time>2012-01-12T09:36:30Z</time>
      </trkpt>
      <trkpt lat="45.70296" lon="3.11759">
        <ele>483.297089</ele>
        <time>2012-01-12T09:36:35Z</time>
      </trkpt>
      <trkpt lat="45.70305" lon="3.11763">
        <ele>484.109985</ele>
        <time>2012-01-12T09:36:40Z</time>
      </trkpt>
      <trkpt lat="45.70315" lon="3.11766">
        <ele>485.047516</ele>
        <time>2012-01-12T09:36:45Z</time>
      </trkpt>
      <trkpt lat="45.70326" lon="3.1177">
        <ele>486.119995</ele>
        <time>2012-01-12T09:36:51Z</time>
      </trkpt>
      <trkpt lat="45.70336" lon="3.11772">
        <ele>487.005005</ele>
        <time>2012-01-12T09:36:56Z</time>
      </trkpt>
      <trkpt lat="45.70346" lon="3.11774">
        <ele>487.997498</ele>
        <time>2012-01-12T09:37:02Z</time>
      </trkpt>
      <trkpt lat="45.70357" lon="3.11776">
        <ele>489.369995</ele>
        <time>2012-01-12T09:37:08Z</time>
      </trkpt>
      <trkpt lat="45.70368" lon="3.11778">
        <ele>490.672485</ele>
        <time>2012-01-12T09:37:14Z</time>
      </trkpt>
      <trkpt lat="45.70377" lon="3.1178">
        <ele>491.88501</ele>
        <time>2012-01-12T09:37:19Z</time>
      </trkpt>
      <trkpt lat="45.70389" lon="3.11784">
        <ele>493.524994</ele>
        <time>2012-01-12T09:37:24Z</time>
      </trkpt>
      <trkpt lat="45.70399" lon="3.11786">
        <ele>494.364746</ele>
        <time>2012-01-12T09:37:30Z</time>
      </trkpt>
      <trkpt lat="45.7041" lon="3.11788">
        <ele>495.089752</ele>
        <time>2012-01-12T09:37:36Z</time>
      </trkpt>
      <trkpt lat="45.70423" lon="3.1179">
        <ele>496.018433</ele>
        <time>2012-01-12T09:37:42Z</time>
      </trkpt>
      <trkpt lat="45.70435" lon="3.11794">
        <ele>497.016083</ele>
        <time>2012-01-12T09:37:48Z</time>
      </trkpt>
      <trkpt lat="45.70446" lon="3.11797">
        <ele>497.483215</ele>
        <time>2012-01-12T09:37:54Z</time>
      </trkpt>
      <trkpt lat="45.70456" lon="3.11799">
        <ele>497.896576</ele>
        <time>2012-01-12T09:37:58Z</time>
      </trkpt>
      <trkpt lat="45.70467" lon="3.11804">
        <ele>498.588531</ele>
        <time>2012-01-12T09:38:03Z</time>
      </trkpt>
      <trkpt lat="45.70477" lon="3.11812">
        <ele>499.778076</ele>
        <time>2012-01-12T09:38:08Z</time>
      </trkpt>
      <trkpt lat="45.70486" lon="3.11822">
        <ele>500.808105</ele>
        <time>2012-01-12T09:38:13Z</time>
      </trkpt>
      <trkpt lat="45.70496" lon="3.1183">
        <ele>502.066254</ele>
        <time>2012-01-12T09:38:18Z</time>
      </trkpt>
      <trkpt lat="45.70505" lon="3.1184">
        <ele>503.445007</ele>
        <time>2012-01-12T09:38:23Z</time>
      </trkpt>
      <trkpt lat="45.70513" lon="3.11849">
        <ele>504.744995</ele>
        <time>2012-01-12T09:38:28Z</time>
      </trkpt>
      <trkpt lat="45.70522" lon="3.11857">
        <ele>505.894989</ele>
        <time>2012-01-12T09:38:33Z</time>
      </trkpt>
      <trkpt lat="45.7053" lon="3.11864">
        <ele>507.086151</ele>
        <time>2012-01-12T09:38:38Z</time>
      </trkpt>
      <trkpt lat="45.70538" lon="3.11872">
        <ele>508.137787</ele>
        <time>2012-01-12T09:38:43Z</time>
      </trkpt>
      <trkpt lat="45.70547" lon="3.11878">
        <ele>509.043304</ele>
        <time>2012-01-12T09:38:48Z</time>
      </trkpt>
      <trkpt lat="45.70556" lon="3.11885">
        <ele>509.944214</ele>
        <time>2012-01-12T09:38:54Z</time>
      </trkpt>
      <trkpt lat="45.70565" lon="3.11891">
        <ele>510.548798</ele>
        <time>2012-01-12T09:38:59Z</time>
      </trkpt>
      <trkpt lat="45.70574" lon="3.11897">
        <ele>511.06424</ele>
        <time>2012-01-12T09:39:04Z</time>
      </trkpt>
      <trkpt lat="45.70582" lon="3.11901">
        <ele>511.372711</ele>
        <time>2012-01-12T09:39:09Z</time>
      </trkpt>
      <trkpt lat="45.70591" lon="3.11909">
        <ele>512.08197</ele>
        <time>2012-01-12T09:39:14Z</time>
      </trkpt>
      <trkpt lat="45.70601" lon="3.11915">
        <ele>512.703491</ele>
        <time>2012-01-12T09:39:19Z</time>
      </trkpt>
      <trkpt lat="45.70609" lon="3.11922">
        <ele>513.495667</ele>
        <time>2012-01-12T09:39:24Z</time>
      </trkpt>
      <trkpt lat="45.70617" lon="3.1193">
        <ele>514.216858</ele>
        <time>2012-01-12T09:39:29Z</time>
      </trkpt>
      <trkpt lat="45.70626" lon="3.11938">
        <ele>515.00946</ele>
        <time>2012-01-12T09:39:34Z</time>
      </trkpt>
      <trkpt lat="45.70633" lon="3.11946">
        <ele>515.730835</ele>
        <time>2012-01-12T09:39:39Z</time>
      </trkpt>
      <trkpt lat="45.70641" lon="3.11955">
        <ele>516.526917</ele>
        <time>2012-01-12T09:39:44Z</time>
      </trkpt>
      <trkpt lat="45.70649" lon="3.11964">
        <ele>517.132324</ele>
        <time>2012-01-12T09:39:49Z</time>
      </trkpt>
      <trkpt lat="45.70656" lon="3.11973">
        <ele>518.049011</ele>
        <time>2012-01-12T09:39:54Z</time>
      </trkpt>
      <trkpt lat="45.70663" lon="3.11984">
        <ele>518.971252</ele>
        <time>2012-01-12T09:39:59Z</time>
      </trkpt>
      <trkpt lat="45.70671" lon="3.11993">
        <ele>519.695007</ele>
        <time>2012-01-12T09:40:04Z</time>
      </trkpt>
      <trkpt lat="45.70679" lon="3.12003">
        <ele>520.508728</ele>
        <time>2012-01-12T09:40:09Z</time>
      </trkpt>
      <trkpt lat="45.70688" lon="3.12011">
        <ele>521.067505</ele>
        <time>2012-01-12T09:40:14Z</time>
      </trkpt>
      <trkpt lat="45.70697" lon="3.12021">
        <ele>521.407715</ele>
        <time>2012-01-12T09:40:19Z</time>
      </trkpt>
      <trkpt lat="45.70706" lon="3.1203">
        <ele>520.848755</ele>
        <time>2012-01-12T09:40:23Z</time>
      </trkpt>
      <trkpt lat="45.70715" lon="3.12038">
        <ele>520.20752</ele>
        <time>2012-01-12T09:40:27Z</time>
      </trkpt>
      <trkpt lat="45.70723" lon="3.12046">
        <ele>519.59375</ele>
        <time>2012-01-12T09:40:31Z</time>
      </trkpt>
      <trkpt lat="45.70733" lon="3.12055">
        <ele>518.852478</ele>
        <time>2012-01-12T09:40:36Z</time>
      </trkpt>
      <trkpt lat="45.70741" lon="3.12065">
        <ele>518.242493</ele>
        <time>2012-01-12T09:40:41Z</time>
      </trkpt>
      <trkpt lat="45.70751" lon="3.12074">
        <ele>517.779541</ele>
        <time>2012-01-12T09:40:45Z</time>
      </trkpt>
      <trkpt lat="45.70764" lon="3.1208">
        <ele>517.596863</ele>
        <time>2012-01-12T09:40:48Z</time>
      </trkpt>
      <trkpt lat="45.70775" lon="3.12085">
        <ele>517.290771</ele>
        <time>2012-01-12T09:40:50Z</time>
      </trkpt>
      <trkpt lat="45.70785" lon="3.12091">
        <ele>516.889465</ele>
        <time>2012-01-12T09:40:52Z</time>
      </trkpt>
      <trkpt lat="45.70796" lon="3.12103">
        <ele>516.73938</ele>
        <time>2012-01-12T09:40:55Z</time>
      </trkpt>
      <trkpt lat="45.70805" lon="3.1211">
        <ele>517.190308</ele>
        <time>2012-01-12T09:40:57Z</time>
      </trkpt>
      <trkpt lat="45.70815" lon="3.12115">
        <ele>517.794312</ele>
        <time>2012-01-12T09:40:59Z</time>
      </trkpt>
      <trkpt lat="45.70824" lon="3.1212">
        <ele>518.415039</ele>
        <time>2012-01-12T09:41:01Z</time>
      </trkpt>
      <trkpt lat="45.70832" lon="3.12129">
        <ele>518.968384</ele>
        <time>2012-01-12T09:41:03Z</time>
      </trkpt>
      <trkpt lat="45.7084" lon="3.12138">
        <ele>519.599915</ele>
        <time>2012-01-12T09:41:05Z</time>
      </trkpt>
      <trkpt lat="45.70846" lon="3.12148">
        <ele>520.345703</ele>
        <time>2012-01-12T09:41:07Z</time>
      </trkpt>
      <trkpt lat="45.70853" lon="3.12157">
        <ele>521.116272</ele>
        <time>2012-01-12T09:41:09Z</time>
      </trkpt>
      <trkpt lat="45.7086" lon="3.12166">
        <ele>521.941223</ele>
        <time>2012-01-12T09:41:11Z</time>
      </trkpt>
      <trkpt lat="45.70868" lon="3.12173">
        <ele>522.88501</ele>
        <time>2012-01-12T09:41:13Z</time>
      </trkpt>
      <trkpt lat="45.70881" lon="3.12178">
        <ele>524.450012</ele>
        <time>2012-01-12T09:41:16Z</time>
      </trkpt>
      <trkpt lat="45.70892" lon="3.12183">
        <ele>526.315735</ele>
        <time>2012-01-12T09:41:19Z</time>
      </trkpt>
      <trkpt lat="45.70902" lon="3.12189">
        <ele>527.756348</ele>
        <time>2012-01-12T09:41:23Z</time>
      </trkpt>
      <trkpt lat="45.70909" lon="3.12197">
        <ele>528.843811</ele>
        <time>2012-01-12T09:41:28Z</time>
      </trkpt>
      <trkpt lat="45.70917" lon="3.12205">
        <ele>529.816162</ele>
        <time>2012-01-12T09:41:33Z</time>
      </trkpt>
      <trkpt lat="45.70923" lon="3.12215">
        <ele>530.597473</ele>
        <time>2012-01-12T09:41:38Z</time>
      </trkpt>
      <trkpt lat="45.70929" lon="3.12226">
        <ele>531.4375</ele>
        <time>2012-01-12T09:41:43Z</time>
      </trkpt>
      <trkpt lat="45.70933" lon="3.12238">
        <ele>532.155029</ele>
        <time>2012-01-12T09:41:48Z</time>
      </trkpt>
      <trkpt lat="45.70937" lon="3.1225">
        <ele>532.784973</ele>
        <time>2012-01-12T09:41:53Z</time>
      </trkpt>
      <trkpt lat="45.70942" lon="3.12261">
        <ele>533.607483</ele>
        <time>2012-01-12T09:41:58Z</time>
      </trkpt>
      <trkpt lat="45.7095" lon="3.12269">
        <ele>534.849976</ele>
        <time>2012-01-12T09:42:03Z</time>
      </trkpt>
      <trkpt lat="45.7096" lon="3.1227">
        <ele>536.372498</ele>
        <time>2012-01-12T09:42:08Z</time>
      </trkpt>
      <trkpt lat="45.7097" lon="3.12263">
        <ele>537.965027</ele>
        <time>2012-01-12T09:42:14Z</time>
      </trkpt>
      <trkpt lat="45.70979" lon="3.12258">
        <ele>539.155029</ele>
        <time>2012-01-12T09:42:19Z</time>
      </trkpt>
      <trkpt lat="45.70988" lon="3.12253">
        <ele>540.294983</ele>
        <time>2012-01-12T09:42:24Z</time>
      </trkpt>
      <trkpt lat="45.70998" lon="3.12251">
        <ele>541.599976</ele>
        <time>2012-01-12T09:42:29Z</time>
      </trkpt>
      <trkpt lat="45.71007" lon="3.12249">
        <ele>542.844971</ele>
        <time>2012-01-12T09:42:34Z</time>
      </trkpt>
      <trkpt lat="45.71016" lon="3.12247">
        <ele>544.056274</ele>
        <time>2012-01-12T09:42:39Z</time>
      </trkpt>
      <trkpt lat="45.71026" lon="3.12245">
        <ele>545.642822</ele>
        <time>2012-01-12T09:42:44Z</time>
      </trkpt>
      <trkpt lat="45.71036" lon="3.12242">
        <ele>547.416626</ele>
        <time>2012-01-12T09:42:50Z</time>
      </trkpt>
      <trkpt lat="45.71046" lon="3.1224">
        <ele>548.912659</ele>
        <time>2012-01-12T09:42:55Z</time>
      </trkpt>
      <trkpt lat="45.71055" lon="3.12238">
        <ele>550.39447</ele>
        <time>2012-01-12T09:43:00Z</time>
      </trkpt>
      <trkpt lat="45.71065" lon="3.12235">
        <ele>552.106445</ele>
        <time>2012-01-12T09:43:06Z</time>
      </trkpt>
      <trkpt lat="45.71075" lon="3.12232">
        <ele>553.642761</ele>
        <time>2012-01-12T09:43:11Z</time>
      </trkpt>
      <trkpt lat="45.71084" lon="3.12229">
        <ele>555.164917</ele>
        <time>2012-01-12T09:43:16Z</time>
      </trkpt>
      <trkpt lat="45.71093" lon="3.12226">
        <ele>556.56427</ele>
        <time>2012-01-12T09:43:21Z</time>
      </trkpt>
      <trkpt lat="45.71102" lon="3.12223">
        <ele>557.890747</ele>
        <time>2012-01-12T09:43:26Z</time>
      </trkpt>
      <trkpt lat="45.71113" lon="3.12221">
        <ele>559.742432</ele>
        <time>2012-01-12T09:43:32Z</time>
      </trkpt>
      <trkpt lat="45.71123" lon="3.12218">
        <ele>561.620056</ele>
        <time>2012-01-12T09:43:38Z</time>
      </trkpt>
      <trkpt lat="45.71134" lon="3.12215">
        <ele>563.551941</ele>
        <time>2012-01-12T09:43:44Z</time>
      </trkpt>
      <trkpt lat="45.71143" lon="3.12212">
        <ele>565.335999</ele>
        <time>2012-01-12T09:43:50Z</time>
      </trkpt>
      <trkpt lat="45.71145" lon="3.12197">
        <ele>565.562378</ele>
        <time>2012-01-12T09:43:56Z</time>
      </trkpt>
      <trkpt lat="45.71145" lon="3.12182">
        <ele>565.387146</ele>
        <time>2012-01-12T09:44:02Z</time>
      </trkpt>
      <trkpt lat="45.71151" lon="3.1217">
        <ele>566.307495</ele>
        <time>2012-01-12T09:44:09Z</time>
      </trkpt>
      <trkpt lat="45.71144" lon="3.12173">
        <ele>565.170471</ele>
        <time>2012-01-12T09:44:16Z</time>
      </trkpt>
      <trkpt lat="45.71149" lon="3.12169">
        <ele>565.878357</ele>
        <time>2012-01-12T09:44:36Z</time>
      </trkpt>
      <trkpt lat="45.71156" lon="3.1216">
        <ele>566.996277</ele>
        <time>2012-01-12T09:44:50Z</time>
      </trkpt>
      <trkpt lat="45.71163" lon="3.1215">
        <ele>568.190002</ele>
        <time>2012-01-12T09:45:00Z</time>
      </trkpt>
      <trkpt lat="45.71169" lon="3.1214">
        <ele>569.940002</ele>
        <time>2012-01-12T09:45:06Z</time>
      </trkpt>
      <trkpt lat="45.71176" lon="3.1213">
        <ele>571.72998</ele>
        <time>2012-01-12T09:45:12Z</time>
      </trkpt>
      <trkpt lat="45.71183" lon="3.12118">
        <ele>573.780029</ele>
        <time>2012-01-12T09:45:19Z</time>
      </trkpt>
      <trkpt lat="45.7119" lon="3.12107">
        <ele>575.73999</ele>
        <time>2012-01-12T09:45:25Z</time>
      </trkpt>
      <trkpt lat="45.71198" lon="3.12096">
        <ele>577.804993</ele>
        <time>2012-01-12T09:45:31Z</time>
      </trkpt>
      <trkpt lat="45.71206" lon="3.12085">
        <ele>579.992615</ele>
        <time>2012-01-12T09:45:37Z</time>
      </trkpt>
      <trkpt lat="45.71214" lon="3.12077">
        <ele>582.06189</ele>
        <time>2012-01-12T09:45:43Z</time>
      </trkpt>
      <trkpt lat="45.71223" lon="3.12069">
        <ele>584.377014</ele>
        <time>2012-01-12T09:45:49Z</time>
      </trkpt>
      <trkpt lat="45.71231" lon="3.12061">
        <ele>586.671509</ele>
        <time>2012-01-12T09:45:59Z</time>
      </trkpt>
      <trkpt lat="45.71241" lon="3.12052">
        <ele>589.236572</ele>
        <time>2012-01-12T09:46:14Z</time>
      </trkpt>
      <trkpt lat="45.71251" lon="3.12046">
        <ele>591.788086</ele>
        <time>2012-01-12T09:46:28Z</time>
      </trkpt>
      <trkpt lat="45.71259" lon="3.12037">
        <ele>594.29364</ele>
        <time>2012-01-12T09:46:42Z</time>
      </trkpt>
      <trkpt lat="45.71269" lon="3.12034">
        <ele>596.389954</ele>
        <time>2012-01-12T09:46:57Z</time>
      </trkpt>
      <trkpt lat="45.71279" lon="3.12035">
        <ele>598.370667</ele>
        <time>2012-01-12T09:47:11Z</time>
      </trkpt>
      <trkpt lat="45.71286" lon="3.12044">
        <ele>598.782715</ele>
        <time>2012-01-12T09:47:22Z</time>
      </trkpt>
      <trkpt lat="45.71292" lon="3.12055">
        <ele>598.786255</ele>
        <time>2012-01-12T09:47:32Z</time>
      </trkpt>
      <trkpt lat="45.71299" lon="3.12066">
        <ele>598.961243</ele>
        <time>2012-01-12T09:47:37Z</time>
      </trkpt>
      <trkpt lat="45.71307" lon="3.12076">
        <ele>599.626221</ele>
        <time>2012-01-12T09:47:41Z</time>
      </trkpt>
      <trkpt lat="45.71316" lon="3.12084">
        <ele>600.544983</ele>
        <time>2012-01-12T09:47:45Z</time>
      </trkpt>
      <trkpt lat="45.71325" lon="3.12087">
        <ele>602.076233</ele>
        <time>2012-01-12T09:47:49Z</time>
      </trkpt>
      <trkpt lat="45.71336" lon="3.12088">
        <ele>604.549194</ele>
        <time>2012-01-12T09:47:53Z</time>
      </trkpt>
      <trkpt lat="45.71346" lon="3.12084">
        <ele>608.025146</ele>
        <time>2012-01-12T09:47:58Z</time>
      </trkpt>
      <trkpt lat="45.71356" lon="3.12084">
        <ele>610.968994</ele>
        <time>2012-01-12T09:48:05Z</time>
      </trkpt>
      <trkpt lat="45.71365" lon="3.1208">
        <ele>614.028687</ele>
        <time>2012-01-12T09:48:20Z</time>
      </trkpt>
      <trkpt lat="45.71364" lon="3.12066">
        <ele>614.748718</ele>
        <time>2012-01-12T09:48:26Z</time>
      </trkpt>
      <trkpt lat="45.71362" lon="3.12051">
        <ele>614.986816</ele>
        <time>2012-01-12T09:48:31Z</time>
      </trkpt>
      <trkpt lat="45.71359" lon="3.12035">
        <ele>615.372498</ele>
        <time>2012-01-12T09:48:41Z</time>
      </trkpt>
      <trkpt lat="45.71359" lon="3.12021">
        <ele>616.689514</ele>
        <time>2012-01-12T09:48:53Z</time>
      </trkpt>
      <trkpt lat="45.71357" lon="3.12005">
        <ele>617.733215</ele>
        <time>2012-01-12T09:49:03Z</time>
      </trkpt>
      <trkpt lat="45.71354" lon="3.1199">
        <ele>618.587952</ele>
        <time>2012-01-12T09:49:13Z</time>
      </trkpt>
      <trkpt lat="45.71351" lon="3.11975">
        <ele>619.337769</ele>
        <time>2012-01-12T09:49:23Z</time>
      </trkpt>
      <trkpt lat="45.71345" lon="3.11964">
        <ele>619.365723</ele>
        <time>2012-01-12T09:49:28Z</time>
      </trkpt>
      <trkpt lat="45.7134" lon="3.11951">
        <ele>619.767029</ele>
        <time>2012-01-12T09:49:33Z</time>
      </trkpt>
      <trkpt lat="45.71342" lon="3.11937">
        <ele>621.394531</ele>
        <time>2012-01-12T09:49:41Z</time>
      </trkpt>
      <trkpt lat="45.71349" lon="3.11928">
        <ele>623.59137</ele>
        <time>2012-01-12T09:49:57Z</time>
      </trkpt>
      <trkpt lat="45.71355" lon="3.11916">
        <ele>625.782043</ele>
        <time>2012-01-12T09:50:12Z</time>
      </trkpt>
      <trkpt lat="45.71361" lon="3.11903">
        <ele>627.872253</ele>
        <time>2012-01-12T09:50:28Z</time>
      </trkpt>
      <trkpt lat="45.71364" lon="3.11888">
        <ele>629.592407</ele>
        <time>2012-01-12T09:50:44Z</time>
      </trkpt>
      <trkpt lat="45.7137" lon="3.11875">
        <ele>631.363342</ele>
        <time>2012-01-12T09:50:58Z</time>
      </trkpt>
      <trkpt lat="45.71379" lon="3.11877">
        <ele>632.439697</ele>
        <time>2012-01-12T09:51:08Z</time>
      </trkpt>
      <trkpt lat="45.71384" lon="3.11888">
        <ele>632.473083</ele>
        <time>2012-01-12T09:51:17Z</time>
      </trkpt>
      <trkpt lat="45.71389" lon="3.119">
        <ele>632.705017</ele>
        <time>2012-01-12T09:51:26Z</time>
      </trkpt>
      <trkpt lat="45.71396" lon="3.1191">
        <ele>633.304871</ele>
        <time>2012-01-12T09:51:32Z</time>
      </trkpt>
      <trkpt lat="45.71405" lon="3.11919">
        <ele>634.414612</ele>
        <time>2012-01-12T09:51:37Z</time>
      </trkpt>
      <trkpt lat="45.71412" lon="3.11931">
        <ele>635.319946</ele>
        <time>2012-01-12T09:51:42Z</time>
      </trkpt>
      <trkpt lat="45.71417" lon="3.11942">
        <ele>636.023193</ele>
        <time>2012-01-12T09:51:46Z</time>
      </trkpt>
      <trkpt lat="45.7142" lon="3.11955">
        <ele>636.633667</ele>
        <time>2012-01-12T09:51:51Z</time>
      </trkpt>
      <trkpt lat="45.7143" lon="3.11956">
        <ele>639.124878</ele>
        <time>2012-01-12T09:52:02Z</time>
      </trkpt>
      <trkpt lat="45.71435" lon="3.11944">
        <ele>640.381531</ele>
        <time>2012-01-12T09:52:11Z</time>
      </trkpt>
      <trkpt lat="45.7144" lon="3.11931">
        <ele>641.618774</ele>
        <time>2012-01-12T09:52:17Z</time>
      </trkpt>
      <trkpt lat="45.71446" lon="3.11919">
        <ele>642.873474</ele>
        <time>2012-01-12T09:52:22Z</time>
      </trkpt>
      <trkpt lat="45.71453" lon="3.1191">
        <ele>644.240295</ele>
        <time>2012-01-12T09:52:27Z</time>
      </trkpt>
      <trkpt lat="45.71463" lon="3.11904">
        <ele>646.078918</ele>
        <time>2012-01-12T09:52:33Z</time>
      </trkpt>
      <trkpt lat="45.71474" lon="3.119">
        <ele>648.169983</ele>
        <time>2012-01-12T09:52:39Z</time>
      </trkpt>
      <trkpt lat="45.71484" lon="3.11897">
        <ele>650.150024</ele>
        <time>2012-01-12T09:52:45Z</time>
      </trkpt>
      <trkpt lat="45.71495" lon="3.11896">
        <ele>652.33252</ele>
        <time>2012-01-12T09:52:51Z</time>
      </trkpt>
      <trkpt lat="45.71504" lon="3.11895">
        <ele>654.244995</ele>
        <time>2012-01-12T09:52:56Z</time>
      </trkpt>
      <trkpt lat="45.71516" lon="3.11894">
        <ele>656.580994</ele>
        <time>2012-01-12T09:53:02Z</time>
      </trkpt>
      <trkpt lat="45.7153" lon="3.11896">
        <ele>659.753418</ele>
        <time>2012-01-12T09:53:36Z</time>
      </trkpt>
      <trkpt lat="45.71539" lon="3.11893">
        <ele>661.877563</ele>
        <time>2012-01-12T09:53:46Z</time>
      </trkpt>
      <trkpt lat="45.71548" lon="3.11884">
        <ele>663.958252</ele>
        <time>2012-01-12T09:53:56Z</time>
      </trkpt>
      <trkpt lat="45.71553" lon="3.1187">
        <ele>665.254089</ele>
        <time>2012-01-12T09:54:02Z</time>
      </trkpt>
      <trkpt lat="45.71558" lon="3.11856">
        <ele>666.625977</ele>
        <time>2012-01-12T09:54:08Z</time>
      </trkpt>
      <trkpt lat="45.71562" lon="3.11842">
        <ele>667.892944</ele>
        <time>2012-01-12T09:54:14Z</time>
      </trkpt>
      <trkpt lat="45.71567" lon="3.1183">
        <ele>669.198425</ele>
        <time>2012-01-12T09:54:20Z</time>
      </trkpt>
      <trkpt lat="45.7157" lon="3.11815">
        <ele>670.460327</ele>
        <time>2012-01-12T09:54:26Z</time>
      </trkpt>
      <trkpt lat="45.71574" lon="3.11802">
        <ele>671.733459</ele>
        <time>2012-01-12T09:54:36Z</time>
      </trkpt>
      <trkpt lat="45.71577" lon="3.11787">
        <ele>672.643982</ele>
        <time>2012-01-12T09:54:48Z</time>
      </trkpt>
      <trkpt lat="45.71582" lon="3.11772">
        <ele>674.12793</ele>
        <time>2012-01-12T09:55:00Z</time>
      </trkpt>
      <trkpt lat="45.71588" lon="3.1176">
        <ele>675.834106</ele>
        <time>2012-01-12T09:55:05Z</time>
      </trkpt>
      <trkpt lat="45.71595" lon="3.11746">
        <ele>677.474182</ele>
        <time>2012-01-12T09:55:10Z</time>
      </trkpt>
      <trkpt lat="45.716" lon="3.11732">
        <ele>678.859314</ele>
        <time>2012-01-12T09:55:15Z</time>
      </trkpt>
      <trkpt lat="45.71606" lon="3.11721">
        <ele>680.284912</ele>
        <time>2012-01-12T09:55:20Z</time>
      </trkpt>
      <trkpt lat="45.71613" lon="3.11708">
        <ele>681.841431</ele>
        <time>2012-01-12T09:55:26Z</time>
      </trkpt>
      <trkpt lat="45.71619" lon="3.11696">
        <ele>682.857544</ele>
        <time>2012-01-12T09:55:31Z</time>
      </trkpt>
      <trkpt lat="45.71623" lon="3.11684">
        <ele>683.58844</ele>
        <time>2012-01-12T09:55:36Z</time>
      </trkpt>
      <trkpt lat="45.71629" lon="3.1167">
        <ele>684.506287</ele>
        <time>2012-01-12T09:55:42Z</time>
      </trkpt>
      <trkpt lat="45.71637" lon="3.11658">
        <ele>685.841614</ele>
        <time>2012-01-12T09:55:48Z</time>
      </trkpt>
      <trkpt lat="45.71645" lon="3.1165">
        <ele>687.294312</ele>
        <time>2012-01-12T09:55:54Z</time>
      </trkpt>
      <trkpt lat="45.71655" lon="3.11643">
        <ele>689.533325</ele>
        <time>2012-01-12T09:56:00Z</time>
      </trkpt>
      <trkpt lat="45.71665" lon="3.11635">
        <ele>692.350586</ele>
        <time>2012-01-12T09:56:07Z</time>
      </trkpt>
      <trkpt lat="45.71676" lon="3.11628">
        <ele>695.065247</ele>
        <time>2012-01-12T09:56:13Z</time>
      </trkpt>
      <trkpt lat="45.71685" lon="3.11622">
        <ele>697.341064</ele>
        <time>2012-01-12T09:56:19Z</time>
      </trkpt>
      <trkpt lat="45.71695" lon="3.11616">
        <ele>699.553894</ele>
        <time>2012-01-12T09:56:25Z</time>
      </trkpt>
      <trkpt lat="45.71705" lon="3.11611">
        <ele>701.463867</ele>
        <time>2012-01-12T09:56:32Z</time>
      </trkpt>
      <trkpt lat="45.71715" lon="3.11612">
        <ele>703.43988</ele>
        <time>2012-01-12T09:56:38Z</time>
      </trkpt>
      <trkpt lat="45.7172" lon="3.11624">
        <ele>704.850037</ele>
        <time>2012-01-12T09:56:44Z</time>
      </trkpt>
      <trkpt lat="45.71721" lon="3.11636">
        <ele>705.497375</ele>
        <time>2012-01-12T09:56:55Z</time>
      </trkpt>
      <trkpt lat="45.71721" lon="3.11649">
        <ele>705.902588</ele>
        <time>2012-01-12T09:57:06Z</time>
      </trkpt>
      <trkpt lat="45.71722" lon="3.11661">
        <ele>705.8349</ele>
        <time>2012-01-12T09:57:18Z</time>
      </trkpt>
      <trkpt lat="45.71731" lon="3.1166">
        <ele>707.931091</ele>
        <time>2012-01-12T09:57:30Z</time>
      </trkpt>
      <trkpt lat="45.71735" lon="3.11648">
        <ele>708.982117</ele>
        <time>2012-01-12T09:57:35Z</time>
      </trkpt>
      <trkpt lat="45.71741" lon="3.11638">
        <ele>709.607483</ele>
        <time>2012-01-12T09:57:40Z</time>
      </trkpt>
      <trkpt lat="45.71748" lon="3.11628">
        <ele>709.473755</ele>
        <time>2012-01-12T09:57:46Z</time>
      </trkpt>
      <trkpt lat="45.71747" lon="3.11616">
        <ele>708.86499</ele>
        <time>2012-01-12T09:58:25Z</time>
      </trkpt>
      <trkpt lat="45.71747" lon="3.11603">
        <ele>708.224976</ele>
        <time>2012-01-12T09:58:42Z</time>
      </trkpt>
      <trkpt lat="45.71745" lon="3.11612">
        <ele>708.578735</ele>
        <time>2012-01-12T09:58:53Z</time>
      </trkpt>
      <trkpt lat="45.71752" lon="3.11614">
        <ele>708.97876</ele>
        <time>2012-01-12T09:59:02Z</time>
      </trkpt>
      <trkpt lat="45.71761" lon="3.11607">
        <ele>709.018738</ele>
        <time>2012-01-12T09:59:11Z</time>
      </trkpt>
      <trkpt lat="45.7177" lon="3.11605">
        <ele>709.335022</ele>
        <time>2012-01-12T09:59:21Z</time>
      </trkpt>
      <trkpt lat="45.71776" lon="3.11595">
        <ele>709.13623</ele>
        <time>2012-01-12T09:59:30Z</time>
      </trkpt>
      <trkpt lat="45.71778" lon="3.1158">
        <ele>708.724976</ele>
        <time>2012-01-12T09:59:36Z</time>
      </trkpt>
      <trkpt lat="45.71776" lon="3.11564">
        <ele>708.911255</ele>
        <time>2012-01-12T09:59:41Z</time>
      </trkpt>
      <trkpt lat="45.71773" lon="3.11549">
        <ele>709.006226</ele>
        <time>2012-01-12T09:59:46Z</time>
      </trkpt>
      <trkpt lat="45.7177" lon="3.11535">
        <ele>709.0625</ele>
        <time>2012-01-12T09:59:51Z</time>
      </trkpt>
      <trkpt lat="45.71766" lon="3.11522">
        <ele>709.065002</ele>
        <time>2012-01-12T09:59:56Z</time>
      </trkpt>
      <trkpt lat="45.71762" lon="3.1151">
        <ele>709.681702</ele>
        <time>2012-01-12T10:00:00Z</time>
      </trkpt>
      <trkpt lat="45.71755" lon="3.11495">
        <ele>710.742126</ele>
        <time>2012-01-12T10:00:05Z</time>
      </trkpt>
      <trkpt lat="45.71749" lon="3.11483">
        <ele>711.893738</ele>
        <time>2012-01-12T10:00:09Z</time>
      </trkpt>
      <trkpt lat="45.71742" lon="3.11472">
        <ele>713.071533</ele>
        <time>2012-01-12T10:00:14Z</time>
      </trkpt>
      <trkpt lat="45.71737" lon="3.11461">
        <ele>713.95105</ele>
        <time>2012-01-12T10:00:19Z</time>
      </trkpt>
      <trkpt lat="45.71731" lon="3.11451">
        <ele>714.622925</ele>
        <time>2012-01-12T10:00:28Z</time>
      </trkpt>
      <trkpt lat="45.71727" lon="3.11439">
        <ele>715.493225</ele>
        <time>2012-01-12T10:00:38Z</time>
      </trkpt>
      <trkpt lat="45.71723" lon="3.11426">
        <ele>716.47583</ele>
        <time>2012-01-12T10:00:49Z</time>
      </trkpt>
      <trkpt lat="45.71719" lon="3.11413">
        <ele>717.614014</ele>
        <time>2012-01-12T10:01:00Z</time>
      </trkpt>
      <trkpt lat="45.71714" lon="3.11401">
        <ele>718.83551</ele>
        <time>2012-01-12T10:01:10Z</time>
      </trkpt>
      <trkpt lat="45.71709" lon="3.11389">
        <ele>720.06134</ele>
        <time>2012-01-12T10:01:16Z</time>
      </trkpt>
      <trkpt lat="45.71702" lon="3.11377">
        <ele>720.934143</ele>
        <time>2012-01-12T10:01:21Z</time>
      </trkpt>
      <trkpt lat="45.71699" lon="3.11364">
        <ele>721.986511</ele>
        <time>2012-01-12T10:01:25Z</time>
      </trkpt>
      <trkpt lat="45.71695" lon="3.11352">
        <ele>722.641724</ele>
        <time>2012-01-12T10:01:29Z</time>
      </trkpt>
      <trkpt lat="45.71688" lon="3.11338">
        <ele>722.91333</ele>
        <time>2012-01-12T10:01:33Z</time>
      </trkpt>
      <trkpt lat="45.71682" lon="3.11325">
        <ele>723.329407</ele>
        <time>2012-01-12T10:01:36Z</time>
      </trkpt>
      <trkpt lat="45.71676" lon="3.11308">
        <ele>723.64386</ele>
        <time>2012-01-12T10:01:39Z</time>
      </trkpt>
      <trkpt lat="45.7167" lon="3.11292">
        <ele>724.214417</ele>
        <time>2012-01-12T10:01:42Z</time>
      </trkpt>
      <trkpt lat="45.71663" lon="3.11275">
        <ele>725.096497</ele>
        <time>2012-01-12T10:01:45Z</time>
      </trkpt>
      <trkpt lat="45.71659" lon="3.11263">
        <ele>725.945679</ele>
        <time>2012-01-12T10:01:47Z</time>
      </trkpt>
      <trkpt lat="45.71652" lon="3.11247">
        <ele>726.107483</ele>
        <time>2012-01-12T10:01:50Z</time>
      </trkpt>
      <trkpt lat="45.71648" lon="3.11235">
        <ele>725.622498</ele>
        <time>2012-01-12T10:01:53Z</time>
      </trkpt>
      <trkpt lat="45.71648" lon="3.11218">
        <ele>725.753723</ele>
        <time>2012-01-12T10:01:57Z</time>
      </trkpt>
      <trkpt lat="45.7165" lon="3.11203">
        <ele>726.48999</ele>
        <time>2012-01-12T10:02:00Z</time>
      </trkpt>
      <trkpt lat="45.71654" lon="3.11191">
        <ele>727.031189</ele>
        <time>2012-01-12T10:02:02Z</time>
      </trkpt>
      <trkpt lat="45.71658" lon="3.11174">
        <ele>727.240723</ele>
        <time>2012-01-12T10:02:05Z</time>
      </trkpt>
      <trkpt lat="45.7166" lon="3.11162">
        <ele>727.405396</ele>
        <time>2012-01-12T10:02:07Z</time>
      </trkpt>
      <trkpt lat="45.71665" lon="3.11145">
        <ele>727.758362</ele>
        <time>2012-01-12T10:02:10Z</time>
      </trkpt>
      <trkpt lat="45.71669" lon="3.11133">
        <ele>728.047791</ele>
        <time>2012-01-12T10:02:12Z</time>
      </trkpt>
      <trkpt lat="45.71674" lon="3.11117">
        <ele>728.386719</ele>
        <time>2012-01-12T10:02:15Z</time>
      </trkpt>
      <trkpt lat="45.71678" lon="3.11106">
        <ele>728.72052</ele>
        <time>2012-01-12T10:02:56Z</time>
      </trkpt>
      <trkpt lat="45.7168" lon="3.11093">
        <ele>728.860413</ele>
        <time>2012-01-12T10:03:03Z</time>
      </trkpt>
      <trkpt lat="45.71678" lon="3.1108">
        <ele>728.743347</ele>
        <time>2012-01-12T10:03:07Z</time>
      </trkpt>
      <trkpt lat="45.71677" lon="3.11065">
        <ele>728.650879</ele>
        <time>2012-01-12T10:03:11Z</time>
      </trkpt>
      <trkpt lat="45.71675" lon="3.11051">
        <ele>728.473145</ele>
        <time>2012-01-12T10:03:15Z</time>
      </trkpt>
      <trkpt lat="45.71673" lon="3.11037">
        <ele>728.243225</ele>
        <time>2012-01-12T10:03:19Z</time>
      </trkpt>
      <trkpt lat="45.71672" lon="3.11023">
        <ele>728.141724</ele>
        <time>2012-01-12T10:03:23Z</time>
      </trkpt>
      <trkpt lat="45.71672" lon="3.11009">
        <ele>728.223328</ele>
        <time>2012-01-12T10:03:27Z</time>
      </trkpt>
      <trkpt lat="45.71673" lon="3.10995">
        <ele>728.231873</ele>
        <time>2012-01-12T10:03:31Z</time>
      </trkpt>
      <trkpt lat="45.71674" lon="3.10982">
        <ele>728.48468</ele>
        <time>2012-01-12T10:03:35Z</time>
      </trkpt>
      <trkpt lat="45.71675" lon="3.10968">
        <ele>728.591003</ele>
        <time>2012-01-12T10:03:39Z</time>
      </trkpt>
      <trkpt lat="45.71676" lon="3.10954">
        <ele>728.721863</ele>
        <time>2012-01-12T10:03:43Z</time>
      </trkpt>
      <trkpt lat="45.71677" lon="3.10939">
        <ele>728.939697</ele>
        <time>2012-01-12T10:03:47Z</time>
      </trkpt>
      <trkpt lat="45.71679" lon="3.10925">
        <ele>729.387146</ele>
        <time>2012-01-12T10:03:51Z</time>
      </trkpt>
      <trkpt lat="45.7168" lon="3.10911">
        <ele>729.930847</ele>
        <time>2012-01-12T10:03:55Z</time>
      </trkpt>
      <trkpt lat="45.71682" lon="3.10897">
        <ele>730.540894</ele>
        <time>2012-01-12T10:03:59Z</time>
      </trkpt>
      <trkpt lat="45.71684" lon="3.10883">
        <ele>731.257629</ele>
        <time>2012-01-12T10:04:03Z</time>
      </trkpt>
      <trkpt lat="45.71686" lon="3.10869">
        <ele>731.198425</ele>
        <time>2012-01-12T10:04:07Z</time>
      </trkpt>
      <trkpt lat="45.71688" lon="3.10855">
        <ele>730.454224</ele>
        <time>2012-01-12T10:04:11Z</time>
      </trkpt>
      <trkpt lat="45.71689" lon="3.10842">
        <ele>729.688965</ele>
        <time>2012-01-12T10:04:15Z</time>
      </trkpt>
      <trkpt lat="45.71691" lon="3.10827">
        <ele>728.68927</ele>
        <time>2012-01-12T10:04:20Z</time>
      </trkpt>
      <trkpt lat="45.71692" lon="3.10814">
        <ele>727.982605</ele>
        <time>2012-01-12T10:04:24Z</time>
      </trkpt>
      <trkpt lat="45.71694" lon="3.10801">
        <ele>726.643127</ele>
        <time>2012-01-12T10:04:28Z</time>
      </trkpt>
      <trkpt lat="45.71697" lon="3.10786">
        <ele>724.716675</ele>
        <time>2012-01-12T10:04:33Z</time>
      </trkpt>
      <trkpt lat="45.717" lon="3.10771">
        <ele>722.987</ele>
        <time>2012-01-12T10:04:38Z</time>
      </trkpt>
      <trkpt lat="45.71703" lon="3.10755">
        <ele>720.730774</ele>
        <time>2012-01-12T10:04:43Z</time>
      </trkpt>
      <trkpt lat="45.71706" lon="3.10743">
        <ele>718.807556</ele>
        <time>2012-01-12T10:04:47Z</time>
      </trkpt>
      <trkpt lat="45.71711" lon="3.10729">
        <ele>716.682312</ele>
        <time>2012-01-12T10:04:53Z</time>
      </trkpt>
      <trkpt lat="45.71715" lon="3.10718">
        <ele>714.590698</ele>
        <time>2012-01-12T10:05:01Z</time>
      </trkpt>
      <trkpt lat="45.71719" lon="3.10706">
        <ele>712.181213</ele>
        <time>2012-01-12T10:05:09Z</time>
      </trkpt>
      <trkpt lat="45.7172" lon="3.10693">
        <ele>709.462402</ele>
        <time>2012-01-12T10:05:16Z</time>
      </trkpt>
      <trkpt lat="45.71719" lon="3.1068">
        <ele>706.626343</ele>
        <time>2012-01-12T10:05:23Z</time>
      </trkpt>
      <trkpt lat="45.71717" lon="3.10665">
        <ele>703.619995</ele>
        <time>2012-01-12T10:05:29Z</time>
      </trkpt>
      <trkpt lat="45.71714" lon="3.10651">
        <ele>700.942688</ele>
        <time>2012-01-12T10:05:33Z</time>
      </trkpt>
      <trkpt lat="45.7171" lon="3.10638">
        <ele>698.785095</ele>
        <time>2012-01-12T10:05:37Z</time>
      </trkpt>
      <trkpt lat="45.71703" lon="3.10629">
        <ele>697.753479</ele>
        <time>2012-01-12T10:05:41Z</time>
      </trkpt>
      <trkpt lat="45.71693" lon="3.10628">
        <ele>697.707642</ele>
        <time>2012-01-12T10:05:45Z</time>
      </trkpt>
      <trkpt lat="45.71682" lon="3.10633">
        <ele>698.130127</ele>
        <time>2012-01-12T10:05:49Z</time>
      </trkpt>
      <trkpt lat="45.71672" lon="3.1064">
        <ele>698.570801</ele>
        <time>2012-01-12T10:05:53Z</time>
      </trkpt>
      <trkpt lat="45.71663" lon="3.10647">
        <ele>698.726929</ele>
        <time>2012-01-12T10:05:57Z</time>
      </trkpt>
      <trkpt lat="45.71655" lon="3.10654">
        <ele>698.473572</ele>
        <time>2012-01-12T10:06:01Z</time>
      </trkpt>
      <trkpt lat="45.71646" lon="3.10664">
        <ele>697.717834</ele>
        <time>2012-01-12T10:06:05Z</time>
      </trkpt>
      <trkpt lat="45.71639" lon="3.10676">
        <ele>697.131287</ele>
        <time>2012-01-12T10:06:09Z</time>
      </trkpt>
      <trkpt lat="45.71633" lon="3.10678">
        <ele>696.127441</ele>
        <time>2012-01-12T10:06:17Z</time>
      </trkpt>
      <trkpt lat="45.71634" lon="3.10659">
        <ele>695.299377</ele>
        <time>2012-01-12T10:06:21Z</time>
      </trkpt>
      <trkpt lat="45.71637" lon="3.10646">
        <ele>694.928833</ele>
        <time>2012-01-12T10:06:23Z</time>
      </trkpt>
      <trkpt lat="45.7164" lon="3.10626">
        <ele>694.228088</ele>
        <time>2012-01-12T10:06:26Z</time>
      </trkpt>
      <trkpt lat="45.7164" lon="3.10612">
        <ele>693.505432</ele>
        <time>2012-01-12T10:06:28Z</time>
      </trkpt>
      <trkpt lat="45.71638" lon="3.10597">
        <ele>692.597412</ele>
        <time>2012-01-12T10:06:30Z</time>
      </trkpt>
      <trkpt lat="45.71635" lon="3.10582">
        <ele>691.640015</ele>
        <time>2012-01-12T10:06:32Z</time>
      </trkpt>
      <trkpt lat="45.71631" lon="3.10569">
        <ele>690.788269</ele>
        <time>2012-01-12T10:06:34Z</time>
      </trkpt>
      <trkpt lat="45.71626" lon="3.10556">
        <ele>690.03302</ele>
        <time>2012-01-12T10:06:36Z</time>
      </trkpt>
      <trkpt lat="45.71621" lon="3.10545">
        <ele>690.069519</ele>
        <time>2012-01-12T10:06:38Z</time>
      </trkpt>
      <trkpt lat="45.71615" lon="3.10534">
        <ele>690.363831</ele>
        <time>2012-01-12T10:06:40Z</time>
      </trkpt>
      <trkpt lat="45.71609" lon="3.10522">
        <ele>690.574463</ele>
        <time>2012-01-12T10:06:42Z</time>
      </trkpt>
      <trkpt lat="45.71604" lon="3.1051">
        <ele>691.007996</ele>
        <time>2012-01-12T10:06:44Z</time>
      </trkpt>
      <trkpt lat="45.716" lon="3.10498">
        <ele>691.704224</ele>
        <time>2012-01-12T10:06:46Z</time>
      </trkpt>
      <trkpt lat="45.71597" lon="3.10485">
        <ele>692.650574</ele>
        <time>2012-01-12T10:06:48Z</time>
      </trkpt>
      <trkpt lat="45.71594" lon="3.10466">
        <ele>694.164429</ele>
        <time>2012-01-12T10:06:51Z</time>
      </trkpt>
      <trkpt lat="45.71592" lon="3.10454">
        <ele>695.13446</ele>
        <time>2012-01-12T10:06:53Z</time>
      </trkpt>
      <trkpt lat="45.71589" lon="3.10434">
        <ele>696.546753</ele>
        <time>2012-01-12T10:06:56Z</time>
      </trkpt>
      <trkpt lat="45.71587" lon="3.10421">
        <ele>697.284729</ele>
        <time>2012-01-12T10:06:58Z</time>
      </trkpt>
      <trkpt lat="45.71581" lon="3.10408">
        <ele>697.250732</ele>
        <time>2012-01-12T10:07:01Z</time>
      </trkpt>
      <trkpt lat="45.71572" lon="3.10409">
        <ele>696.679932</ele>
        <time>2012-01-12T10:07:04Z</time>
      </trkpt>
      <trkpt lat="45.71563" lon="3.10414">
        <ele>696.04187</ele>
        <time>2012-01-12T10:07:07Z</time>
      </trkpt>
      <trkpt lat="45.71553" lon="3.1042">
        <ele>695.177673</ele>
        <time>2012-01-12T10:07:11Z</time>
      </trkpt>
      <trkpt lat="45.71542" lon="3.10425">
        <ele>694.233215</ele>
        <time>2012-01-12T10:07:15Z</time>
      </trkpt>
      <trkpt lat="45.71532" lon="3.10429">
        <ele>693.126587</ele>
        <time>2012-01-12T10:07:19Z</time>
      </trkpt>
      <trkpt lat="45.71521" lon="3.10434">
        <ele>692.01001</ele>
        <time>2012-01-12T10:07:23Z</time>
      </trkpt>
      <trkpt lat="45.71512" lon="3.10443">
        <ele>691.222473</ele>
        <time>2012-01-12T10:07:27Z</time>
      </trkpt>
      <trkpt lat="45.71501" lon="3.10449">
        <ele>690.585022</ele>
        <time>2012-01-12T10:07:31Z</time>
      </trkpt>
      <trkpt lat="45.71493" lon="3.10456">
        <ele>689.992493</ele>
        <time>2012-01-12T10:07:35Z</time>
      </trkpt>
      <trkpt lat="45.71485" lon="3.10461">
        <ele>689.4375</ele>
        <time>2012-01-12T10:07:39Z</time>
      </trkpt>
      <trkpt lat="45.71477" lon="3.10467">
        <ele>688.995972</ele>
        <time>2012-01-12T10:07:43Z</time>
      </trkpt>
      <trkpt lat="45.71467" lon="3.10463">
        <ele>689.694336</ele>
        <time>2012-01-12T10:07:52Z</time>
      </trkpt>
      <trkpt lat="45.71459" lon="3.10455">
        <ele>690.624695</ele>
        <time>2012-01-12T10:07:58Z</time>
      </trkpt>
      <trkpt lat="45.71454" lon="3.10443">
        <ele>691.643921</ele>
        <time>2012-01-12T10:08:03Z</time>
      </trkpt>
      <trkpt lat="45.71449" lon="3.10429">
        <ele>692.615234</ele>
        <time>2012-01-12T10:08:08Z</time>
      </trkpt>
      <trkpt lat="45.71445" lon="3.10415">
        <ele>693.184326</ele>
        <time>2012-01-12T10:08:13Z</time>
      </trkpt>
      <trkpt lat="45.7144" lon="3.10401">
        <ele>693.433838</ele>
        <time>2012-01-12T10:08:19Z</time>
      </trkpt>
      <trkpt lat="45.71434" lon="3.10386">
        <ele>693.58075</ele>
        <time>2012-01-12T10:08:24Z</time>
      </trkpt>
      <trkpt lat="45.71428" lon="3.10372">
        <ele>693.400818</ele>
        <time>2012-01-12T10:08:28Z</time>
      </trkpt>
      <trkpt lat="45.71424" lon="3.10359">
        <ele>693.138672</ele>
        <time>2012-01-12T10:08:32Z</time>
      </trkpt>
      <trkpt lat="45.71419" lon="3.10344">
        <ele>693.267395</ele>
        <time>2012-01-12T10:08:37Z</time>
      </trkpt>
      <trkpt lat="45.71413" lon="3.10331">
        <ele>693.264832</ele>
        <time>2012-01-12T10:08:42Z</time>
      </trkpt>
      <trkpt lat="45.71408" lon="3.10317">
        <ele>693.249451</ele>
        <time>2012-01-12T10:08:47Z</time>
      </trkpt>
      <trkpt lat="45.71403" lon="3.10303">
        <ele>693.223694</ele>
        <time>2012-01-12T10:08:52Z</time>
      </trkpt>
      <trkpt lat="45.71396" lon="3.1029">
        <ele>692.977356</ele>
        <time>2012-01-12T10:08:56Z</time>
      </trkpt>
      <trkpt lat="45.71391" lon="3.10277">
        <ele>692.972534</ele>
        <time>2012-01-12T10:09:00Z</time>
      </trkpt>
      <trkpt lat="45.71387" lon="3.10264">
        <ele>693.138367</ele>
        <time>2012-01-12T10:09:04Z</time>
      </trkpt>
      <trkpt lat="45.71383" lon="3.10252">
        <ele>693.252502</ele>
        <time>2012-01-12T10:09:08Z</time>
      </trkpt>
      <trkpt lat="45.71379" lon="3.10238">
        <ele>693.509033</ele>
        <time>2012-01-12T10:09:12Z</time>
      </trkpt>
      <trkpt lat="45.71374" lon="3.10224">
        <ele>693.549988</ele>
        <time>2012-01-12T10:09:16Z</time>
      </trkpt>
      <trkpt lat="45.7137" lon="3.10212">
        <ele>693.592529</ele>
        <time>2012-01-12T10:09:20Z</time>
      </trkpt>
      <trkpt lat="45.71366" lon="3.10198">
        <ele>693.748779</ele>
        <time>2012-01-12T10:09:24Z</time>
      </trkpt>
      <trkpt lat="45.71362" lon="3.10185">
        <ele>693.96875</ele>
        <time>2012-01-12T10:09:28Z</time>
      </trkpt>
      <trkpt lat="45.71359" lon="3.10173">
        <ele>694.171265</ele>
        <time>2012-01-12T10:09:32Z</time>
      </trkpt>
      <trkpt lat="45.71355" lon="3.1016">
        <ele>694.255859</ele>
        <time>2012-01-12T10:09:36Z</time>
      </trkpt>
      <trkpt lat="45.71352" lon="3.10145">
        <ele>694.239868</ele>
        <time>2012-01-12T10:09:41Z</time>
      </trkpt>
      <trkpt lat="45.71349" lon="3.10131">
        <ele>694.339966</ele>
        <time>2012-01-12T10:09:45Z</time>
      </trkpt>
      <trkpt lat="45.71346" lon="3.10115">
        <ele>694.598083</ele>
        <time>2012-01-12T10:09:50Z</time>
      </trkpt>
      <trkpt lat="45.71343" lon="3.10102">
        <ele>694.880066</ele>
        <time>2012-01-12T10:09:55Z</time>
      </trkpt>
      <trkpt lat="45.71332" lon="3.10095">
        <ele>695.025574</ele>
        <time>2012-01-12T10:10:00Z</time>
      </trkpt>
      <trkpt lat="45.71321" lon="3.10095">
        <ele>694.815247</ele>
        <time>2012-01-12T10:10:03Z</time>
      </trkpt>
      <trkpt lat="45.71308" lon="3.10096">
        <ele>694.464844</ele>
        <time>2012-01-12T10:10:06Z</time>
      </trkpt>
      <trkpt lat="45.71294" lon="3.101">
        <ele>693.993408</ele>
        <time>2012-01-12T10:10:09Z</time>
      </trkpt>
      <trkpt lat="45.71285" lon="3.10102">
        <ele>693.822205</ele>
        <time>2012-01-12T10:10:11Z</time>
      </trkpt>
      <trkpt lat="45.71276" lon="3.10106">
        <ele>693.375793</ele>
        <time>2012-01-12T10:10:13Z</time>
      </trkpt>
      <trkpt lat="45.71267" lon="3.10114">
        <ele>692.549011</ele>
        <time>2012-01-12T10:10:15Z</time>
      </trkpt>
      <trkpt lat="45.71258" lon="3.10122">
        <ele>691.500549</ele>
        <time>2012-01-12T10:10:17Z</time>
      </trkpt>
      <trkpt lat="45.71249" lon="3.10133">
        <ele>690.563721</ele>
        <time>2012-01-12T10:10:19Z</time>
      </trkpt>
      <trkpt lat="45.7124" lon="3.10143">
        <ele>689.873779</ele>
        <time>2012-01-12T10:10:21Z</time>
      </trkpt>
      <trkpt lat="45.71231" lon="3.10152">
        <ele>689.196228</ele>
        <time>2012-01-12T10:10:23Z</time>
      </trkpt>
      <trkpt lat="45.71223" lon="3.10162">
        <ele>688.486267</ele>
        <time>2012-01-12T10:10:25Z</time>
      </trkpt>
      <trkpt lat="45.71216" lon="3.10173">
        <ele>687.499573</ele>
        <time>2012-01-12T10:10:27Z</time>
      </trkpt>
      <trkpt lat="45.7121" lon="3.10184">
        <ele>686.394897</ele>
        <time>2012-01-12T10:10:29Z</time>
      </trkpt>
      <trkpt lat="45.71204" lon="3.10194">
        <ele>685.699768</ele>
        <time>2012-01-12T10:10:31Z</time>
      </trkpt>
      <trkpt lat="45.71199" lon="3.10206">
        <ele>684.933533</ele>
        <time>2012-01-12T10:10:33Z</time>
      </trkpt>
      <trkpt lat="45.71191" lon="3.10222">
        <ele>683.95929</ele>
        <time>2012-01-12T10:10:36Z</time>
      </trkpt>
      <trkpt lat="45.71185" lon="3.10234">
        <ele>683.425354</ele>
        <time>2012-01-12T10:10:38Z</time>
      </trkpt>
      <trkpt lat="45.71178" lon="3.10245">
        <ele>683.059204</ele>
        <time>2012-01-12T10:10:40Z</time>
      </trkpt>
      <trkpt lat="45.71172" lon="3.10256">
        <ele>682.775024</ele>
        <time>2012-01-12T10:10:42Z</time>
      </trkpt>
      <trkpt lat="45.71165" lon="3.10266">
        <ele>682.570496</ele>
        <time>2012-01-12T10:10:45Z</time>
      </trkpt>
      <trkpt lat="45.71157" lon="3.10273">
        <ele>682.858765</ele>
        <time>2012-01-12T10:10:49Z</time>
      </trkpt>
      <trkpt lat="45.71148" lon="3.10282">
        <ele>683.027527</ele>
        <time>2012-01-12T10:10:53Z</time>
      </trkpt>
      <trkpt lat="45.71139" lon="3.10289">
        <ele>683.42627</ele>
        <time>2012-01-12T10:10:56Z</time>
      </trkpt>
      <trkpt lat="45.71131" lon="3.10296">
        <ele>683.605103</ele>
        <time>2012-01-12T10:10:58Z</time>
      </trkpt>
      <trkpt lat="45.71121" lon="3.10303">
        <ele>683.666382</ele>
        <time>2012-01-12T10:11:00Z</time>
      </trkpt>
      <trkpt lat="45.7111" lon="3.10311">
        <ele>683.247253</ele>
        <time>2012-01-12T10:11:02Z</time>
      </trkpt>
      <trkpt lat="45.711" lon="3.1032">
        <ele>682.276428</ele>
        <time>2012-01-12T10:11:04Z</time>
      </trkpt>
      <trkpt lat="45.71091" lon="3.10328">
        <ele>681.325012</ele>
        <time>2012-01-12T10:11:06Z</time>
      </trkpt>
      <trkpt lat="45.71082" lon="3.10336">
        <ele>680.275818</ele>
        <time>2012-01-12T10:11:08Z</time>
      </trkpt>
      <trkpt lat="45.71073" lon="3.10343">
        <ele>679.347595</ele>
        <time>2012-01-12T10:11:10Z</time>
      </trkpt>
      <trkpt lat="45.71064" lon="3.10351">
        <ele>679.203369</ele>
        <time>2012-01-12T10:11:12Z</time>
      </trkpt>
      <trkpt lat="45.71056" lon="3.1036">
        <ele>679.033752</ele>
        <time>2012-01-12T10:11:14Z</time>
      </trkpt>
      <trkpt lat="45.71049" lon="3.10369">
        <ele>678.683716</ele>
        <time>2012-01-12T10:11:16Z</time>
      </trkpt>
      <trkpt lat="45.71043" lon="3.1038">
        <ele>677.835022</ele>
        <time>2012-01-12T10:11:18Z</time>
      </trkpt>
      <trkpt lat="45.71036" lon="3.1039">
        <ele>677.367493</ele>
        <time>2012-01-12T10:11:20Z</time>
      </trkpt>
      <trkpt lat="45.71028" lon="3.104">
        <ele>677.117249</ele>
        <time>2012-01-12T10:11:22Z</time>
      </trkpt>
      <trkpt lat="45.7102" lon="3.10408">
        <ele>677.603516</ele>
        <time>2012-01-12T10:11:24Z</time>
      </trkpt>
      <trkpt lat="45.71012" lon="3.10416">
        <ele>678.270203</ele>
        <time>2012-01-12T10:11:26Z</time>
      </trkpt>
      <trkpt lat="45.71003" lon="3.10424">
        <ele>679.508728</ele>
        <time>2012-01-12T10:11:28Z</time>
      </trkpt>
      <trkpt lat="45.70996" lon="3.10433">
        <ele>680.67627</ele>
        <time>2012-01-12T10:11:30Z</time>
      </trkpt>
      <trkpt lat="45.70989" lon="3.1044">
        <ele>681.734985</ele>
        <time>2012-01-12T10:11:32Z</time>
      </trkpt>
      <trkpt lat="45.70981" lon="3.10448">
        <ele>682.892212</ele>
        <time>2012-01-12T10:11:34Z</time>
      </trkpt>
      <trkpt lat="45.70974" lon="3.10456">
        <ele>683.981506</ele>
        <time>2012-01-12T10:11:36Z</time>
      </trkpt>
      <trkpt lat="45.70966" lon="3.10463">
        <ele>685.249146</ele>
        <time>2012-01-12T10:11:38Z</time>
      </trkpt>
      <trkpt lat="45.70954" lon="3.10475">
        <ele>687.259521</ele>
        <time>2012-01-12T10:11:41Z</time>
      </trkpt>
      <trkpt lat="45.70947" lon="3.10483">
        <ele>688.73407</ele>
        <time>2012-01-12T10:11:43Z</time>
      </trkpt>
      <trkpt lat="45.70939" lon="3.10491">
        <ele>690.393372</ele>
        <time>2012-01-12T10:11:45Z</time>
      </trkpt>
      <trkpt lat="45.70931" lon="3.10498">
        <ele>690.318665</ele>
        <time>2012-01-12T10:11:47Z</time>
      </trkpt>
      <trkpt lat="45.70923" lon="3.10507">
        <ele>689.968384</ele>
        <time>2012-01-12T10:11:49Z</time>
      </trkpt>
      <trkpt lat="45.70914" lon="3.10516">
        <ele>689.651184</ele>
        <time>2012-01-12T10:11:51Z</time>
      </trkpt>
      <trkpt lat="45.70906" lon="3.10525">
        <ele>689.372314</ele>
        <time>2012-01-12T10:11:53Z</time>
      </trkpt>
      <trkpt lat="45.70898" lon="3.10534">
        <ele>689.158569</ele>
        <time>2012-01-12T10:11:55Z</time>
      </trkpt>
      <trkpt lat="45.7089" lon="3.10542">
        <ele>688.554749</ele>
        <time>2012-01-12T10:11:57Z</time>
      </trkpt>
      <trkpt lat="45.70881" lon="3.10549">
        <ele>686.102661</ele>
        <time>2012-01-12T10:12:01Z</time>
      </trkpt>
      <trkpt lat="45.70871" lon="3.10557">
        <ele>683.695984</ele>
        <time>2012-01-12T10:12:06Z</time>
      </trkpt>
      <trkpt lat="45.70864" lon="3.10564">
        <ele>681.841064</ele>
        <time>2012-01-12T10:12:10Z</time>
      </trkpt>
      <trkpt lat="45.70857" lon="3.10573">
        <ele>680.170959</ele>
        <time>2012-01-12T10:12:14Z</time>
      </trkpt>
      <trkpt lat="45.70851" lon="3.10581">
        <ele>678.715637</ele>
        <time>2012-01-12T10:12:18Z</time>
      </trkpt>
      <trkpt lat="45.70843" lon="3.10592">
        <ele>676.856323</ele>
        <time>2012-01-12T10:12:23Z</time>
      </trkpt>
      <trkpt lat="45.70836" lon="3.10601">
        <ele>675.110962</ele>
        <time>2012-01-12T10:12:27Z</time>
      </trkpt>
      <trkpt lat="45.70828" lon="3.1061">
        <ele>673.353088</ele>
        <time>2012-01-12T10:12:31Z</time>
      </trkpt>
      <trkpt lat="45.7082" lon="3.10616">
        <ele>671.16748</ele>
        <time>2012-01-12T10:12:35Z</time>
      </trkpt>
      <trkpt lat="45.70811" lon="3.10622">
        <ele>669.08667</ele>
        <time>2012-01-12T10:12:40Z</time>
      </trkpt>
      <trkpt lat="45.70802" lon="3.10625">
        <ele>667.462708</ele>
        <time>2012-01-12T10:12:45Z</time>
      </trkpt>
      <trkpt lat="45.70795" lon="3.10636">
        <ele>665.849365</ele>
        <time>2012-01-12T10:12:50Z</time>
      </trkpt>
      <trkpt lat="45.70789" lon="3.10649">
        <ele>664.483948</ele>
        <time>2012-01-12T10:12:55Z</time>
      </trkpt>
      <trkpt lat="45.70782" lon="3.10659">
        <ele>663.526489</ele>
        <time>2012-01-12T10:12:59Z</time>
      </trkpt>
      <trkpt lat="45.70773" lon="3.10668">
        <ele>662.735657</ele>
        <time>2012-01-12T10:13:03Z</time>
      </trkpt>
      <trkpt lat="45.70763" lon="3.10676">
        <ele>661.586853</ele>
        <time>2012-01-12T10:13:07Z</time>
      </trkpt>
      <trkpt lat="45.70754" lon="3.10682">
        <ele>660.161743</ele>
        <time>2012-01-12T10:13:11Z</time>
      </trkpt>
      <trkpt lat="45.70745" lon="3.10689">
        <ele>658.435669</ele>
        <time>2012-01-12T10:13:15Z</time>
      </trkpt>
      <trkpt lat="45.70735" lon="3.10693">
        <ele>657.054932</ele>
        <time>2012-01-12T10:13:23Z</time>
      </trkpt>
      <trkpt lat="45.70725" lon="3.10691">
        <ele>656.283325</ele>
        <time>2012-01-12T10:13:29Z</time>
      </trkpt>
      <trkpt lat="45.70715" lon="3.10689">
        <ele>655.44989</ele>
        <time>2012-01-12T10:13:39Z</time>
      </trkpt>
      <trkpt lat="45.70706" lon="3.10689">
        <ele>654.10791</ele>
        <time>2012-01-12T10:13:43Z</time>
      </trkpt>
      <trkpt lat="45.70695" lon="3.10691">
        <ele>652.099854</ele>
        <time>2012-01-12T10:13:48Z</time>
      </trkpt>
      <trkpt lat="45.70686" lon="3.10697">
        <ele>650.270081</ele>
        <time>2012-01-12T10:13:54Z</time>
      </trkpt>
      <trkpt lat="45.70681" lon="3.10708">
        <ele>649.099609</ele>
        <time>2012-01-12T10:14:03Z</time>
      </trkpt>
      <trkpt lat="45.70676" lon="3.10721">
        <ele>648.052185</ele>
        <time>2012-01-12T10:14:09Z</time>
      </trkpt>
      <trkpt lat="45.7067" lon="3.10733">
        <ele>647.360657</ele>
        <time>2012-01-12T10:14:13Z</time>
      </trkpt>
      <trkpt lat="45.70665" lon="3.10747">
        <ele>644.91748</ele>
        <time>2012-01-12T10:14:18Z</time>
      </trkpt>
      <trkpt lat="45.70659" lon="3.1076">
        <ele>642.728027</ele>
        <time>2012-01-12T10:14:23Z</time>
      </trkpt>
      <trkpt lat="45.70652" lon="3.10767">
        <ele>641.762085</ele>
        <time>2012-01-12T10:14:29Z</time>
      </trkpt>
      <trkpt lat="45.70647" lon="3.10777">
        <ele>641.223816</ele>
        <time>2012-01-12T10:14:36Z</time>
      </trkpt>
      <trkpt lat="45.70641" lon="3.10788">
        <ele>641.316223</ele>
        <time>2012-01-12T10:14:44Z</time>
      </trkpt>
      <trkpt lat="45.70633" lon="3.10795">
        <ele>642.337524</ele>
        <time>2012-01-12T10:14:53Z</time>
      </trkpt>
      <trkpt lat="45.70626" lon="3.10803">
        <ele>642.911377</ele>
        <time>2012-01-12T10:15:03Z</time>
      </trkpt>
      <trkpt lat="45.70619" lon="3.10811">
        <ele>642.750732</ele>
        <time>2012-01-12T10:15:15Z</time>
      </trkpt>
      <trkpt lat="45.70609" lon="3.10818">
        <ele>641.091248</ele>
        <time>2012-01-12T10:15:26Z</time>
      </trkpt>
      <trkpt lat="45.70598" lon="3.10821">
        <ele>639.834351</ele>
        <time>2012-01-12T10:15:39Z</time>
      </trkpt>
      <trkpt lat="45.70586" lon="3.1082">
        <ele>638.34967</ele>
        <time>2012-01-12T10:15:57Z</time>
      </trkpt>
      <trkpt lat="45.70575" lon="3.10825">
        <ele>637.763855</ele>
        <time>2012-01-12T10:16:10Z</time>
      </trkpt>
      <trkpt lat="45.70568" lon="3.10835">
        <ele>636.501221</ele>
        <time>2012-01-12T10:16:21Z</time>
      </trkpt>
      <trkpt lat="45.70561" lon="3.10845">
        <ele>635.848755</ele>
        <time>2012-01-12T10:16:31Z</time>
      </trkpt>
      <trkpt lat="45.70554" lon="3.10855">
        <ele>635.430481</ele>
        <time>2012-01-12T10:16:41Z</time>
      </trkpt>
      <trkpt lat="45.70546" lon="3.10864">
        <ele>634.217651</ele>
        <time>2012-01-12T10:16:51Z</time>
      </trkpt>
      <trkpt lat="45.70541" lon="3.10876">
        <ele>634.336487</ele>
        <time>2012-01-12T10:17:01Z</time>
      </trkpt>
      <trkpt lat="45.70536" lon="3.10889">
        <ele>635.2052</ele>
        <time>2012-01-12T10:17:11Z</time>
      </trkpt>
      <trkpt lat="45.70528" lon="3.10898">
        <ele>634.453979</ele>
        <time>2012-01-12T10:17:20Z</time>
      </trkpt>
      <trkpt lat="45.70521" lon="3.10908">
        <ele>632.704773</ele>
        <time>2012-01-12T10:17:29Z</time>
      </trkpt>
      <trkpt lat="45.70514" lon="3.10917">
        <ele>631.013062</ele>
        <time>2012-01-12T10:17:38Z</time>
      </trkpt>
      <trkpt lat="45.70506" lon="3.10926">
        <ele>628.751587</ele>
        <time>2012-01-12T10:17:46Z</time>
      </trkpt>
      <trkpt lat="45.70497" lon="3.10934">
        <ele>626.29364</ele>
        <time>2012-01-12T10:17:53Z</time>
      </trkpt>
      <trkpt lat="45.70488" lon="3.10943">
        <ele>624.95929</ele>
        <time>2012-01-12T10:17:58Z</time>
      </trkpt>
      <trkpt lat="45.7048" lon="3.10953">
        <ele>624.489136</ele>
        <time>2012-01-12T10:18:03Z</time>
      </trkpt>
      <trkpt lat="45.70472" lon="3.10963">
        <ele>624.307983</ele>
        <time>2012-01-12T10:18:10Z</time>
      </trkpt>
      <trkpt lat="45.70463" lon="3.10971">
        <ele>622.76886</ele>
        <time>2012-01-12T10:18:19Z</time>
      </trkpt>
      <trkpt lat="45.70453" lon="3.10977">
        <ele>621.123718</ele>
        <time>2012-01-12T10:18:27Z</time>
      </trkpt>
      <trkpt lat="45.70444" lon="3.10985">
        <ele>620.08728</ele>
        <time>2012-01-12T10:18:34Z</time>
      </trkpt>
      <trkpt lat="45.70436" lon="3.10994">
        <ele>619.811096</ele>
        <time>2012-01-12T10:18:42Z</time>
      </trkpt>
      <trkpt lat="45.70428" lon="3.11001">
        <ele>618.996643</ele>
        <time>2012-01-12T10:18:50Z</time>
      </trkpt>
      <trkpt lat="45.70412" lon="3.11007">
        <ele>615.289246</ele>
        <time>2012-01-12T10:19:09Z</time>
      </trkpt>
      <trkpt lat="45.7039" lon="3.11007">
        <ele>608.645935</ele>
        <time>2012-01-12T10:19:26Z</time>
      </trkpt>
      <trkpt lat="45.70378" lon="3.11004">
        <ele>604.810974</ele>
        <time>2012-01-12T10:19:36Z</time>
      </trkpt>
      <trkpt lat="45.70366" lon="3.11002">
        <ele>601.28363</ele>
        <time>2012-01-12T10:19:45Z</time>
      </trkpt>
      <trkpt lat="45.70354" lon="3.11001">
        <ele>598.209045</ele>
        <time>2012-01-12T10:19:55Z</time>
      </trkpt>
      <trkpt lat="45.7034" lon="3.11001">
        <ele>594.728943</ele>
        <time>2012-01-12T10:20:07Z</time>
      </trkpt>
      <trkpt lat="45.70329" lon="3.11007">
        <ele>593.25824</ele>
        <time>2012-01-12T10:20:16Z</time>
      </trkpt>
      <trkpt lat="45.70318" lon="3.11012">
        <ele>591.262146</ele>
        <time>2012-01-12T10:20:25Z</time>
      </trkpt>
      <trkpt lat="45.70307" lon="3.11015">
        <ele>588.734741</ele>
        <time>2012-01-12T10:20:35Z</time>
      </trkpt>
      <trkpt lat="45.70296" lon="3.11018">
        <ele>585.642883</ele>
        <time>2012-01-12T10:20:43Z</time>
      </trkpt>
      <trkpt lat="45.70285" lon="3.11025">
        <ele>583.279663</ele>
        <time>2012-01-12T10:20:51Z</time>
      </trkpt>
      <trkpt lat="45.70276" lon="3.11033">
        <ele>581.5672</ele>
        <time>2012-01-12T10:20:59Z</time>
      </trkpt>
      <trkpt lat="45.70267" lon="3.11042">
        <ele>579.717896</ele>
        <time>2012-01-12T10:21:07Z</time>
      </trkpt>
      <trkpt lat="45.70259" lon="3.1105">
        <ele>577.799377</ele>
        <time>2012-01-12T10:21:19Z</time>
      </trkpt>
      <trkpt lat="45.70254" lon="3.11039">
        <ele>573.908203</ele>
        <time>2012-01-12T10:21:29Z</time>
      </trkpt>
      <trkpt lat="45.70251" lon="3.11025">
        <ele>570.106506</ele>
        <time>2012-01-12T10:21:37Z</time>
      </trkpt>
      <trkpt lat="45.70249" lon="3.1101">
        <ele>567.11615</ele>
        <time>2012-01-12T10:21:46Z</time>
      </trkpt>
      <trkpt lat="45.70247" lon="3.10995">
        <ele>564.541138</ele>
        <time>2012-01-12T10:21:54Z</time>
      </trkpt>
      <trkpt lat="45.70243" lon="3.10983">
        <ele>561.731934</ele>
        <time>2012-01-12T10:22:03Z</time>
      </trkpt>
      <trkpt lat="45.70233" lon="3.10978">
        <ele>559.174377</ele>
        <time>2012-01-12T10:22:11Z</time>
      </trkpt>
      <trkpt lat="45.70224" lon="3.10979">
        <ele>557.163269</ele>
        <time>2012-01-12T10:22:18Z</time>
      </trkpt>
      <trkpt lat="45.70214" lon="3.10979">
        <ele>554.785461</ele>
        <time>2012-01-12T10:22:26Z</time>
      </trkpt>
      <trkpt lat="45.70205" lon="3.10983">
        <ele>552.976318</ele>
        <time>2012-01-12T10:22:35Z</time>
      </trkpt>
      <trkpt lat="45.70204" lon="3.10999">
        <ele>552.520996</ele>
        <time>2012-01-12T10:22:40Z</time>
      </trkpt>
      <trkpt lat="45.70207" lon="3.11013">
        <ele>553.046204</ele>
        <time>2012-01-12T10:22:44Z</time>
      </trkpt>
      <trkpt lat="45.70212" lon="3.11026">
        <ele>554.149292</ele>
        <time>2012-01-12T10:22:48Z</time>
      </trkpt>
      <trkpt lat="45.70215" lon="3.11039">
        <ele>555.535278</ele>
        <time>2012-01-12T10:22:52Z</time>
      </trkpt>
      <trkpt lat="45.70217" lon="3.11053">
        <ele>557.480652</ele>
        <time>2012-01-12T10:22:56Z</time>
      </trkpt>
      <trkpt lat="45.70219" lon="3.11066">
        <ele>560.550598</ele>
        <time>2012-01-12T10:23:00Z</time>
      </trkpt>
      <trkpt lat="45.70221" lon="3.11081">
        <ele>563.720764</ele>
        <time>2012-01-12T10:23:05Z</time>
      </trkpt>
      <trkpt lat="45.70219" lon="3.11093">
        <ele>564.896179</ele>
        <time>2012-01-12T10:23:12Z</time>
      </trkpt>
      <trkpt lat="45.70213" lon="3.11103">
        <ele>564.009155</ele>
        <time>2012-01-12T10:23:22Z</time>
      </trkpt>
      <trkpt lat="45.70204" lon="3.11112">
        <ele>561.902039</ele>
        <time>2012-01-12T10:23:27Z</time>
      </trkpt>
      <trkpt lat="45.70198" lon="3.11122">
        <ele>560.712524</ele>
        <time>2012-01-12T10:23:31Z</time>
      </trkpt>
      <trkpt lat="45.70191" lon="3.11133">
        <ele>559.046814</ele>
        <time>2012-01-12T10:23:36Z</time>
      </trkpt>
      <trkpt lat="45.70181" lon="3.11141">
        <ele>556.23407</ele>
        <time>2012-01-12T10:23:41Z</time>
      </trkpt>
      <trkpt lat="45.70172" lon="3.11149">
        <ele>553.713196</ele>
        <time>2012-01-12T10:23:46Z</time>
      </trkpt>
      <trkpt lat="45.70163" lon="3.11158">
        <ele>550.973328</ele>
        <time>2012-01-12T10:23:51Z</time>
      </trkpt>
      <trkpt lat="45.70156" lon="3.11166">
        <ele>548.424377</ele>
        <time>2012-01-12T10:23:55Z</time>
      </trkpt>
      <trkpt lat="45.7015" lon="3.11177">
        <ele>546.791016</ele>
        <time>2012-01-12T10:23:59Z</time>
      </trkpt>
      <trkpt lat="45.70147" lon="3.11189">
        <ele>544.943176</ele>
        <time>2012-01-12T10:24:03Z</time>
      </trkpt>
      <trkpt lat="45.70142" lon="3.11203">
        <ele>542.960449</ele>
        <time>2012-01-12T10:24:08Z</time>
      </trkpt>
      <trkpt lat="45.7014" lon="3.11216">
        <ele>541.789734</ele>
        <time>2012-01-12T10:24:12Z</time>
      </trkpt>
      <trkpt lat="45.70136" lon="3.11228">
        <ele>540.121216</ele>
        <time>2012-01-12T10:24:16Z</time>
      </trkpt>
      <trkpt lat="45.70132" lon="3.11242">
        <ele>537.822815</ele>
        <time>2012-01-12T10:24:20Z</time>
      </trkpt>
      <trkpt lat="45.7013" lon="3.11255">
        <ele>532.656006</ele>
        <time>2012-01-12T10:24:24Z</time>
      </trkpt>
      <trkpt lat="45.70128" lon="3.11269">
        <ele>527.495422</ele>
        <time>2012-01-12T10:24:28Z</time>
      </trkpt>
      <trkpt lat="45.70124" lon="3.11281">
        <ele>522.30365</ele>
        <time>2012-01-12T10:24:34Z</time>
      </trkpt>
      <trkpt lat="45.70117" lon="3.11288">
        <ele>518.630005</ele>
        <time>2012-01-12T10:24:43Z</time>
      </trkpt>
      <trkpt lat="45.70108" lon="3.11288">
        <ele>516.692078</ele>
        <time>2012-01-12T10:24:53Z</time>
      </trkpt>
      <trkpt lat="45.70099" lon="3.11291">
        <ele>514.204224</ele>
        <time>2012-01-12T10:25:02Z</time>
      </trkpt>
      <trkpt lat="45.7009" lon="3.11294">
        <ele>511.944946</ele>
        <time>2012-01-12T10:25:12Z</time>
      </trkpt>
      <trkpt lat="45.7008" lon="3.11299">
        <ele>509.676758</ele>
        <time>2012-01-12T10:25:19Z</time>
      </trkpt>
      <trkpt lat="45.70072" lon="3.11306">
        <ele>507.845673</ele>
        <time>2012-01-12T10:25:26Z</time>
      </trkpt>
      <trkpt lat="45.70065" lon="3.11315">
        <ele>505.814575</ele>
        <time>2012-01-12T10:25:33Z</time>
      </trkpt>
      <trkpt lat="45.70057" lon="3.11324">
        <ele>503.832275</ele>
        <time>2012-01-12T10:25:40Z</time>
      </trkpt>
      <trkpt lat="45.7005" lon="3.11333">
        <ele>501.990204</ele>
        <time>2012-01-12T10:25:48Z</time>
      </trkpt>
      <trkpt lat="45.70042" lon="3.11342">
        <ele>500.265625</ele>
        <time>2012-01-12T10:25:56Z</time>
      </trkpt>
      <trkpt lat="45.70034" lon="3.11352">
        <ele>498.65976</ele>
        <time>2012-01-12T10:26:05Z</time>
      </trkpt>
      <trkpt lat="45.70026" lon="3.11359">
        <ele>497.23172</ele>
        <time>2012-01-12T10:26:14Z</time>
      </trkpt>
      <trkpt lat="45.70017" lon="3.11368">
        <ele>495.737488</ele>
        <time>2012-01-12T10:26:24Z</time>
      </trkpt>
      <trkpt lat="45.7001" lon="3.11376">
        <ele>493.912506</ele>
        <time>2012-01-12T10:26:33Z</time>
      </trkpt>
      <trkpt lat="45.70002" lon="3.11384">
        <ele>492.119995</ele>
        <time>2012-01-12T10:26:42Z</time>
      </trkpt>
      <trkpt lat="45.69993" lon="3.11391">
        <ele>490.432495</ele>
        <time>2012-01-12T10:26:49Z</time>
      </trkpt>
      <trkpt lat="45.69984" lon="3.114">
        <ele>488.43454</ele>
        <time>2012-01-12T10:26:56Z</time>
      </trkpt>
      <trkpt lat="45.69975" lon="3.11408">
        <ele>486.624237</ele>
        <time>2012-01-12T10:27:03Z</time>
      </trkpt>
      <trkpt lat="45.69967" lon="3.11416">
        <ele>485.188263</ele>
        <time>2012-01-12T10:27:10Z</time>
      </trkpt>
      <trkpt lat="45.69958" lon="3.11421">
        <ele>484.19339</ele>
        <time>2012-01-12T10:27:17Z</time>
      </trkpt>
      <trkpt lat="45.69947" lon="3.11424">
        <ele>483.575012</ele>
        <time>2012-01-12T10:27:22Z</time>
      </trkpt>
      <trkpt lat="45.69938" lon="3.11428">
        <ele>482.965454</ele>
        <time>2012-01-12T10:27:26Z</time>
      </trkpt>
      <trkpt lat="45.69929" lon="3.11434">
        <ele>482.082581</ele>
        <time>2012-01-12T10:27:30Z</time>
      </trkpt>
      <trkpt lat="45.6992" lon="3.11438">
        <ele>481.378754</ele>
        <time>2012-01-12T10:27:34Z</time>
      </trkpt>
      <trkpt lat="45.69911" lon="3.11445">
        <ele>480.645264</ele>
        <time>2012-01-12T10:27:38Z</time>
      </trkpt>
      <trkpt lat="45.69905" lon="3.11454">
        <ele>479.800415</ele>
        <time>2012-01-12T10:27:42Z</time>
      </trkpt>
      <trkpt lat="45.69898" lon="3.11465">
        <ele>479.062317</ele>
        <time>2012-01-12T10:27:46Z</time>
      </trkpt>
      <trkpt lat="45.69889" lon="3.11475">
        <ele>477.652527</ele>
        <time>2012-01-12T10:27:50Z</time>
      </trkpt>
      <trkpt lat="45.69882" lon="3.11483">
        <ele>476.379303</ele>
        <time>2012-01-12T10:27:56Z</time>
      </trkpt>
      <trkpt lat="45.69873" lon="3.11488">
        <ele>475.176483</ele>
        <time>2012-01-12T10:28:04Z</time>
      </trkpt>
      <trkpt lat="45.69864" lon="3.11493">
        <ele>473.982788</ele>
        <time>2012-01-12T10:28:11Z</time>
      </trkpt>
      <trkpt lat="45.69855" lon="3.115">
        <ele>472.432007</ele>
        <time>2012-01-12T10:28:19Z</time>
      </trkpt>
      <trkpt lat="45.69846" lon="3.11506">
        <ele>470.845978</ele>
        <time>2012-01-12T10:28:27Z</time>
      </trkpt>
      <trkpt lat="45.69837" lon="3.11512">
        <ele>469.081512</ele>
        <time>2012-01-12T10:28:35Z</time>
      </trkpt>
      <trkpt lat="45.69827" lon="3.11518">
        <ele>467.360565</ele>
        <time>2012-01-12T10:28:43Z</time>
      </trkpt>
      <trkpt lat="45.69817" lon="3.11523">
        <ele>465.786774</ele>
        <time>2012-01-12T10:28:52Z</time>
      </trkpt>
      <trkpt lat="45.69808" lon="3.1153">
        <ele>464.155304</ele>
        <time>2012-01-12T10:29:01Z</time>
      </trkpt>
      <trkpt lat="45.69808" lon="3.11543">
        <ele>463.211853</ele>
        <time>2012-01-12T10:29:06Z</time>
      </trkpt>
      <trkpt lat="45.69811" lon="3.11556">
        <ele>462.419739</ele>
        <time>2012-01-12T10:29:10Z</time>
      </trkpt>
      <trkpt lat="45.69814" lon="3.11569">
        <ele>461.012421</ele>
        <time>2012-01-12T10:29:14Z</time>
      </trkpt>
      <trkpt lat="45.69816" lon="3.11584">
        <ele>459.366669</ele>
        <time>2012-01-12T10:29:18Z</time>
      </trkpt>
      <trkpt lat="45.69819" lon="3.11597">
        <ele>457.804993</ele>
        <time>2012-01-12T10:29:22Z</time>
      </trkpt>
      <trkpt lat="45.69821" lon="3.11611">
        <ele>456.268616</ele>
        <time>2012-01-12T10:29:28Z</time>
      </trkpt>
      <trkpt lat="45.69825" lon="3.11625">
        <ele>454.86377</ele>
        <time>2012-01-12T10:29:32Z</time>
      </trkpt>
      <trkpt lat="45.69827" lon="3.11641">
        <ele>453.851135</ele>
        <time>2012-01-12T10:29:36Z</time>
      </trkpt>
      <trkpt lat="45.6983" lon="3.11656">
        <ele>452.782532</ele>
        <time>2012-01-12T10:29:40Z</time>
      </trkpt>
      <trkpt lat="45.69833" lon="3.11672">
        <ele>451.651825</ele>
        <time>2012-01-12T10:29:44Z</time>
      </trkpt>
      <trkpt lat="45.69835" lon="3.11686">
        <ele>450.60611</ele>
        <time>2012-01-12T10:29:48Z</time>
      </trkpt>
      <trkpt lat="45.69837" lon="3.11699">
        <ele>449.861664</ele>
        <time>2012-01-12T10:29:52Z</time>
      </trkpt>
      <trkpt lat="45.69839" lon="3.11715">
        <ele>448.963287</ele>
        <time>2012-01-12T10:29:56Z</time>
      </trkpt>
      <trkpt lat="45.6984" lon="3.11731">
        <ele>448.052429</ele>
        <time>2012-01-12T10:30:00Z</time>
      </trkpt>
      <trkpt lat="45.69842" lon="3.11746">
        <ele>447.153198</ele>
        <time>2012-01-12T10:30:04Z</time>
      </trkpt>
      <trkpt lat="45.69843" lon="3.11761">
        <ele>446.948364</ele>
        <time>2012-01-12T10:30:08Z</time>
      </trkpt>
      <trkpt lat="45.69844" lon="3.11775">
        <ele>446.906891</ele>
        <time>2012-01-12T10:30:13Z</time>
      </trkpt>
      <trkpt lat="45.69844" lon="3.1179">
        <ele>446.836487</ele>
        <time>2012-01-12T10:30:18Z</time>
      </trkpt>
      <trkpt lat="45.6984" lon="3.11804">
        <ele>446.62912</ele>
        <time>2012-01-12T10:30:22Z</time>
      </trkpt>
      <trkpt lat="45.69836" lon="3.1182">
        <ele>446.420013</ele>
        <time>2012-01-12T10:30:26Z</time>
      </trkpt>
      <trkpt lat="45.69834" lon="3.11832">
        <ele>446.325012</ele>
        <time>2012-01-12T10:30:29Z</time>
      </trkpt>
      <trkpt lat="45.69831" lon="3.11845">
        <ele>446.225006</ele>
        <time>2012-01-12T10:30:32Z</time>
      </trkpt>
      <trkpt lat="45.69827" lon="3.11859">
        <ele>446.015015</ele>
        <time>2012-01-12T10:30:36Z</time>
      </trkpt>
      <trkpt lat="45.69818" lon="3.11869">
        <ele>445.640015</ele>
        <time>2012-01-12T10:30:40Z</time>
      </trkpt>
      <trkpt lat="45.69814" lon="3.11881">
        <ele>445.424225</ele>
        <time>2012-01-12T10:30:43Z</time>
      </trkpt>
      <trkpt lat="45.69811" lon="3.11897">
        <ele>445.128021</ele>
        <time>2012-01-12T10:30:47Z</time>
      </trkpt>
      <trkpt lat="45.69803" lon="3.11906">
        <ele>444.497498</ele>
        <time>2012-01-12T10:30:51Z</time>
      </trkpt>
      <trkpt lat="45.69791" lon="3.11909">
        <ele>443.918762</ele>
        <time>2012-01-12T10:30:54Z</time>
      </trkpt>
      <trkpt lat="45.69779" lon="3.11909">
        <ele>443.401245</ele>
        <time>2012-01-12T10:30:56Z</time>
      </trkpt>
      <trkpt lat="45.69768" lon="3.11907">
        <ele>442.928741</ele>
        <time>2012-01-12T10:30:58Z</time>
      </trkpt>
      <trkpt lat="45.69757" lon="3.11904">
        <ele>442.476837</ele>
        <time>2012-01-12T10:31:00Z</time>
      </trkpt>
      <trkpt lat="45.69746" lon="3.11903">
        <ele>441.883514</ele>
        <time>2012-01-12T10:31:02Z</time>
      </trkpt>
      <trkpt lat="45.69735" lon="3.11905">
        <ele>441.252319</ele>
        <time>2012-01-12T10:31:04Z</time>
      </trkpt>
      <trkpt lat="45.69723" lon="3.11905">
        <ele>440.609589</ele>
        <time>2012-01-12T10:31:06Z</time>
      </trkpt>
      <trkpt lat="45.69713" lon="3.11903">
        <ele>440.108276</ele>
        <time>2012-01-12T10:31:08Z</time>
      </trkpt>
      <trkpt lat="45.69698" lon="3.11902">
        <ele>439.301941</ele>
        <time>2012-01-12T10:31:11Z</time>
      </trkpt>
      <trkpt lat="45.69689" lon="3.11903">
        <ele>438.697388</ele>
        <time>2012-01-12T10:31:13Z</time>
      </trkpt>
      <trkpt lat="45.69678" lon="3.11906">
        <ele>438.066956</ele>
        <time>2012-01-12T10:31:15Z</time>
      </trkpt>
      <trkpt lat="45.69668" lon="3.1191">
        <ele>437.452515</ele>
        <time>2012-01-12T10:31:17Z</time>
      </trkpt>
      <trkpt lat="45.6966" lon="3.11912">
        <ele>437.52359</ele>
        <time>2012-01-12T10:31:20Z</time>
      </trkpt>
      <trkpt lat="45.69649" lon="3.11917">
        <ele>437.617401</ele>
        <time>2012-01-12T10:31:25Z</time>
      </trkpt>
      <trkpt lat="45.69638" lon="3.11924">
        <ele>437.743835</ele>
        <time>2012-01-12T10:31:36Z</time>
      </trkpt>
      <trkpt lat="45.69626" lon="3.11933">
        <ele>437.937805</ele>
        <time>2012-01-12T10:31:40Z</time>
      </trkpt>
      <trkpt lat="45.69617" lon="3.11938">
        <ele>438.40567</ele>
        <time>2012-01-12T10:31:43Z</time>
      </trkpt>
      <trkpt lat="45.69607" lon="3.11943">
        <ele>439.139587</ele>
        <time>2012-01-12T10:31:47Z</time>
      </trkpt>
      <trkpt lat="45.69595" lon="3.11948">
        <ele>440.008972</ele>
        <time>2012-01-12T10:31:52Z</time>
      </trkpt>
      <trkpt lat="45.69584" lon="3.11952">
        <ele>440.814911</ele>
        <time>2012-01-12T10:31:56Z</time>
      </trkpt>
      <trkpt lat="45.69573" lon="3.11955">
        <ele>442.185333</ele>
        <time>2012-01-12T10:32:00Z</time>
      </trkpt>
      <trkpt lat="45.69563" lon="3.11958">
        <ele>444.058319</ele>
        <time>2012-01-12T10:32:04Z</time>
      </trkpt>
      <trkpt lat="45.69553" lon="3.11956">
        <ele>446.026398</ele>
        <time>2012-01-12T10:32:09Z</time>
      </trkpt>
      <trkpt lat="45.69544" lon="3.11954">
        <ele>447.788239</ele>
        <time>2012-01-12T10:32:14Z</time>
      </trkpt>
      <trkpt lat="45.69533" lon="3.11954">
        <ele>449.787506</ele>
        <time>2012-01-12T10:32:22Z</time>
      </trkpt>
      <trkpt lat="45.69523" lon="3.11957">
        <ele>451.53125</ele>
        <time>2012-01-12T10:32:34Z</time>
      </trkpt>
      <trkpt lat="45.69513" lon="3.11957">
        <ele>453.362488</ele>
        <time>2012-01-12T10:32:39Z</time>
      </trkpt>
      <trkpt lat="45.69503" lon="3.11958">
        <ele>455.002502</ele>
        <time>2012-01-12T10:32:42Z</time>
      </trkpt>
      <trkpt lat="45.69493" lon="3.11962">
        <ele>456.817505</ele>
        <time>2012-01-12T10:32:46Z</time>
      </trkpt>
      <trkpt lat="45.69483" lon="3.11966">
        <ele>458.240295</ele>
        <time>2012-01-12T10:32:50Z</time>
      </trkpt>
      <trkpt lat="45.69472" lon="3.11968">
        <ele>459.867371</ele>
        <time>2012-01-12T10:32:55Z</time>
      </trkpt>
      <trkpt lat="45.6946" lon="3.11971">
        <ele>461.493439</ele>
        <time>2012-01-12T10:33:00Z</time>
      </trkpt>
      <trkpt lat="45.69449" lon="3.11973">
        <ele>462.950256</ele>
        <time>2012-01-12T10:33:05Z</time>
      </trkpt>
      <trkpt lat="45.6944" lon="3.11975">
        <ele>464.17511</ele>
        <time>2012-01-12T10:33:09Z</time>
      </trkpt>
      <trkpt lat="45.6943" lon="3.11976">
        <ele>465.400024</ele>
        <time>2012-01-12T10:33:14Z</time>
      </trkpt>
      <trkpt lat="45.69419" lon="3.11978">
        <ele>466.672455</ele>
        <time>2012-01-12T10:33:19Z</time>
      </trkpt>
      <trkpt lat="45.69408" lon="3.11981">
        <ele>467.975616</ele>
        <time>2012-01-12T10:33:24Z</time>
      </trkpt>
      <trkpt lat="45.69398" lon="3.11982">
        <ele>469.290009</ele>
        <time>2012-01-12T10:33:29Z</time>
      </trkpt>
      <trkpt lat="45.69388" lon="3.11983">
        <ele>470.876251</ele>
        <time>2012-01-12T10:33:34Z</time>
      </trkpt>
      <trkpt lat="45.69377" lon="3.11984">
        <ele>472.533752</ele>
        <time>2012-01-12T10:33:39Z</time>
      </trkpt>
      <trkpt lat="45.69366" lon="3.11985">
        <ele>474.257507</ele>
        <time>2012-01-12T10:33:44Z</time>
      </trkpt>
      <trkpt lat="45.69355" lon="3.11986">
        <ele>475.861267</ele>
        <time>2012-01-12T10:33:49Z</time>
      </trkpt>
      <trkpt lat="45.69345" lon="3.11988">
        <ele>477.353912</ele>
        <time>2012-01-12T10:33:54Z</time>
      </trkpt>
      <trkpt lat="45.69335" lon="3.11993">
        <ele>478.862305</ele>
        <time>2012-01-12T10:33:59Z</time>
      </trkpt>
      <trkpt lat="45.69324" lon="3.11998">
        <ele>480.473755</ele>
        <time>2012-01-12T10:34:04Z</time>
      </trkpt>
      <trkpt lat="45.69314" lon="3.12002">
        <ele>481.940002</ele>
        <time>2012-01-12T10:34:09Z</time>
      </trkpt>
      <trkpt lat="45.69303" lon="3.12003">
        <ele>483.44989</ele>
        <time>2012-01-12T10:34:14Z</time>
      </trkpt>
      <trkpt lat="45.69294" lon="3.12006">
        <ele>484.55545</ele>
        <time>2012-01-12T10:34:19Z</time>
      </trkpt>
      <trkpt lat="45.69293" lon="3.12021">
        <ele>484.484253</ele>
        <time>2012-01-12T10:34:24Z</time>
      </trkpt>
      <trkpt lat="45.69296" lon="3.12036">
        <ele>483.964874</ele>
        <time>2012-01-12T10:34:27Z</time>
      </trkpt>
      <trkpt lat="45.69299" lon="3.12056">
        <ele>483.450989</ele>
        <time>2012-01-12T10:34:30Z</time>
      </trkpt>
      <trkpt lat="45.69299" lon="3.1207">
        <ele>483.266235</ele>
        <time>2012-01-12T10:34:32Z</time>
      </trkpt>
      <trkpt lat="45.693" lon="3.12084">
        <ele>483.156647</ele>
        <time>2012-01-12T10:34:34Z</time>
      </trkpt>
      <trkpt lat="45.69301" lon="3.12097">
        <ele>483.093475</ele>
        <time>2012-01-12T10:34:36Z</time>
      </trkpt>
      <trkpt lat="45.693" lon="3.12114">
        <ele>483.309631</ele>
        <time>2012-01-12T10:34:39Z</time>
      </trkpt>
      <trkpt lat="45.69297" lon="3.12127">
        <ele>483.70575</ele>
        <time>2012-01-12T10:34:41Z</time>
      </trkpt>
      <trkpt lat="45.69296" lon="3.12139">
        <ele>484.123962</ele>
        <time>2012-01-12T10:34:43Z</time>
      </trkpt>
      <trkpt lat="45.69293" lon="3.12158">
        <ele>484.600006</ele>
        <time>2012-01-12T10:34:46Z</time>
      </trkpt>
      <trkpt lat="45.69292" lon="3.12176">
        <ele>484.904785</ele>
        <time>2012-01-12T10:34:49Z</time>
      </trkpt>
      <trkpt lat="45.69291" lon="3.12195">
        <ele>485</ele>
        <time>2012-01-12T10:34:52Z</time>
      </trkpt>
      <trkpt lat="45.6929" lon="3.12208">
        <ele>484.966248</ele>
        <time>2012-01-12T10:34:54Z</time>
      </trkpt>
      <trkpt lat="45.69288" lon="3.12223">
        <ele>485.006256</ele>
        <time>2012-01-12T10:34:56Z</time>
      </trkpt>
      <trkpt lat="45.69285" lon="3.12238">
        <ele>485.073761</ele>
        <time>2012-01-12T10:34:58Z</time>
      </trkpt>
      <trkpt lat="45.69281" lon="3.12253">
        <ele>485.407501</ele>
        <time>2012-01-12T10:35:00Z</time>
      </trkpt>
      <trkpt lat="45.69277" lon="3.12268">
        <ele>485.769012</ele>
        <time>2012-01-12T10:35:02Z</time>
      </trkpt>
      <trkpt lat="45.69273" lon="3.12285">
        <ele>486.102325</ele>
        <time>2012-01-12T10:35:04Z</time>
      </trkpt>
      <trkpt lat="45.69268" lon="3.123">
        <ele>486.448395</ele>
        <time>2012-01-12T10:35:06Z</time>
      </trkpt>
      <trkpt lat="45.69263" lon="3.12316">
        <ele>486.793457</ele>
        <time>2012-01-12T10:35:08Z</time>
      </trkpt>
      <trkpt lat="45.69258" lon="3.12332">
        <ele>487.075012</ele>
        <time>2012-01-12T10:35:10Z</time>
      </trkpt>
      <trkpt lat="45.69254" lon="3.12347">
        <ele>487.325012</ele>
        <time>2012-01-12T10:35:12Z</time>
      </trkpt>
      <trkpt lat="45.6925" lon="3.12362">
        <ele>487.53125</ele>
        <time>2012-01-12T10:35:14Z</time>
      </trkpt>
      <trkpt lat="45.69246" lon="3.12377">
        <ele>487.660004</ele>
        <time>2012-01-12T10:35:16Z</time>
      </trkpt>
      <trkpt lat="45.69243" lon="3.12392">
        <ele>487.768738</ele>
        <time>2012-01-12T10:35:18Z</time>
      </trkpt>
      <trkpt lat="45.69239" lon="3.12408">
        <ele>487.920013</ele>
        <time>2012-01-12T10:35:20Z</time>
      </trkpt>
      <trkpt lat="45.69236" lon="3.12424">
        <ele>487.977509</ele>
        <time>2012-01-12T10:35:22Z</time>
      </trkpt>
      <trkpt lat="45.69234" lon="3.12438">
        <ele>487.945007</ele>
        <time>2012-01-12T10:35:24Z</time>
      </trkpt>
      <trkpt lat="45.69231" lon="3.12453">
        <ele>488.061249</ele>
        <time>2012-01-12T10:35:26Z</time>
      </trkpt>
      <trkpt lat="45.69227" lon="3.12468">
        <ele>488.295013</ele>
        <time>2012-01-12T10:35:28Z</time>
      </trkpt>
      <trkpt lat="45.69223" lon="3.12483">
        <ele>488.513733</ele>
        <time>2012-01-12T10:35:30Z</time>
      </trkpt>
      <trkpt lat="45.69218" lon="3.12498">
        <ele>488.782501</ele>
        <time>2012-01-12T10:35:32Z</time>
      </trkpt>
      <trkpt lat="45.69213" lon="3.12513">
        <ele>489.139191</ele>
        <time>2012-01-12T10:35:34Z</time>
      </trkpt>
      <trkpt lat="45.69209" lon="3.12527">
        <ele>489.841705</ele>
        <time>2012-01-12T10:35:36Z</time>
      </trkpt>
      <trkpt lat="45.69203" lon="3.1254">
        <ele>490.56601</ele>
        <time>2012-01-12T10:35:38Z</time>
      </trkpt>
      <trkpt lat="45.69197" lon="3.12552">
        <ele>491.359772</ele>
        <time>2012-01-12T10:35:40Z</time>
      </trkpt>
      <trkpt lat="45.69192" lon="3.12564">
        <ele>492.076874</ele>
        <time>2012-01-12T10:35:42Z</time>
      </trkpt>
      <trkpt lat="45.69185" lon="3.12575">
        <ele>492.773743</ele>
        <time>2012-01-12T10:35:44Z</time>
      </trkpt>
      <trkpt lat="45.69179" lon="3.12585">
        <ele>493.545013</ele>
        <time>2012-01-12T10:35:46Z</time>
      </trkpt>
      <trkpt lat="45.69171" lon="3.12595">
        <ele>494.415009</ele>
        <time>2012-01-12T10:35:48Z</time>
      </trkpt>
      <trkpt lat="45.69163" lon="3.12604">
        <ele>495.344849</ele>
        <time>2012-01-12T10:35:50Z</time>
      </trkpt>
      <trkpt lat="45.69157" lon="3.12614">
        <ele>496.094666</ele>
        <time>2012-01-12T10:35:52Z</time>
      </trkpt>
      <trkpt lat="45.69151" lon="3.12625">
        <ele>496.559418</ele>
        <time>2012-01-12T10:35:54Z</time>
      </trkpt>
      <trkpt lat="45.69148" lon="3.12638">
        <ele>496.695496</ele>
        <time>2012-01-12T10:35:56Z</time>
      </trkpt>
      <trkpt lat="45.69146" lon="3.12651">
        <ele>496.893738</ele>
        <time>2012-01-12T10:35:58Z</time>
      </trkpt>
      <trkpt lat="45.69143" lon="3.12666">
        <ele>497.164215</ele>
        <time>2012-01-12T10:36:01Z</time>
      </trkpt>
      <trkpt lat="45.69141" lon="3.12681">
        <ele>497.194244</ele>
        <time>2012-01-12T10:36:05Z</time>
      </trkpt>
      <trkpt lat="45.6915" lon="3.12686">
        <ele>496.108582</ele>
        <time>2012-01-12T10:36:10Z</time>
      </trkpt>
      <trkpt lat="45.69161" lon="3.12685">
        <ele>494.867889</ele>
        <time>2012-01-12T10:36:14Z</time>
      </trkpt>
      <trkpt lat="45.69172" lon="3.12685">
        <ele>493.394409</ele>
        <time>2012-01-12T10:36:18Z</time>
      </trkpt>
      <trkpt lat="45.69182" lon="3.12683">
        <ele>491.887939</ele>
        <time>2012-01-12T10:36:22Z</time>
      </trkpt>
      <trkpt lat="45.69192" lon="3.12682">
        <ele>490.453644</ele>
        <time>2012-01-12T10:36:26Z</time>
      </trkpt>
      <trkpt lat="45.69202" lon="3.12683">
        <ele>488.94339</ele>
        <time>2012-01-12T10:36:32Z</time>
      </trkpt>
      <trkpt lat="45.69212" lon="3.12685">
        <ele>487.529602</ele>
        <time>2012-01-12T10:36:36Z</time>
      </trkpt>
      <trkpt lat="45.69222" lon="3.12689">
        <ele>485.915436</ele>
        <time>2012-01-12T10:36:40Z</time>
      </trkpt>
      <trkpt lat="45.69232" lon="3.12694">
        <ele>484.298401</ele>
        <time>2012-01-12T10:36:44Z</time>
      </trkpt>
      <trkpt lat="45.69242" lon="3.12697">
        <ele>482.661438</ele>
        <time>2012-01-12T10:36:48Z</time>
      </trkpt>
      <trkpt lat="45.69254" lon="3.12697">
        <ele>480.892365</ele>
        <time>2012-01-12T10:36:53Z</time>
      </trkpt>
      <trkpt lat="45.69263" lon="3.12691">
        <ele>479.922485</ele>
        <time>2012-01-12T10:36:57Z</time>
      </trkpt>
      <trkpt lat="45.69273" lon="3.12685">
        <ele>479.190186</ele>
        <time>2012-01-12T10:37:01Z</time>
      </trkpt>
      <trkpt lat="45.69283" lon="3.12679">
        <ele>478.382019</ele>
        <time>2012-01-12T10:37:05Z</time>
      </trkpt>
      <trkpt lat="45.69293" lon="3.12673">
        <ele>477.510803</ele>
        <time>2012-01-12T10:37:09Z</time>
      </trkpt>
      <trkpt lat="45.69302" lon="3.12669">
        <ele>476.620728</ele>
        <time>2012-01-12T10:37:14Z</time>
      </trkpt>
      <trkpt lat="45.69312" lon="3.12662">
        <ele>475.651245</ele>
        <time>2012-01-12T10:37:19Z</time>
      </trkpt>
      <trkpt lat="45.69321" lon="3.12657">
        <ele>474.744995</ele>
        <time>2012-01-12T10:37:23Z</time>
      </trkpt>
      <trkpt lat="45.69332" lon="3.12652">
        <ele>473.602509</ele>
        <time>2012-01-12T10:37:28Z</time>
      </trkpt>
      <trkpt lat="45.69342" lon="3.12647">
        <ele>472.661255</ele>
        <time>2012-01-12T10:37:32Z</time>
      </trkpt>
      <trkpt lat="45.69351" lon="3.12641">
        <ele>471.736938</ele>
        <time>2012-01-12T10:37:36Z</time>
      </trkpt>
      <trkpt lat="45.69361" lon="3.12636">
        <ele>470.7099</ele>
        <time>2012-01-12T10:37:40Z</time>
      </trkpt>
      <trkpt lat="45.69372" lon="3.12631">
        <ele>469.67572</ele>
        <time>2012-01-12T10:37:44Z</time>
      </trkpt>
      <trkpt lat="45.69383" lon="3.12626">
        <ele>468.612335</ele>
        <time>2012-01-12T10:37:48Z</time>
      </trkpt>
      <trkpt lat="45.69394" lon="3.12626">
        <ele>467.457489</ele>
        <time>2012-01-12T10:37:52Z</time>
      </trkpt>
      <trkpt lat="45.69405" lon="3.12628">
        <ele>466.157501</ele>
        <time>2012-01-12T10:37:56Z</time>
      </trkpt>
      <trkpt lat="45.69416" lon="3.12629">
        <ele>464.88501</ele>
        <time>2012-01-12T10:38:00Z</time>
      </trkpt>
      <trkpt lat="45.69427" lon="3.12631">
        <ele>463.660004</ele>
        <time>2012-01-12T10:38:04Z</time>
      </trkpt>
      <trkpt lat="45.69437" lon="3.12632">
        <ele>462.462494</ele>
        <time>2012-01-12T10:38:08Z</time>
      </trkpt>
      <trkpt lat="45.69447" lon="3.12633">
        <ele>461.30249</ele>
        <time>2012-01-12T10:38:12Z</time>
      </trkpt>
      <trkpt lat="45.69453" lon="3.12641">
        <ele>460.360016</ele>
        <time>2012-01-12T10:38:16Z</time>
      </trkpt>
      <trkpt lat="45.6945" lon="3.12661">
        <ele>460.264252</ele>
        <time>2012-01-12T10:38:19Z</time>
      </trkpt>
      <trkpt lat="45.69447" lon="3.12676">
        <ele>460.359497</ele>
        <time>2012-01-12T10:38:21Z</time>
      </trkpt>
      <trkpt lat="45.69444" lon="3.1269">
        <ele>460.447998</ele>
        <time>2012-01-12T10:38:23Z</time>
      </trkpt>
      <trkpt lat="45.69441" lon="3.12704">
        <ele>460.640625</ele>
        <time>2012-01-12T10:38:25Z</time>
      </trkpt>
      <trkpt lat="45.69438" lon="3.12717">
        <ele>461.357513</ele>
        <time>2012-01-12T10:38:27Z</time>
      </trkpt>
      <trkpt lat="45.69434" lon="3.1273">
        <ele>462.171875</ele>
        <time>2012-01-12T10:38:29Z</time>
      </trkpt>
      <trkpt lat="45.69431" lon="3.12743">
        <ele>462.947876</ele>
        <time>2012-01-12T10:38:31Z</time>
      </trkpt>
      <trkpt lat="45.69427" lon="3.12756">
        <ele>463.762817</ele>
        <time>2012-01-12T10:38:33Z</time>
      </trkpt>
      <trkpt lat="45.69424" lon="3.12769">
        <ele>464.501678</ele>
        <time>2012-01-12T10:38:35Z</time>
      </trkpt>
      <trkpt lat="45.69421" lon="3.12781">
        <ele>464.875</ele>
        <time>2012-01-12T10:38:37Z</time>
      </trkpt>
      <trkpt lat="45.69415" lon="3.128">
        <ele>465.487488</ele>
        <time>2012-01-12T10:38:40Z</time>
      </trkpt>
      <trkpt lat="45.69411" lon="3.12811">
        <ele>465.912506</ele>
        <time>2012-01-12T10:38:42Z</time>
      </trkpt>
      <trkpt lat="45.69405" lon="3.12828">
        <ele>466.612488</ele>
        <time>2012-01-12T10:38:45Z</time>
      </trkpt>
      <trkpt lat="45.694" lon="3.12839">
        <ele>467.037506</ele>
        <time>2012-01-12T10:38:47Z</time>
      </trkpt>
      <trkpt lat="45.69393" lon="3.12856">
        <ele>467.588745</ele>
        <time>2012-01-12T10:38:50Z</time>
      </trkpt>
      <trkpt lat="45.69386" lon="3.1287">
        <ele>467.889526</ele>
        <time>2012-01-12T10:38:53Z</time>
      </trkpt>
      <trkpt lat="45.69381" lon="3.12883">
        <ele>468.131958</ele>
        <time>2012-01-12T10:38:57Z</time>
      </trkpt>
      <trkpt lat="45.69386" lon="3.12895">
        <ele>467.560364</ele>
        <time>2012-01-12T10:39:02Z</time>
      </trkpt>
      <trkpt lat="45.69397" lon="3.12899">
        <ele>466.447388</ele>
        <time>2012-01-12T10:39:07Z</time>
      </trkpt>
      <trkpt lat="45.69407" lon="3.129">
        <ele>465.277649</ele>
        <time>2012-01-12T10:39:11Z</time>
      </trkpt>
      <trkpt lat="45.69417" lon="3.129">
        <ele>464.155945</ele>
        <time>2012-01-12T10:39:15Z</time>
      </trkpt>
      <trkpt lat="45.69427" lon="3.12901">
        <ele>463.035736</ele>
        <time>2012-01-12T10:39:19Z</time>
      </trkpt>
      <trkpt lat="45.69437" lon="3.12904">
        <ele>461.868744</ele>
        <time>2012-01-12T10:39:23Z</time>
      </trkpt>
      <trkpt lat="45.69447" lon="3.12908">
        <ele>460.47998</ele>
        <time>2012-01-12T10:39:27Z</time>
      </trkpt>
      <trkpt lat="45.69457" lon="3.12913">
        <ele>459.111237</ele>
        <time>2012-01-12T10:39:31Z</time>
      </trkpt>
      <trkpt lat="45.69466" lon="3.12919">
        <ele>457.786255</ele>
        <time>2012-01-12T10:39:35Z</time>
      </trkpt>
      <trkpt lat="45.69474" lon="3.12926">
        <ele>456.514984</ele>
        <time>2012-01-12T10:39:39Z</time>
      </trkpt>
      <trkpt lat="45.69482" lon="3.12932">
        <ele>455.381073</ele>
        <time>2012-01-12T10:39:43Z</time>
      </trkpt>
      <trkpt lat="45.6949" lon="3.12939">
        <ele>454.273041</ele>
        <time>2012-01-12T10:39:50Z</time>
      </trkpt>
      <trkpt lat="45.69492" lon="3.12951">
        <ele>453.849976</ele>
        <time>2012-01-12T10:39:57Z</time>
      </trkpt>
      <trkpt lat="45.6949" lon="3.12964">
        <ele>453.793182</ele>
        <time>2012-01-12T10:40:03Z</time>
      </trkpt>
      <trkpt lat="45.69488" lon="3.12978">
        <ele>454.209137</ele>
        <time>2012-01-12T10:40:10Z</time>
      </trkpt>
      <trkpt lat="45.69487" lon="3.12991">
        <ele>454.500244</ele>
        <time>2012-01-12T10:40:17Z</time>
      </trkpt>
      <trkpt lat="45.69485" lon="3.13005">
        <ele>454.935242</ele>
        <time>2012-01-12T10:40:25Z</time>
      </trkpt>
      <trkpt lat="45.69484" lon="3.13021">
        <ele>455.35614</ele>
        <time>2012-01-12T10:40:31Z</time>
      </trkpt>
      <trkpt lat="45.69482" lon="3.13034">
        <ele>455.763306</ele>
        <time>2012-01-12T10:40:34Z</time>
      </trkpt>
      <trkpt lat="45.69482" lon="3.13048">
        <ele>455.808075</ele>
        <time>2012-01-12T10:40:37Z</time>
      </trkpt>
      <trkpt lat="45.6948" lon="3.13065">
        <ele>456.049408</ele>
        <time>2012-01-12T10:40:41Z</time>
      </trkpt>
      <trkpt lat="45.69479" lon="3.13081">
        <ele>456.205231</ele>
        <time>2012-01-12T10:40:45Z</time>
      </trkpt>
      <trkpt lat="45.69477" lon="3.13096">
        <ele>456.571625</ele>
        <time>2012-01-12T10:40:49Z</time>
      </trkpt>
      <trkpt lat="45.69474" lon="3.13111">
        <ele>457.116943</ele>
        <time>2012-01-12T10:40:53Z</time>
      </trkpt>
      <trkpt lat="45.69473" lon="3.13126">
        <ele>457.455017</ele>
        <time>2012-01-12T10:40:57Z</time>
      </trkpt>
      <trkpt lat="45.69472" lon="3.13141">
        <ele>457.727112</ele>
        <time>2012-01-12T10:41:01Z</time>
      </trkpt>
      <trkpt lat="45.69472" lon="3.13158">
        <ele>457.832489</ele>
        <time>2012-01-12T10:41:05Z</time>
      </trkpt>
      <trkpt lat="45.69474" lon="3.13174">
        <ele>457.332489</ele>
        <time>2012-01-12T10:41:09Z</time>
      </trkpt>
      <trkpt lat="45.69475" lon="3.13191">
        <ele>456.89624</ele>
        <time>2012-01-12T10:41:13Z</time>
      </trkpt>
      <trkpt lat="45.69475" lon="3.13207">
        <ele>456.657501</ele>
        <time>2012-01-12T10:41:17Z</time>
      </trkpt>
      <trkpt lat="45.69476" lon="3.13221">
        <ele>456.382507</ele>
        <time>2012-01-12T10:41:21Z</time>
      </trkpt>
      <trkpt lat="45.69475" lon="3.13235">
        <ele>456.258759</ele>
        <time>2012-01-12T10:41:25Z</time>
      </trkpt>
      <trkpt lat="45.69475" lon="3.13248">
        <ele>456.046265</ele>
        <time>2012-01-12T10:41:29Z</time>
      </trkpt>
      <trkpt lat="45.69474" lon="3.13262">
        <ele>455.938751</ele>
        <time>2012-01-12T10:41:33Z</time>
      </trkpt>
      <trkpt lat="45.69475" lon="3.13279">
        <ele>455.548737</ele>
        <time>2012-01-12T10:41:38Z</time>
      </trkpt>
      <trkpt lat="45.69482" lon="3.13293">
        <ele>454.674988</ele>
        <time>2012-01-12T10:41:45Z</time>
      </trkpt>
      <trkpt lat="45.69492" lon="3.13288">
        <ele>453.575012</ele>
        <time>2012-01-12T10:41:49Z</time>
      </trkpt>
      <trkpt lat="45.695" lon="3.13281">
        <ele>452.718414</ele>
        <time>2012-01-12T10:41:53Z</time>
      </trkpt>
      <trkpt lat="45.69509" lon="3.13272">
        <ele>451.687958</ele>
        <time>2012-01-12T10:41:58Z</time>
      </trkpt>
      <trkpt lat="45.69519" lon="3.13265">
        <ele>450.544647</ele>
        <time>2012-01-12T10:42:03Z</time>
      </trkpt>
      <trkpt lat="45.69529" lon="3.13256">
        <ele>449.275085</ele>
        <time>2012-01-12T10:42:08Z</time>
      </trkpt>
      <trkpt lat="45.6954" lon="3.13249">
        <ele>447.670746</ele>
        <time>2012-01-12T10:42:13Z</time>
      </trkpt>
      <trkpt lat="45.69549" lon="3.13244">
        <ele>446.31134</ele>
        <time>2012-01-12T10:42:17Z</time>
      </trkpt>
      <trkpt lat="45.6956" lon="3.13237">
        <ele>444.585144</ele>
        <time>2012-01-12T10:42:22Z</time>
      </trkpt>
      <trkpt lat="45.6957" lon="3.13231">
        <ele>443.017731</ele>
        <time>2012-01-12T10:42:27Z</time>
      </trkpt>
      <trkpt lat="45.69581" lon="3.13223">
        <ele>441.476349</ele>
        <time>2012-01-12T10:42:32Z</time>
      </trkpt>
      <trkpt lat="45.69591" lon="3.13217">
        <ele>440.11853</ele>
        <time>2012-01-12T10:42:36Z</time>
      </trkpt>
      <trkpt lat="45.696" lon="3.13211">
        <ele>438.775269</ele>
        <time>2012-01-12T10:42:40Z</time>
      </trkpt>
      <trkpt lat="45.6961" lon="3.13208">
        <ele>437.376556</ele>
        <time>2012-01-12T10:42:44Z</time>
      </trkpt>
      <trkpt lat="45.6962" lon="3.13204">
        <ele>435.920197</ele>
        <time>2012-01-12T10:42:48Z</time>
      </trkpt>
      <trkpt lat="45.69631" lon="3.132">
        <ele>434.154694</ele>
        <time>2012-01-12T10:42:53Z</time>
      </trkpt>
      <trkpt lat="45.69641" lon="3.13197">
        <ele>432.705475</ele>
        <time>2012-01-12T10:42:57Z</time>
      </trkpt>
      <trkpt lat="45.6965" lon="3.13192">
        <ele>431.352905</ele>
        <time>2012-01-12T10:43:01Z</time>
      </trkpt>
      <trkpt lat="45.69659" lon="3.13187">
        <ele>430</ele>
        <time>2012-01-12T10:43:05Z</time>
      </trkpt>
      <trkpt lat="45.69671" lon="3.13183">
        <ele>428.700012</ele>
        <time>2012-01-12T10:43:09Z</time>
      </trkpt>
      <trkpt lat="45.69683" lon="3.1318">
        <ele>427.424988</ele>
        <time>2012-01-12T10:43:13Z</time>
      </trkpt>
      <trkpt lat="45.69694" lon="3.13176">
        <ele>426.200012</ele>
        <time>2012-01-12T10:43:17Z</time>
      </trkpt>
      <trkpt lat="45.69705" lon="3.13174">
        <ele>425</ele>
        <time>2012-01-12T10:43:21Z</time>
      </trkpt>
      <trkpt lat="45.69715" lon="3.13172">
        <ele>423.875</ele>
        <time>2012-01-12T10:43:25Z</time>
      </trkpt>
      <trkpt lat="45.69725" lon="3.1317">
        <ele>422.737488</ele>
        <time>2012-01-12T10:43:29Z</time>
      </trkpt>
      <trkpt lat="45.69735" lon="3.13168">
        <ele>421.674988</ele>
        <time>2012-01-12T10:43:33Z</time>
      </trkpt>
      <trkpt lat="45.69744" lon="3.13167">
        <ele>420.575012</ele>
        <time>2012-01-12T10:43:37Z</time>
      </trkpt>
      <trkpt lat="45.69755" lon="3.13165">
        <ele>419.399994</ele>
        <time>2012-01-12T10:43:41Z</time>
      </trkpt>
      <trkpt lat="45.69766" lon="3.13163">
        <ele>418.1875</ele>
        <time>2012-01-12T10:43:45Z</time>
      </trkpt>
      <trkpt lat="45.69777" lon="3.13162">
        <ele>416.987488</ele>
        <time>2012-01-12T10:43:49Z</time>
      </trkpt>
      <trkpt lat="45.69788" lon="3.13167">
        <ele>415.725006</ele>
        <time>2012-01-12T10:43:53Z</time>
      </trkpt>
      <trkpt lat="45.69795" lon="3.13176">
        <ele>414.93631</ele>
        <time>2012-01-12T10:43:56Z</time>
      </trkpt>
      <trkpt lat="45.69802" lon="3.13189">
        <ele>414.277893</ele>
        <time>2012-01-12T10:44:00Z</time>
      </trkpt>
      <trkpt lat="45.69804" lon="3.13202">
        <ele>413.999176</ele>
        <time>2012-01-12T10:44:03Z</time>
      </trkpt>
      <trkpt lat="45.69806" lon="3.13215">
        <ele>413.774109</ele>
        <time>2012-01-12T10:44:06Z</time>
      </trkpt>
      <trkpt lat="45.69808" lon="3.13232">
        <ele>413.386261</ele>
        <time>2012-01-12T10:44:10Z</time>
      </trkpt>
      <trkpt lat="45.69809" lon="3.13244">
        <ele>413.078735</ele>
        <time>2012-01-12T10:44:13Z</time>
      </trkpt>
      <trkpt lat="45.6981" lon="3.13259">
        <ele>412.704987</ele>
        <time>2012-01-12T10:44:17Z</time>
      </trkpt>
      <trkpt lat="45.6981" lon="3.13274">
        <ele>412.4375</ele>
        <time>2012-01-12T10:44:21Z</time>
      </trkpt>
      <trkpt lat="45.6981" lon="3.13291">
        <ele>412.228241</ele>
        <time>2012-01-12T10:44:25Z</time>
      </trkpt>
      <trkpt lat="45.69808" lon="3.13305">
        <ele>412.31839</ele>
        <time>2012-01-12T10:44:29Z</time>
      </trkpt>
      <trkpt lat="45.69807" lon="3.1332">
        <ele>412.41153</ele>
        <time>2012-01-12T10:44:33Z</time>
      </trkpt>
      <trkpt lat="45.69806" lon="3.13334">
        <ele>412.447083</ele>
        <time>2012-01-12T10:44:37Z</time>
      </trkpt>
      <trkpt lat="45.69805" lon="3.13349">
        <ele>412.487854</ele>
        <time>2012-01-12T10:44:41Z</time>
      </trkpt>
      <trkpt lat="45.69804" lon="3.13363">
        <ele>412.41626</ele>
        <time>2012-01-12T10:44:45Z</time>
      </trkpt>
      <trkpt lat="45.69804" lon="3.13378">
        <ele>412.121246</ele>
        <time>2012-01-12T10:44:49Z</time>
      </trkpt>
      <trkpt lat="45.69804" lon="3.13395">
        <ele>411.83374</ele>
        <time>2012-01-12T10:44:53Z</time>
      </trkpt>
      <trkpt lat="45.69803" lon="3.13411">
        <ele>411.783752</ele>
        <time>2012-01-12T10:44:57Z</time>
      </trkpt>
      <trkpt lat="45.69801" lon="3.13425">
        <ele>411.830017</ele>
        <time>2012-01-12T10:45:01Z</time>
      </trkpt>
      <trkpt lat="45.698" lon="3.1344">
        <ele>411.625</ele>
        <time>2012-01-12T10:45:05Z</time>
      </trkpt>
      <trkpt lat="45.69799" lon="3.13455">
        <ele>411.529999</ele>
        <time>2012-01-12T10:45:09Z</time>
      </trkpt>
      <trkpt lat="45.69798" lon="3.13468">
        <ele>411.480011</ele>
        <time>2012-01-12T10:45:13Z</time>
      </trkpt>
      <trkpt lat="45.69796" lon="3.13483">
        <ele>411.434937</ele>
        <time>2012-01-12T10:45:17Z</time>
      </trkpt>
      <trkpt lat="45.69793" lon="3.13496">
        <ele>411.462921</ele>
        <time>2012-01-12T10:45:21Z</time>
      </trkpt>
      <trkpt lat="45.69791" lon="3.13511">
        <ele>411.287506</ele>
        <time>2012-01-12T10:45:25Z</time>
      </trkpt>
      <trkpt lat="45.69789" lon="3.13526">
        <ele>411.027496</ele>
        <time>2012-01-12T10:45:29Z</time>
      </trkpt>
      <trkpt lat="45.69789" lon="3.13542">
        <ele>410.567505</ele>
        <time>2012-01-12T10:45:33Z</time>
      </trkpt>
      <trkpt lat="45.69788" lon="3.13558">
        <ele>410.341248</ele>
        <time>2012-01-12T10:45:37Z</time>
      </trkpt>
      <trkpt lat="45.69789" lon="3.13574">
        <ele>410.012512</ele>
        <time>2012-01-12T10:45:41Z</time>
      </trkpt>
      <trkpt lat="45.69787" lon="3.13589">
        <ele>410.0625</ele>
        <time>2012-01-12T10:45:45Z</time>
      </trkpt>
      <trkpt lat="45.69783" lon="3.13602">
        <ele>410.387512</ele>
        <time>2012-01-12T10:45:49Z</time>
      </trkpt>
      <trkpt lat="45.69782" lon="3.13617">
        <ele>410.106262</ele>
        <time>2012-01-12T10:45:53Z</time>
      </trkpt>
      <trkpt lat="45.69779" lon="3.13631">
        <ele>409.883759</ele>
        <time>2012-01-12T10:45:57Z</time>
      </trkpt>
      <trkpt lat="45.69775" lon="3.13644">
        <ele>409.90625</ele>
        <time>2012-01-12T10:46:01Z</time>
      </trkpt>
      <trkpt lat="45.6977" lon="3.13658">
        <ele>410.070007</ele>
        <time>2012-01-12T10:46:06Z</time>
      </trkpt>
      <trkpt lat="45.69763" lon="3.13672">
        <ele>410.347504</ele>
        <time>2012-01-12T10:46:10Z</time>
      </trkpt>
      <trkpt lat="45.69759" lon="3.13688">
        <ele>410.418182</ele>
        <time>2012-01-12T10:46:14Z</time>
      </trkpt>
      <trkpt lat="45.69755" lon="3.13703">
        <ele>410.351929</ele>
        <time>2012-01-12T10:46:18Z</time>
      </trkpt>
      <trkpt lat="45.69754" lon="3.13719">
        <ele>409.864838</ele>
        <time>2012-01-12T10:46:22Z</time>
      </trkpt>
      <trkpt lat="45.69751" lon="3.13733">
        <ele>409.585327</ele>
        <time>2012-01-12T10:46:26Z</time>
      </trkpt>
      <trkpt lat="45.69747" lon="3.13748">
        <ele>409.304504</ele>
        <time>2012-01-12T10:46:30Z</time>
      </trkpt>
      <trkpt lat="45.69744" lon="3.13763">
        <ele>409.056396</ele>
        <time>2012-01-12T10:46:35Z</time>
      </trkpt>
      <trkpt lat="45.69741" lon="3.13777">
        <ele>408.66687</ele>
        <time>2012-01-12T10:46:39Z</time>
      </trkpt>
      <trkpt lat="45.69737" lon="3.13791">
        <ele>408.631012</ele>
        <time>2012-01-12T10:46:43Z</time>
      </trkpt>
      <trkpt lat="45.69732" lon="3.13805">
        <ele>408.541809</ele>
        <time>2012-01-12T10:46:47Z</time>
      </trkpt>
      <trkpt lat="45.69725" lon="3.13818">
        <ele>408.705505</ele>
        <time>2012-01-12T10:46:51Z</time>
      </trkpt>
      <trkpt lat="45.6972" lon="3.13831">
        <ele>408.757141</ele>
        <time>2012-01-12T10:46:55Z</time>
      </trkpt>
      <trkpt lat="45.69714" lon="3.13844">
        <ele>408.897156</ele>
        <time>2012-01-12T10:46:59Z</time>
      </trkpt>
      <trkpt lat="45.69708" lon="3.13856">
        <ele>409.11142</ele>
        <time>2012-01-12T10:47:03Z</time>
      </trkpt>
      <trkpt lat="45.69703" lon="3.13868">
        <ele>409.353455</ele>
        <time>2012-01-12T10:47:07Z</time>
      </trkpt>
      <trkpt lat="45.69697" lon="3.13882">
        <ele>409.525635</ele>
        <time>2012-01-12T10:47:11Z</time>
      </trkpt>
      <trkpt lat="45.69693" lon="3.13896">
        <ele>409.470764</ele>
        <time>2012-01-12T10:47:15Z</time>
      </trkpt>
      <trkpt lat="45.69689" lon="3.13912">
        <ele>409.310364</ele>
        <time>2012-01-12T10:47:19Z</time>
      </trkpt>
      <trkpt lat="45.69686" lon="3.13929">
        <ele>409.008575</ele>
        <time>2012-01-12T10:47:23Z</time>
      </trkpt>
      <trkpt lat="45.69683" lon="3.13941">
        <ele>408.940002</ele>
        <time>2012-01-12T10:47:26Z</time>
      </trkpt>
      <trkpt lat="45.69679" lon="3.13956">
        <ele>408.80249</ele>
        <time>2012-01-12T10:47:30Z</time>
      </trkpt>
      <trkpt lat="45.69676" lon="3.13973">
        <ele>408.565002</ele>
        <time>2012-01-12T10:47:34Z</time>
      </trkpt>
      <trkpt lat="45.69673" lon="3.1399">
        <ele>408.137512</ele>
        <time>2012-01-12T10:47:38Z</time>
      </trkpt>
      <trkpt lat="45.69672" lon="3.14006">
        <ele>407.557495</ele>
        <time>2012-01-12T10:47:42Z</time>
      </trkpt>
      <trkpt lat="45.69671" lon="3.14022">
        <ele>406.893738</ele>
        <time>2012-01-12T10:47:46Z</time>
      </trkpt>
      <trkpt lat="45.6967" lon="3.14038">
        <ele>406.327484</ele>
        <time>2012-01-12T10:47:50Z</time>
      </trkpt>
      <trkpt lat="45.69666" lon="3.14052">
        <ele>406.262482</ele>
        <time>2012-01-12T10:47:54Z</time>
      </trkpt>
      <trkpt lat="45.6966" lon="3.14064">
        <ele>406.650177</ele>
        <time>2012-01-12T10:47:58Z</time>
      </trkpt>
      <trkpt lat="45.69653" lon="3.14078">
        <ele>406.989594</ele>
        <time>2012-01-12T10:48:02Z</time>
      </trkpt>
      <trkpt lat="45.69647" lon="3.14091">
        <ele>407.316254</ele>
        <time>2012-01-12T10:48:06Z</time>
      </trkpt>
      <trkpt lat="45.69644" lon="3.14104">
        <ele>407.232513</ele>
        <time>2012-01-12T10:48:10Z</time>
      </trkpt>
      <trkpt lat="45.6964" lon="3.14119">
        <ele>407.111237</ele>
        <time>2012-01-12T10:48:14Z</time>
      </trkpt>
      <trkpt lat="45.69634" lon="3.14131">
        <ele>407.588745</ele>
        <time>2012-01-12T10:48:18Z</time>
      </trkpt>
      <trkpt lat="45.69627" lon="3.14142">
        <ele>408.194183</ele>
        <time>2012-01-12T10:48:22Z</time>
      </trkpt>
      <trkpt lat="45.69621" lon="3.14154">
        <ele>408.653381</ele>
        <time>2012-01-12T10:48:26Z</time>
      </trkpt>
      <trkpt lat="45.69618" lon="3.14168">
        <ele>408.679199</ele>
        <time>2012-01-12T10:48:30Z</time>
      </trkpt>
      <trkpt lat="45.69616" lon="3.14182">
        <ele>408.627289</ele>
        <time>2012-01-12T10:48:34Z</time>
      </trkpt>
      <trkpt lat="45.69616" lon="3.14195">
        <ele>408.103638</ele>
        <time>2012-01-12T10:48:42Z</time>
      </trkpt>
      <trkpt lat="45.69625" lon="3.142">
        <ele>406.429993</ele>
        <time>2012-01-12T10:48:51Z</time>
      </trkpt>
      <trkpt lat="45.69635" lon="3.14203">
        <ele>404.637756</ele>
        <time>2012-01-12T10:48:59Z</time>
      </trkpt>
      <trkpt lat="45.69645" lon="3.14205">
        <ele>402.883392</ele>
        <time>2012-01-12T10:49:07Z</time>
      </trkpt>
      <trkpt lat="45.69655" lon="3.14205">
        <ele>401.392609</ele>
        <time>2012-01-12T10:49:15Z</time>
      </trkpt>
      <trkpt lat="45.69664" lon="3.14203">
        <ele>400.335022</ele>
        <time>2012-01-12T10:49:23Z</time>
      </trkpt>
      <trkpt lat="45.69675" lon="3.14202">
        <ele>399.102478</ele>
        <time>2012-01-12T10:49:31Z</time>
      </trkpt>
      <trkpt lat="45.69686" lon="3.14205">
        <ele>397.775635</ele>
        <time>2012-01-12T10:49:39Z</time>
      </trkpt>
      <trkpt lat="45.69695" lon="3.14211">
        <ele>396.48822</ele>
        <time>2012-01-12T10:49:45Z</time>
      </trkpt>
      <trkpt lat="45.69704" lon="3.14217">
        <ele>395.583313</ele>
        <time>2012-01-12T10:49:49Z</time>
      </trkpt>
      <trkpt lat="45.69712" lon="3.14232">
        <ele>394.44809</ele>
        <time>2012-01-12T10:49:53Z</time>
      </trkpt>
      <trkpt lat="45.69712" lon="3.14247">
        <ele>393.764252</ele>
        <time>2012-01-12T10:49:56Z</time>
      </trkpt>
      <trkpt lat="45.69712" lon="3.14265">
        <ele>392.996246</ele>
        <time>2012-01-12T10:50:00Z</time>
      </trkpt>
      <trkpt lat="45.69711" lon="3.14281">
        <ele>392.35376</ele>
        <time>2012-01-12T10:50:04Z</time>
      </trkpt>
      <trkpt lat="45.69707" lon="3.14296">
        <ele>391.92749</ele>
        <time>2012-01-12T10:50:08Z</time>
      </trkpt>
      <trkpt lat="45.69703" lon="3.1431">
        <ele>391.591248</ele>
        <time>2012-01-12T10:50:12Z</time>
      </trkpt>
      <trkpt lat="45.69699" lon="3.14324">
        <ele>391.443268</ele>
        <time>2012-01-12T10:50:16Z</time>
      </trkpt>
      <trkpt lat="45.69696" lon="3.14338">
        <ele>391.303162</ele>
        <time>2012-01-12T10:50:20Z</time>
      </trkpt>
      <trkpt lat="45.69694" lon="3.14352">
        <ele>391.119354</ele>
        <time>2012-01-12T10:50:24Z</time>
      </trkpt>
      <trkpt lat="45.69694" lon="3.14368">
        <ele>390.594574</ele>
        <time>2012-01-12T10:50:28Z</time>
      </trkpt>
      <trkpt lat="45.69693" lon="3.14384">
        <ele>390.302124</ele>
        <time>2012-01-12T10:50:32Z</time>
      </trkpt>
      <trkpt lat="45.69695" lon="3.14403">
        <ele>389.740051</ele>
        <time>2012-01-12T10:50:36Z</time>
      </trkpt>
      <trkpt lat="45.69697" lon="3.14418">
        <ele>389.356079</ele>
        <time>2012-01-12T10:50:39Z</time>
      </trkpt>
      <trkpt lat="45.69698" lon="3.14432">
        <ele>389.11496</ele>
        <time>2012-01-12T10:50:42Z</time>
      </trkpt>
      <trkpt lat="45.69698" lon="3.14449">
        <ele>388.850769</ele>
        <time>2012-01-12T10:50:46Z</time>
      </trkpt>
      <trkpt lat="45.69698" lon="3.14465">
        <ele>388.617798</ele>
        <time>2012-01-12T10:50:50Z</time>
      </trkpt>
      <trkpt lat="45.69696" lon="3.14481">
        <ele>388.403015</ele>
        <time>2012-01-12T10:50:54Z</time>
      </trkpt>
      <trkpt lat="45.69694" lon="3.14495">
        <ele>388.306519</ele>
        <time>2012-01-12T10:50:58Z</time>
      </trkpt>
      <trkpt lat="45.69692" lon="3.14508">
        <ele>388.229126</ele>
        <time>2012-01-12T10:51:02Z</time>
      </trkpt>
      <trkpt lat="45.69694" lon="3.14521">
        <ele>388.05661</ele>
        <time>2012-01-12T10:51:06Z</time>
      </trkpt>
      <trkpt lat="45.69697" lon="3.14536">
        <ele>388</ele>
        <time>2012-01-12T10:51:10Z</time>
      </trkpt>
      <trkpt lat="45.697" lon="3.1455">
        <ele>388</ele>
        <time>2012-01-12T10:51:15Z</time>
      </trkpt>
      <trkpt lat="45.69702" lon="3.14566">
        <ele>388</ele>
        <time>2012-01-12T10:51:20Z</time>
      </trkpt>
      <trkpt lat="45.69702" lon="3.14581">
        <ele>388</ele>
        <time>2012-01-12T10:51:24Z</time>
      </trkpt>
      <trkpt lat="45.69699" lon="3.14594">
        <ele>388</ele>
        <time>2012-01-12T10:51:28Z</time>
      </trkpt>
      <trkpt lat="45.69697" lon="3.14608">
        <ele>388</ele>
        <time>2012-01-12T10:51:32Z</time>
      </trkpt>
      <trkpt lat="45.69696" lon="3.14621">
        <ele>388</ele>
        <time>2012-01-12T10:51:36Z</time>
      </trkpt>
      <trkpt lat="45.69695" lon="3.14634">
        <ele>388</ele>
        <time>2012-01-12T10:51:40Z</time>
      </trkpt>
      <trkpt lat="45.69696" lon="3.14648">
        <ele>387.990692</ele>
        <time>2012-01-12T10:51:44Z</time>
      </trkpt>
      <trkpt lat="45.69695" lon="3.14664">
        <ele>387.993378</ele>
        <time>2012-01-12T10:51:48Z</time>
      </trkpt>
      <trkpt lat="45.69693" lon="3.1468">
        <ele>388.003876</ele>
        <time>2012-01-12T10:51:52Z</time>
      </trkpt>
      <trkpt lat="45.69691" lon="3.14694">
        <ele>388.004608</ele>
        <time>2012-01-12T10:51:56Z</time>
      </trkpt>
      <trkpt lat="45.69688" lon="3.14708">
        <ele>387.904449</ele>
        <time>2012-01-12T10:52:00Z</time>
      </trkpt>
      <trkpt lat="45.69685" lon="3.14721">
        <ele>387.79184</ele>
        <time>2012-01-12T10:52:04Z</time>
      </trkpt>
      <trkpt lat="45.69682" lon="3.14735">
        <ele>387.731445</ele>
        <time>2012-01-12T10:52:08Z</time>
      </trkpt>
      <trkpt lat="45.69678" lon="3.14747">
        <ele>387.766907</ele>
        <time>2012-01-12T10:52:12Z</time>
      </trkpt>
      <trkpt lat="45.69675" lon="3.1476">
        <ele>387.838928</ele>
        <time>2012-01-12T10:52:16Z</time>
      </trkpt>
      <trkpt lat="45.69672" lon="3.14774">
        <ele>387.865967</ele>
        <time>2012-01-12T10:52:20Z</time>
      </trkpt>
      <trkpt lat="45.69671" lon="3.14789">
        <ele>387.797485</ele>
        <time>2012-01-12T10:52:24Z</time>
      </trkpt>
      <trkpt lat="45.69671" lon="3.148">
        <ele>387.685791</ele>
        <time>2012-01-12T10:52:29Z</time>
      </trkpt>
      <trkpt lat="45.69673" lon="3.14825">
        <ele>387.456207</ele>
        <time>2012-01-12T10:52:40Z</time>
      </trkpt>
      <trkpt lat="45.69666" lon="3.14843">
        <ele>387.077759</ele>
        <time>2012-01-12T10:52:44Z</time>
      </trkpt>
      <trkpt lat="45.69657" lon="3.14852">
        <ele>386.795563</ele>
        <time>2012-01-12T10:52:48Z</time>
      </trkpt>
      <trkpt lat="45.69648" lon="3.14858">
        <ele>386.567383</ele>
        <time>2012-01-12T10:52:52Z</time>
      </trkpt>
      <trkpt lat="45.69638" lon="3.14864">
        <ele>385.921173</ele>
        <time>2012-01-12T10:52:56Z</time>
      </trkpt>
      <trkpt lat="45.69629" lon="3.1487">
        <ele>385.191742</ele>
        <time>2012-01-12T10:53:01Z</time>
      </trkpt>
      <trkpt lat="45.69617" lon="3.14875">
        <ele>384.273804</ele>
        <time>2012-01-12T10:53:06Z</time>
      </trkpt>
      <trkpt lat="45.69606" lon="3.14882">
        <ele>383.019073</ele>
        <time>2012-01-12T10:53:11Z</time>
      </trkpt>
      <trkpt lat="45.69596" lon="3.14886">
        <ele>382.589996</ele>
        <time>2012-01-12T10:53:16Z</time>
      </trkpt>
      <trkpt lat="45.69583" lon="3.14891">
        <ele>382.411835</ele>
        <time>2012-01-12T10:53:23Z</time>
      </trkpt>
      <trkpt lat="45.6957" lon="3.14896">
        <ele>382.410187</ele>
        <time>2012-01-12T10:53:28Z</time>
      </trkpt>
      <trkpt lat="45.69558" lon="3.14899">
        <ele>382.407196</ele>
        <time>2012-01-12T10:53:33Z</time>
      </trkpt>
      <trkpt lat="45.69547" lon="3.14902">
        <ele>382.454987</ele>
        <time>2012-01-12T10:53:38Z</time>
      </trkpt>
      <trkpt lat="45.69535" lon="3.14907">
        <ele>382.402496</ele>
        <time>2012-01-12T10:53:43Z</time>
      </trkpt>
      <trkpt lat="45.69523" lon="3.14916">
        <ele>382.132507</ele>
        <time>2012-01-12T10:53:48Z</time>
      </trkpt>
      <trkpt lat="45.69514" lon="3.14925">
        <ele>381.737518</ele>
        <time>2012-01-12T10:53:52Z</time>
      </trkpt>
      <trkpt lat="45.69506" lon="3.14935">
        <ele>381.374451</ele>
        <time>2012-01-12T10:53:56Z</time>
      </trkpt>
      <trkpt lat="45.69498" lon="3.14947">
        <ele>380.783997</ele>
        <time>2012-01-12T10:54:00Z</time>
      </trkpt>
      <trkpt lat="45.69491" lon="3.14956">
        <ele>380.380005</ele>
        <time>2012-01-12T10:54:03Z</time>
      </trkpt>
      <trkpt lat="45.69481" lon="3.14968">
        <ele>380.225006</ele>
        <time>2012-01-12T10:54:07Z</time>
      </trkpt>
      <trkpt lat="45.69471" lon="3.14979">
        <ele>380.084991</ele>
        <time>2012-01-12T10:54:11Z</time>
      </trkpt>
      <trkpt lat="45.69461" lon="3.14991">
        <ele>379.975098</ele>
        <time>2012-01-12T10:54:14Z</time>
      </trkpt>
      <trkpt lat="45.69452" lon="3.15002">
        <ele>379.877197</ele>
        <time>2012-01-12T10:54:16Z</time>
      </trkpt>
      <trkpt lat="45.69442" lon="3.15014">
        <ele>379.683319</ele>
        <time>2012-01-12T10:54:18Z</time>
      </trkpt>
      <trkpt lat="45.69431" lon="3.15026">
        <ele>379.653748</ele>
        <time>2012-01-12T10:54:20Z</time>
      </trkpt>
      <trkpt lat="45.6942" lon="3.15038">
        <ele>379.681976</ele>
        <time>2012-01-12T10:54:22Z</time>
      </trkpt>
      <trkpt lat="45.6941" lon="3.15049">
        <ele>379.486786</ele>
        <time>2012-01-12T10:54:24Z</time>
      </trkpt>
      <trkpt lat="45.694" lon="3.1506">
        <ele>379.162262</ele>
        <time>2012-01-12T10:54:26Z</time>
      </trkpt>
      <trkpt lat="45.69392" lon="3.15072">
        <ele>378.658661</ele>
        <time>2012-01-12T10:54:28Z</time>
      </trkpt>
      <trkpt lat="45.69383" lon="3.15084">
        <ele>378.144104</ele>
        <time>2012-01-12T10:54:30Z</time>
      </trkpt>
      <trkpt lat="45.69373" lon="3.15096">
        <ele>377.945007</ele>
        <time>2012-01-12T10:54:32Z</time>
      </trkpt>
      <trkpt lat="45.69364" lon="3.15108">
        <ele>377.734985</ele>
        <time>2012-01-12T10:54:34Z</time>
      </trkpt>
      <trkpt lat="45.69355" lon="3.15119">
        <ele>377.529999</ele>
        <time>2012-01-12T10:54:36Z</time>
      </trkpt>
      <trkpt lat="45.69346" lon="3.1513">
        <ele>377.329987</ele>
        <time>2012-01-12T10:54:38Z</time>
      </trkpt>
      <trkpt lat="45.69336" lon="3.15141">
        <ele>377.130005</ele>
        <time>2012-01-12T10:54:40Z</time>
      </trkpt>
      <trkpt lat="45.69328" lon="3.15153">
        <ele>377.141235</ele>
        <time>2012-01-12T10:54:42Z</time>
      </trkpt>
      <trkpt lat="45.69319" lon="3.15165">
        <ele>377.338745</ele>
        <time>2012-01-12T10:54:44Z</time>
      </trkpt>
      <trkpt lat="45.6931" lon="3.15178">
        <ele>377.54126</ele>
        <time>2012-01-12T10:54:46Z</time>
      </trkpt>
      <trkpt lat="45.69302" lon="3.1519">
        <ele>377.734985</ele>
        <time>2012-01-12T10:54:48Z</time>
      </trkpt>
      <trkpt lat="45.69293" lon="3.15203">
        <ele>377.933746</ele>
        <time>2012-01-12T10:54:50Z</time>
      </trkpt>
      <trkpt lat="45.69286" lon="3.15216">
        <ele>378</ele>
        <time>2012-01-12T10:54:52Z</time>
      </trkpt>
      <trkpt lat="45.69278" lon="3.15228">
        <ele>378</ele>
        <time>2012-01-12T10:54:54Z</time>
      </trkpt>
      <trkpt lat="45.6927" lon="3.15239">
        <ele>378</ele>
        <time>2012-01-12T10:54:56Z</time>
      </trkpt>
      <trkpt lat="45.69261" lon="3.15249">
        <ele>378</ele>
        <time>2012-01-12T10:54:58Z</time>
      </trkpt>
      <trkpt lat="45.69253" lon="3.1526">
        <ele>378</ele>
        <time>2012-01-12T10:55:00Z</time>
      </trkpt>
      <trkpt lat="45.69245" lon="3.15271">
        <ele>378</ele>
        <time>2012-01-12T10:55:02Z</time>
      </trkpt>
      <trkpt lat="45.69238" lon="3.15282">
        <ele>378</ele>
        <time>2012-01-12T10:55:04Z</time>
      </trkpt>
      <trkpt lat="45.69231" lon="3.15294">
        <ele>378</ele>
        <time>2012-01-12T10:55:06Z</time>
      </trkpt>
      <trkpt lat="45.69223" lon="3.15305">
        <ele>378</ele>
        <time>2012-01-12T10:55:08Z</time>
      </trkpt>
      <trkpt lat="45.69216" lon="3.15316">
        <ele>378</ele>
        <time>2012-01-12T10:55:10Z</time>
      </trkpt>
      <trkpt lat="45.6921" lon="3.15328">
        <ele>378</ele>
        <time>2012-01-12T10:55:12Z</time>
      </trkpt>
      <trkpt lat="45.69203" lon="3.15339">
        <ele>378</ele>
        <time>2012-01-12T10:55:14Z</time>
      </trkpt>
      <trkpt lat="45.69196" lon="3.15352">
        <ele>378</ele>
        <time>2012-01-12T10:55:16Z</time>
      </trkpt>
      <trkpt lat="45.69192" lon="3.15365">
        <ele>378.05249</ele>
        <time>2012-01-12T10:55:18Z</time>
      </trkpt>
      <trkpt lat="45.69189" lon="3.15379">
        <ele>378.112488</ele>
        <time>2012-01-12T10:55:20Z</time>
      </trkpt>
      <trkpt lat="45.69187" lon="3.15394">
        <ele>378.140015</ele>
        <time>2012-01-12T10:55:22Z</time>
      </trkpt>
      <trkpt lat="45.69187" lon="3.15408">
        <ele>378.160004</ele>
        <time>2012-01-12T10:55:24Z</time>
      </trkpt>
      <trkpt lat="45.69187" lon="3.15423">
        <ele>378.137512</ele>
        <time>2012-01-12T10:55:26Z</time>
      </trkpt>
      <trkpt lat="45.6919" lon="3.15436">
        <ele>378.075012</ele>
        <time>2012-01-12T10:55:28Z</time>
      </trkpt>
      <trkpt lat="45.69194" lon="3.1545">
        <ele>378</ele>
        <time>2012-01-12T10:55:30Z</time>
      </trkpt>
      <trkpt lat="45.69197" lon="3.15462">
        <ele>378</ele>
        <time>2012-01-12T10:55:32Z</time>
      </trkpt>
      <trkpt lat="45.69201" lon="3.15475">
        <ele>377.965668</ele>
        <time>2012-01-12T10:55:34Z</time>
      </trkpt>
      <trkpt lat="45.69205" lon="3.15489">
        <ele>377.889313</ele>
        <time>2012-01-12T10:55:36Z</time>
      </trkpt>
      <trkpt lat="45.6921" lon="3.15502">
        <ele>377.764862</ele>
        <time>2012-01-12T10:55:38Z</time>
      </trkpt>
      <trkpt lat="45.69215" lon="3.15515">
        <ele>377.597595</ele>
        <time>2012-01-12T10:55:40Z</time>
      </trkpt>
      <trkpt lat="45.6922" lon="3.15528">
        <ele>377.404999</ele>
        <time>2012-01-12T10:55:42Z</time>
      </trkpt>
      <trkpt lat="45.69224" lon="3.15541">
        <ele>377.309998</ele>
        <time>2012-01-12T10:55:44Z</time>
      </trkpt>
      <trkpt lat="45.69227" lon="3.15555">
        <ele>377.230011</ele>
        <time>2012-01-12T10:55:46Z</time>
      </trkpt>
      <trkpt lat="45.69232" lon="3.15568">
        <ele>377.132507</ele>
        <time>2012-01-12T10:55:48Z</time>
      </trkpt>
      <trkpt lat="45.69236" lon="3.15581">
        <ele>377.032501</ele>
        <time>2012-01-12T10:55:50Z</time>
      </trkpt>
      <trkpt lat="45.69241" lon="3.15594">
        <ele>376.922485</ele>
        <time>2012-01-12T10:55:52Z</time>
      </trkpt>
      <trkpt lat="45.69245" lon="3.15607">
        <ele>376.825012</ele>
        <time>2012-01-12T10:55:54Z</time>
      </trkpt>
      <trkpt lat="45.6925" lon="3.15621">
        <ele>376.722504</ele>
        <time>2012-01-12T10:55:57Z</time>
      </trkpt>
      <trkpt lat="45.69254" lon="3.15634">
        <ele>376.612488</ele>
        <time>2012-01-12T10:56:01Z</time>
      </trkpt>
      <trkpt lat="45.69258" lon="3.15646">
        <ele>376.522491</ele>
        <time>2012-01-12T10:56:05Z</time>
      </trkpt>
      <trkpt lat="45.69263" lon="3.15661">
        <ele>376.422485</ele>
        <time>2012-01-12T10:56:10Z</time>
      </trkpt>
      <trkpt lat="45.69264" lon="3.15673">
        <ele>376.397491</ele>
        <time>2012-01-12T10:56:14Z</time>
      </trkpt>
      <trkpt lat="45.6926" lon="3.15684">
        <ele>376.477509</ele>
        <time>2012-01-12T10:56:18Z</time>
      </trkpt>
      <trkpt lat="45.69248" lon="3.15691">
        <ele>376.742493</ele>
        <time>2012-01-12T10:56:24Z</time>
      </trkpt>
      <trkpt lat="45.69237" lon="3.15697">
        <ele>376.987488</ele>
        <time>2012-01-12T10:56:29Z</time>
      </trkpt>
      <trkpt lat="45.69228" lon="3.15703">
        <ele>377.316864</ele>
        <time>2012-01-12T10:56:33Z</time>
      </trkpt>
      <trkpt lat="45.69218" lon="3.15708">
        <ele>377.752808</ele>
        <time>2012-01-12T10:56:38Z</time>
      </trkpt>
      <trkpt lat="45.69209" lon="3.15713">
        <ele>378.149506</ele>
        <time>2012-01-12T10:56:42Z</time>
      </trkpt>
      <trkpt lat="45.69199" lon="3.15719">
        <ele>378.654999</ele>
        <time>2012-01-12T10:56:47Z</time>
      </trkpt>
      <trkpt lat="45.69189" lon="3.15725">
        <ele>379.14682</ele>
        <time>2012-01-12T10:56:52Z</time>
      </trkpt>
      <trkpt lat="45.6918" lon="3.15731">
        <ele>379.835724</ele>
        <time>2012-01-12T10:56:57Z</time>
      </trkpt>
      <trkpt lat="45.6917" lon="3.15736">
        <ele>380.536896</ele>
        <time>2012-01-12T10:57:02Z</time>
      </trkpt>
      <trkpt lat="45.69161" lon="3.15742">
        <ele>381.247864</ele>
        <time>2012-01-12T10:57:07Z</time>
      </trkpt>
      <trkpt lat="45.69152" lon="3.15747">
        <ele>381.989624</ele>
        <time>2012-01-12T10:57:12Z</time>
      </trkpt>
      <trkpt lat="45.69144" lon="3.15753">
        <ele>382.772491</ele>
        <time>2012-01-12T10:57:17Z</time>
      </trkpt>
      <trkpt lat="45.69135" lon="3.15758">
        <ele>383.609985</ele>
        <time>2012-01-12T10:57:22Z</time>
      </trkpt>
      <trkpt lat="45.69126" lon="3.1576">
        <ele>384.442505</ele>
        <time>2012-01-12T10:57:27Z</time>
      </trkpt>
      <trkpt lat="45.69117" lon="3.15761">
        <ele>385.276245</ele>
        <time>2012-01-12T10:57:32Z</time>
      </trkpt>
      <trkpt lat="45.69107" lon="3.1576">
        <ele>386.122498</ele>
        <time>2012-01-12T10:57:37Z</time>
      </trkpt>
      <trkpt lat="45.69097" lon="3.15759">
        <ele>387.017456</ele>
        <time>2012-01-12T10:57:41Z</time>
      </trkpt>
      <trkpt lat="45.69086" lon="3.15757">
        <ele>388.063721</ele>
        <time>2012-01-12T10:57:45Z</time>
      </trkpt>
      <trkpt lat="45.69075" lon="3.15756">
        <ele>389.131592</ele>
        <time>2012-01-12T10:57:49Z</time>
      </trkpt>
      <trkpt lat="45.69065" lon="3.15756">
        <ele>390.130005</ele>
        <time>2012-01-12T10:57:53Z</time>
      </trkpt>
      <trkpt lat="45.69056" lon="3.15755">
        <ele>391.029999</ele>
        <time>2012-01-12T10:57:57Z</time>
      </trkpt>
      <trkpt lat="45.69046" lon="3.15754">
        <ele>391.880005</ele>
        <time>2012-01-12T10:58:01Z</time>
      </trkpt>
      <trkpt lat="45.69036" lon="3.15753">
        <ele>392.809998</ele>
        <time>2012-01-12T10:58:05Z</time>
      </trkpt>
      <trkpt lat="45.69026" lon="3.15753">
        <ele>393.670013</ele>
        <time>2012-01-12T10:58:09Z</time>
      </trkpt>
      <trkpt lat="45.69016" lon="3.15752">
        <ele>394.570007</ele>
        <time>2012-01-12T10:58:13Z</time>
      </trkpt>
      <trkpt lat="45.69006" lon="3.15752">
        <ele>395.600006</ele>
        <time>2012-01-12T10:58:17Z</time>
      </trkpt>
      <trkpt lat="45.68996" lon="3.15751">
        <ele>396.649994</ele>
        <time>2012-01-12T10:58:21Z</time>
      </trkpt>
      <trkpt lat="45.68987" lon="3.15751">
        <ele>397.75</ele>
        <time>2012-01-12T10:58:25Z</time>
      </trkpt>
      <trkpt lat="45.68977" lon="3.1575">
        <ele>398.799988</ele>
        <time>2012-01-12T10:58:29Z</time>
      </trkpt>
      <trkpt lat="45.68966" lon="3.1575">
        <ele>400</ele>
        <time>2012-01-12T10:58:34Z</time>
      </trkpt>
      <trkpt lat="45.68957" lon="3.15749">
        <ele>401.214996</ele>
        <time>2012-01-12T10:58:38Z</time>
      </trkpt>
      <trkpt lat="45.68946" lon="3.15748">
        <ele>402.670013</ele>
        <time>2012-01-12T10:58:43Z</time>
      </trkpt>
      <trkpt lat="45.68936" lon="3.15749">
        <ele>403.975006</ele>
        <time>2012-01-12T10:58:48Z</time>
      </trkpt>
      <trkpt lat="45.68927" lon="3.15748">
        <ele>405.220001</ele>
        <time>2012-01-12T10:58:52Z</time>
      </trkpt>
      <trkpt lat="45.68918" lon="3.15748">
        <ele>406.657684</ele>
        <time>2012-01-12T10:58:56Z</time>
      </trkpt>
      <trkpt lat="45.68909" lon="3.15748">
        <ele>408.417145</ele>
        <time>2012-01-12T10:59:05Z</time>
      </trkpt>
      <trkpt lat="45.68899" lon="3.15749">
        <ele>410.15213</ele>
        <time>2012-01-12T10:59:15Z</time>
      </trkpt>
      <trkpt lat="45.6889" lon="3.15748">
        <ele>411.911316</ele>
        <time>2012-01-12T10:59:25Z</time>
      </trkpt>
      <trkpt lat="45.6888" lon="3.15748">
        <ele>413.778107</ele>
        <time>2012-01-12T10:59:35Z</time>
      </trkpt>
      <trkpt lat="45.6887" lon="3.15748">
        <ele>415.626221</ele>
        <time>2012-01-12T10:59:46Z</time>
      </trkpt>
      <trkpt lat="45.68861" lon="3.15747">
        <ele>417.43692</ele>
        <time>2012-01-12T10:59:56Z</time>
      </trkpt>
      <trkpt lat="45.68851" lon="3.15747">
        <ele>419.311981</ele>
        <time>2012-01-12T11:00:07Z</time>
      </trkpt>
      <trkpt lat="45.68841" lon="3.15746">
        <ele>421.094147</ele>
        <time>2012-01-12T11:00:17Z</time>
      </trkpt>
      <trkpt lat="45.68832" lon="3.15747">
        <ele>422.845215</ele>
        <time>2012-01-12T11:00:28Z</time>
      </trkpt>
      <trkpt lat="45.68823" lon="3.15748">
        <ele>424.454987</ele>
        <time>2012-01-12T11:00:38Z</time>
      </trkpt>
      <trkpt lat="45.68812" lon="3.1575">
        <ele>426.272491</ele>
        <time>2012-01-12T11:00:45Z</time>
      </trkpt>
      <trkpt lat="45.68802" lon="3.15751">
        <ele>427.962494</ele>
        <time>2012-01-12T11:00:48Z</time>
      </trkpt>
      <trkpt lat="45.68793" lon="3.15753">
        <ele>429.595001</ele>
        <time>2012-01-12T11:00:51Z</time>
      </trkpt>
      <trkpt lat="45.68781" lon="3.15753">
        <ele>431.554413</ele>
        <time>2012-01-12T11:00:55Z</time>
      </trkpt>
      <trkpt lat="45.68772" lon="3.15754">
        <ele>432.840607</ele>
        <time>2012-01-12T11:00:58Z</time>
      </trkpt>
      <trkpt lat="45.68762" lon="3.15758">
        <ele>434.214355</ele>
        <time>2012-01-12T11:01:04Z</time>
      </trkpt>
      <trkpt lat="45.68753" lon="3.1576">
        <ele>435.520203</ele>
        <time>2012-01-12T11:01:11Z</time>
      </trkpt>
      <trkpt lat="45.68744" lon="3.15761">
        <ele>436.894318</ele>
        <time>2012-01-12T11:01:20Z</time>
      </trkpt>
      <trkpt lat="45.68734" lon="3.15762">
        <ele>438.329987</ele>
        <time>2012-01-12T11:01:29Z</time>
      </trkpt>
      <trkpt lat="45.68725" lon="3.15763">
        <ele>439.725006</ele>
        <time>2012-01-12T11:01:38Z</time>
      </trkpt>
      <trkpt lat="45.68715" lon="3.15764">
        <ele>441.297485</ele>
        <time>2012-01-12T11:01:48Z</time>
      </trkpt>
      <trkpt lat="45.68705" lon="3.15765">
        <ele>442.80249</ele>
        <time>2012-01-12T11:01:58Z</time>
      </trkpt>
      <trkpt lat="45.68696" lon="3.15766">
        <ele>444.238739</ele>
        <time>2012-01-12T11:02:08Z</time>
      </trkpt>
      <trkpt lat="45.68687" lon="3.15768">
        <ele>445.632507</ele>
        <time>2012-01-12T11:02:13Z</time>
      </trkpt>
      <trkpt lat="45.68677" lon="3.15769">
        <ele>447.080017</ele>
        <time>2012-01-12T11:02:17Z</time>
      </trkpt>
      <trkpt lat="45.68668" lon="3.15769">
        <ele>448.48999</ele>
        <time>2012-01-12T11:02:21Z</time>
      </trkpt>
      <trkpt lat="45.68659" lon="3.1577">
        <ele>449.913757</ele>
        <time>2012-01-12T11:02:25Z</time>
      </trkpt>
      <trkpt lat="45.6865" lon="3.15769">
        <ele>451.278748</ele>
        <time>2012-01-12T11:02:30Z</time>
      </trkpt>
      <trkpt lat="45.6865" lon="3.15755">
        <ele>451.475006</ele>
        <time>2012-01-12T11:02:36Z</time>
      </trkpt>
      <trkpt lat="45.68651" lon="3.1574">
        <ele>451.575012</ele>
        <time>2012-01-12T11:02:41Z</time>
      </trkpt>
      <trkpt lat="45.6865" lon="3.15725">
        <ele>452.011261</ele>
        <time>2012-01-12T11:02:45Z</time>
      </trkpt>
      <trkpt lat="45.68649" lon="3.15712">
        <ele>452.394989</ele>
        <time>2012-01-12T11:02:49Z</time>
      </trkpt>
      <trkpt lat="45.68647" lon="3.15697">
        <ele>452.682495</ele>
        <time>2012-01-12T11:02:53Z</time>
      </trkpt>
      <trkpt lat="45.68645" lon="3.15681">
        <ele>453.119995</ele>
        <time>2012-01-12T11:02:57Z</time>
      </trkpt>
      <trkpt lat="45.68642" lon="3.15666">
        <ele>453.522491</ele>
        <time>2012-01-12T11:03:01Z</time>
      </trkpt>
      <trkpt lat="45.68639" lon="3.15652">
        <ele>453.959991</ele>
        <time>2012-01-12T11:03:05Z</time>
      </trkpt>
      <trkpt lat="45.68637" lon="3.1564">
        <ele>454.285004</ele>
        <time>2012-01-12T11:03:09Z</time>
      </trkpt>
      <trkpt lat="45.68634" lon="3.15626">
        <ele>454.558746</ele>
        <time>2012-01-12T11:03:13Z</time>
      </trkpt>
      <trkpt lat="45.6863" lon="3.1561">
        <ele>454.857483</ele>
        <time>2012-01-12T11:03:17Z</time>
      </trkpt>
      <trkpt lat="45.68628" lon="3.15595">
        <ele>454.988739</ele>
        <time>2012-01-12T11:03:21Z</time>
      </trkpt>
      <trkpt lat="45.68625" lon="3.15579">
        <ele>455.25</ele>
        <time>2012-01-12T11:03:25Z</time>
      </trkpt>
      <trkpt lat="45.68622" lon="3.15563">
        <ele>455.481232</ele>
        <time>2012-01-12T11:03:29Z</time>
      </trkpt>
      <trkpt lat="45.6862" lon="3.15552">
        <ele>455.630005</ele>
        <time>2012-01-12T11:03:39Z</time>
      </trkpt>
      <trkpt lat="45.68617" lon="3.15538">
        <ele>455.924988</ele>
        <time>2012-01-12T11:03:45Z</time>
      </trkpt>
      <trkpt lat="45.68614" lon="3.15524">
        <ele>456.096252</ele>
        <time>2012-01-12T11:03:49Z</time>
      </trkpt>
      <trkpt lat="45.68612" lon="3.15512">
        <ele>456.237488</ele>
        <time>2012-01-12T11:03:53Z</time>
      </trkpt>
      <trkpt lat="45.68609" lon="3.15498">
        <ele>456.23999</ele>
        <time>2012-01-12T11:03:57Z</time>
      </trkpt>
      <trkpt lat="45.68606" lon="3.15485">
        <ele>456.303436</ele>
        <time>2012-01-12T11:04:01Z</time>
      </trkpt>
      <trkpt lat="45.68603" lon="3.15473">
        <ele>456.538727</ele>
        <time>2012-01-12T11:04:05Z</time>
      </trkpt>
      <trkpt lat="45.68597" lon="3.15462">
        <ele>457.125092</ele>
        <time>2012-01-12T11:04:09Z</time>
      </trkpt>
      <trkpt lat="45.68587" lon="3.15458">
        <ele>458.453644</ele>
        <time>2012-01-12T11:04:13Z</time>
      </trkpt>
      <trkpt lat="45.68578" lon="3.15459">
        <ele>459.983459</ele>
        <time>2012-01-12T11:04:17Z</time>
      </trkpt>
      <trkpt lat="45.68568" lon="3.15457">
        <ele>461.502045</ele>
        <time>2012-01-12T11:04:22Z</time>
      </trkpt>
      <trkpt lat="45.68562" lon="3.15445">
        <ele>462.129639</ele>
        <time>2012-01-12T11:04:26Z</time>
      </trkpt>
      <trkpt lat="45.68559" lon="3.15431">
        <ele>462.434113</ele>
        <time>2012-01-12T11:04:29Z</time>
      </trkpt>
      <trkpt lat="45.68556" lon="3.15413">
        <ele>462.73642</ele>
        <time>2012-01-12T11:04:32Z</time>
      </trkpt>
      <trkpt lat="45.68553" lon="3.15394">
        <ele>462.877106</ele>
        <time>2012-01-12T11:04:35Z</time>
      </trkpt>
      <trkpt lat="45.6855" lon="3.15376">
        <ele>462.8125</ele>
        <time>2012-01-12T11:04:38Z</time>
      </trkpt>
      <trkpt lat="45.68547" lon="3.15358">
        <ele>462.714996</ele>
        <time>2012-01-12T11:04:41Z</time>
      </trkpt>
      <trkpt lat="45.68545" lon="3.15341">
        <ele>462.547485</ele>
        <time>2012-01-12T11:04:44Z</time>
      </trkpt>
      <trkpt lat="45.68543" lon="3.15324">
        <ele>462.399994</ele>
        <time>2012-01-12T11:04:47Z</time>
      </trkpt>
      <trkpt lat="45.6854" lon="3.15306">
        <ele>462.493744</ele>
        <time>2012-01-12T11:04:50Z</time>
      </trkpt>
      <trkpt lat="45.68538" lon="3.15289">
        <ele>462.660004</ele>
        <time>2012-01-12T11:04:53Z</time>
      </trkpt>
      <trkpt lat="45.68534" lon="3.15272">
        <ele>462.980011</ele>
        <time>2012-01-12T11:04:56Z</time>
      </trkpt>
      <trkpt lat="45.68529" lon="3.1526">
        <ele>463.553741</ele>
        <time>2012-01-12T11:05:00Z</time>
      </trkpt>
      <trkpt lat="45.68521" lon="3.15258">
        <ele>464.79306</ele>
        <time>2012-01-12T11:05:04Z</time>
      </trkpt>
      <trkpt lat="45.68511" lon="3.15258">
        <ele>466.113586</ele>
        <time>2012-01-12T11:05:09Z</time>
      </trkpt>
      <trkpt lat="45.68501" lon="3.15261">
        <ele>467.493744</ele>
        <time>2012-01-12T11:05:14Z</time>
      </trkpt>
      <trkpt lat="45.68492" lon="3.15262">
        <ele>468.741241</ele>
        <time>2012-01-12T11:05:19Z</time>
      </trkpt>
      <trkpt lat="45.68483" lon="3.15263">
        <ele>470.005005</ele>
        <time>2012-01-12T11:05:24Z</time>
      </trkpt>
      <trkpt lat="45.68473" lon="3.15263">
        <ele>471.35376</ele>
        <time>2012-01-12T11:05:29Z</time>
      </trkpt>
      <trkpt lat="45.68462" lon="3.15264">
        <ele>472.748749</ele>
        <time>2012-01-12T11:05:34Z</time>
      </trkpt>
      <trkpt lat="45.68452" lon="3.15266">
        <ele>474.116241</ele>
        <time>2012-01-12T11:05:39Z</time>
      </trkpt>
      <trkpt lat="45.68443" lon="3.15269">
        <ele>475.398743</ele>
        <time>2012-01-12T11:05:44Z</time>
      </trkpt>
      <trkpt lat="45.68434" lon="3.1527">
        <ele>476.671234</ele>
        <time>2012-01-12T11:05:49Z</time>
      </trkpt>
      <trkpt lat="45.68424" lon="3.15273">
        <ele>477.816193</ele>
        <time>2012-01-12T11:05:54Z</time>
      </trkpt>
      <trkpt lat="45.68414" lon="3.15275">
        <ele>478.852631</ele>
        <time>2012-01-12T11:05:58Z</time>
      </trkpt>
      <trkpt lat="45.68404" lon="3.15277">
        <ele>479.94101</ele>
        <time>2012-01-12T11:06:02Z</time>
      </trkpt>
      <trkpt lat="45.68393" lon="3.15275">
        <ele>480.952179</ele>
        <time>2012-01-12T11:06:07Z</time>
      </trkpt>
      <trkpt lat="45.68389" lon="3.15262">
        <ele>480.805664</ele>
        <time>2012-01-12T11:06:12Z</time>
      </trkpt>
      <trkpt lat="45.68386" lon="3.15246">
        <ele>479.583466</ele>
        <time>2012-01-12T11:06:17Z</time>
      </trkpt>
      <trkpt lat="45.68383" lon="3.15231">
        <ele>478.242493</ele>
        <time>2012-01-12T11:06:22Z</time>
      </trkpt>
      <trkpt lat="45.68381" lon="3.15218">
        <ele>477.006256</ele>
        <time>2012-01-12T11:06:26Z</time>
      </trkpt>
      <trkpt lat="45.68379" lon="3.15205">
        <ele>475.768738</ele>
        <time>2012-01-12T11:06:33Z</time>
      </trkpt>
      <trkpt lat="45.68376" lon="3.15191">
        <ele>474.47876</ele>
        <time>2012-01-12T11:06:38Z</time>
      </trkpt>
      <trkpt lat="45.68373" lon="3.15175">
        <ele>472.491241</ele>
        <time>2012-01-12T11:06:42Z</time>
      </trkpt>
      <trkpt lat="45.68371" lon="3.15159">
        <ele>470.48999</ele>
        <time>2012-01-12T11:06:46Z</time>
      </trkpt>
      <trkpt lat="45.68367" lon="3.15142">
        <ele>468.394989</ele>
        <time>2012-01-12T11:06:50Z</time>
      </trkpt>
      <trkpt lat="45.68366" lon="3.15131">
        <ele>467.084991</ele>
        <time>2012-01-12T11:07:30Z</time>
      </trkpt>
      <trkpt lat="45.68363" lon="3.15118">
        <ele>466.028229</ele>
        <time>2012-01-12T11:07:43Z</time>
      </trkpt>
      <trkpt lat="45.6837" lon="3.15109">
        <ele>464.555511</ele>
        <time>2012-01-12T11:07:51Z</time>
      </trkpt>
      <trkpt lat="45.6838" lon="3.15107">
        <ele>463.185608</ele>
        <time>2012-01-12T11:07:59Z</time>
      </trkpt>
      <trkpt lat="45.6839" lon="3.15106">
        <ele>462.033691</ele>
        <time>2012-01-12T11:08:08Z</time>
      </trkpt>
      <trkpt lat="45.68399" lon="3.15104">
        <ele>460.75116</ele>
        <time>2012-01-12T11:08:19Z</time>
      </trkpt>
      <trkpt lat="45.68408" lon="3.15098">
        <ele>459.069946</ele>
        <time>2012-01-12T11:08:28Z</time>
      </trkpt>
      <trkpt lat="45.68413" lon="3.15086">
        <ele>457.114624</ele>
        <time>2012-01-12T11:08:36Z</time>
      </trkpt>
      <trkpt lat="45.68414" lon="3.15072">
        <ele>455.110626</ele>
        <time>2012-01-12T11:08:49Z</time>
      </trkpt>
      <trkpt lat="45.68415" lon="3.15057">
        <ele>453.811859</ele>
        <time>2012-01-12T11:08:59Z</time>
      </trkpt>
      <trkpt lat="45.68416" lon="3.15041">
        <ele>452.812988</ele>
        <time>2012-01-12T11:09:04Z</time>
      </trkpt>
      <trkpt lat="45.68417" lon="3.15024">
        <ele>451.862152</ele>
        <time>2012-01-12T11:09:07Z</time>
      </trkpt>
      <trkpt lat="45.68418" lon="3.15007">
        <ele>450.754639</ele>
        <time>2012-01-12T11:09:10Z</time>
      </trkpt>
      <trkpt lat="45.68419" lon="3.14989">
        <ele>450.294586</ele>
        <time>2012-01-12T11:09:13Z</time>
      </trkpt>
      <trkpt lat="45.6842" lon="3.14971">
        <ele>450.204468</ele>
        <time>2012-01-12T11:09:16Z</time>
      </trkpt>
      <trkpt lat="45.68422" lon="3.14953">
        <ele>450.058014</ele>
        <time>2012-01-12T11:09:19Z</time>
      </trkpt>
      <trkpt lat="45.68422" lon="3.14935">
        <ele>450.056976</ele>
        <time>2012-01-12T11:09:22Z</time>
      </trkpt>
      <trkpt lat="45.68421" lon="3.14917">
        <ele>450.486237</ele>
        <time>2012-01-12T11:09:25Z</time>
      </trkpt>
      <trkpt lat="45.68417" lon="3.14902">
        <ele>451.491272</ele>
        <time>2012-01-12T11:09:28Z</time>
      </trkpt>
      <trkpt lat="45.68411" lon="3.14887">
        <ele>452.767975</ele>
        <time>2012-01-12T11:09:31Z</time>
      </trkpt>
      <trkpt lat="45.68402" lon="3.14879">
        <ele>454.392181</ele>
        <time>2012-01-12T11:09:35Z</time>
      </trkpt>
      <trkpt lat="45.68404" lon="3.14864">
        <ele>454.344635</ele>
        <time>2012-01-12T11:09:40Z</time>
      </trkpt>
      <trkpt lat="45.68408" lon="3.14849">
        <ele>454.042664</ele>
        <time>2012-01-12T11:09:45Z</time>
      </trkpt>
      <trkpt lat="45.68412" lon="3.14835">
        <ele>453.718262</ele>
        <time>2012-01-12T11:09:49Z</time>
      </trkpt>
      <trkpt lat="45.68414" lon="3.14822">
        <ele>453.676025</ele>
        <time>2012-01-12T11:09:53Z</time>
      </trkpt>
      <trkpt lat="45.68416" lon="3.14809">
        <ele>453.632813</ele>
        <time>2012-01-12T11:09:57Z</time>
      </trkpt>
      <trkpt lat="45.68419" lon="3.14792">
        <ele>453.595306</ele>
        <time>2012-01-12T11:10:02Z</time>
      </trkpt>
      <trkpt lat="45.68422" lon="3.14777">
        <ele>453.546844</ele>
        <time>2012-01-12T11:10:06Z</time>
      </trkpt>
      <trkpt lat="45.68426" lon="3.14763">
        <ele>453.408875</ele>
        <time>2012-01-12T11:10:10Z</time>
      </trkpt>
      <trkpt lat="45.6843" lon="3.1475">
        <ele>453.244507</ele>
        <time>2012-01-12T11:10:14Z</time>
      </trkpt>
      <trkpt lat="45.68436" lon="3.14737">
        <ele>452.886414</ele>
        <time>2012-01-12T11:10:18Z</time>
      </trkpt>
      <trkpt lat="45.68443" lon="3.14724">
        <ele>452.062531</ele>
        <time>2012-01-12T11:10:22Z</time>
      </trkpt>
      <trkpt lat="45.68448" lon="3.14712">
        <ele>451.693176</ele>
        <time>2012-01-12T11:10:26Z</time>
      </trkpt>
      <trkpt lat="45.68455" lon="3.14698">
        <ele>451.228729</ele>
        <time>2012-01-12T11:10:30Z</time>
      </trkpt>
      <trkpt lat="45.68458" lon="3.14686">
        <ele>451.404602</ele>
        <time>2012-01-12T11:10:34Z</time>
      </trkpt>
      <trkpt lat="45.68455" lon="3.14674">
        <ele>452.858643</ele>
        <time>2012-01-12T11:10:38Z</time>
      </trkpt>
      <trkpt lat="45.68446" lon="3.14668">
        <ele>454.742035</ele>
        <time>2012-01-12T11:10:42Z</time>
      </trkpt>
      <trkpt lat="45.68437" lon="3.14662">
        <ele>456.675171</ele>
        <time>2012-01-12T11:10:48Z</time>
      </trkpt>
      <trkpt lat="45.68429" lon="3.14655">
        <ele>457.565369</ele>
        <time>2012-01-12T11:10:57Z</time>
      </trkpt>
      <trkpt lat="45.6842" lon="3.14655">
        <ele>457.495087</ele>
        <time>2012-01-12T11:11:06Z</time>
      </trkpt>
      <trkpt lat="45.68415" lon="3.14665">
        <ele>457.205719</ele>
        <time>2012-01-12T11:11:12Z</time>
      </trkpt>
      <trkpt lat="45.68408" lon="3.14672">
        <ele>457.245087</ele>
        <time>2012-01-12T11:11:19Z</time>
      </trkpt>
      <trkpt lat="45.68405" lon="3.1466">
        <ele>457.33194</ele>
        <time>2012-01-12T11:11:26Z</time>
      </trkpt>
      <trkpt lat="45.68409" lon="3.14646">
        <ele>457.456116</ele>
        <time>2012-01-12T11:11:30Z</time>
      </trkpt>
      <trkpt lat="45.68411" lon="3.14631">
        <ele>457.730713</ele>
        <time>2012-01-12T11:11:34Z</time>
      </trkpt>
      <trkpt lat="45.68415" lon="3.14618">
        <ele>458.193024</ele>
        <time>2012-01-12T11:11:38Z</time>
      </trkpt>
      <trkpt lat="45.68431" lon="3.14569">
        <ele>458.703186</ele>
        <time>2012-01-12T11:11:53Z</time>
      </trkpt>
      <trkpt lat="45.68438" lon="3.1455">
        <ele>458.532013</ele>
        <time>2012-01-12T11:11:59Z</time>
      </trkpt>
      <trkpt lat="45.68443" lon="3.14527">
        <ele>455.399994</ele>
        <time>2012-01-12T11:12:06Z</time>
      </trkpt>
      <trkpt lat="45.68445" lon="3.14512">
        <ele>453.487274</ele>
        <time>2012-01-12T11:12:11Z</time>
      </trkpt>
      <trkpt lat="45.68446" lon="3.14498">
        <ele>451.829834</ele>
        <time>2012-01-12T11:12:15Z</time>
      </trkpt>
      <trkpt lat="45.68449" lon="3.14485">
        <ele>450.37326</ele>
        <time>2012-01-12T11:12:19Z</time>
      </trkpt>
      <trkpt lat="45.68452" lon="3.14473">
        <ele>448.609924</ele>
        <time>2012-01-12T11:12:23Z</time>
      </trkpt>
      <trkpt lat="45.68456" lon="3.14459">
        <ele>446.373962</ele>
        <time>2012-01-12T11:12:27Z</time>
      </trkpt>
      <trkpt lat="45.68458" lon="3.14445">
        <ele>444.019836</ele>
        <time>2012-01-12T11:12:31Z</time>
      </trkpt>
      <trkpt lat="45.68458" lon="3.14431">
        <ele>441.657318</ele>
        <time>2012-01-12T11:12:35Z</time>
      </trkpt>
      <trkpt lat="45.68453" lon="3.14419">
        <ele>440.549225</ele>
        <time>2012-01-12T11:12:39Z</time>
      </trkpt>
      <trkpt lat="45.68445" lon="3.14409">
        <ele>440.536865</ele>
        <time>2012-01-12T11:12:43Z</time>
      </trkpt>
      <trkpt lat="45.68436" lon="3.14403">
        <ele>440.678284</ele>
        <time>2012-01-12T11:12:46Z</time>
      </trkpt>
      <trkpt lat="45.68424" lon="3.14399">
        <ele>440.083344</ele>
        <time>2012-01-12T11:12:49Z</time>
      </trkpt>
      <trkpt lat="45.68415" lon="3.14397">
        <ele>439.764282</ele>
        <time>2012-01-12T11:12:51Z</time>
      </trkpt>
      <trkpt lat="45.68402" lon="3.14395">
        <ele>439.390961</ele>
        <time>2012-01-12T11:12:54Z</time>
      </trkpt>
      <trkpt lat="45.68389" lon="3.14395">
        <ele>439.028809</ele>
        <time>2012-01-12T11:12:57Z</time>
      </trkpt>
      <trkpt lat="45.68376" lon="3.14395">
        <ele>438.590881</ele>
        <time>2012-01-12T11:13:00Z</time>
      </trkpt>
      <trkpt lat="45.68364" lon="3.14393">
        <ele>438.125977</ele>
        <time>2012-01-12T11:13:03Z</time>
      </trkpt>
      <trkpt lat="45.6835" lon="3.14393">
        <ele>437.647003</ele>
        <time>2012-01-12T11:13:06Z</time>
      </trkpt>
      <trkpt lat="45.68336" lon="3.14391">
        <ele>437.177795</ele>
        <time>2012-01-12T11:13:09Z</time>
      </trkpt>
      <trkpt lat="45.68324" lon="3.14391">
        <ele>436.73938</ele>
        <time>2012-01-12T11:13:12Z</time>
      </trkpt>
      <trkpt lat="45.68313" lon="3.14388">
        <ele>436.38089</ele>
        <time>2012-01-12T11:13:15Z</time>
      </trkpt>
      <trkpt lat="45.68302" lon="3.14388">
        <ele>436.021881</ele>
        <time>2012-01-12T11:13:19Z</time>
      </trkpt>
      <trkpt lat="45.6829" lon="3.14388">
        <ele>435.755005</ele>
        <time>2012-01-12T11:13:22Z</time>
      </trkpt>
      <trkpt lat="45.68277" lon="3.14386">
        <ele>435.457489</ele>
        <time>2012-01-12T11:13:25Z</time>
      </trkpt>
      <trkpt lat="45.68264" lon="3.14384">
        <ele>435.172485</ele>
        <time>2012-01-12T11:13:28Z</time>
      </trkpt>
      <trkpt lat="45.68252" lon="3.14382">
        <ele>435</ele>
        <time>2012-01-12T11:13:31Z</time>
      </trkpt>
      <trkpt lat="45.68239" lon="3.1438">
        <ele>435</ele>
        <time>2012-01-12T11:13:34Z</time>
      </trkpt>
      <trkpt lat="45.68226" lon="3.14378">
        <ele>435</ele>
        <time>2012-01-12T11:13:37Z</time>
      </trkpt>
      <trkpt lat="45.68213" lon="3.14376">
        <ele>435</ele>
        <time>2012-01-12T11:13:40Z</time>
      </trkpt>
      <trkpt lat="45.68204" lon="3.14374">
        <ele>434.723389</ele>
        <time>2012-01-12T11:13:42Z</time>
      </trkpt>
      <trkpt lat="45.68191" lon="3.14372">
        <ele>434.209045</ele>
        <time>2012-01-12T11:13:45Z</time>
      </trkpt>
      <trkpt lat="45.68178" lon="3.14369">
        <ele>433.666046</ele>
        <time>2012-01-12T11:13:48Z</time>
      </trkpt>
      <trkpt lat="45.68165" lon="3.14365">
        <ele>433.102173</ele>
        <time>2012-01-12T11:13:51Z</time>
      </trkpt>
      <trkpt lat="45.68152" lon="3.1436">
        <ele>432.719727</ele>
        <time>2012-01-12T11:13:54Z</time>
      </trkpt>
      <trkpt lat="45.68143" lon="3.14357">
        <ele>432.482727</ele>
        <time>2012-01-12T11:13:56Z</time>
      </trkpt>
      <trkpt lat="45.68134" lon="3.14353">
        <ele>432.290161</ele>
        <time>2012-01-12T11:13:58Z</time>
      </trkpt>
      <trkpt lat="45.68121" lon="3.14349">
        <ele>431.934753</ele>
        <time>2012-01-12T11:14:01Z</time>
      </trkpt>
      <trkpt lat="45.68112" lon="3.14347">
        <ele>431.353973</ele>
        <time>2012-01-12T11:14:03Z</time>
      </trkpt>
      <trkpt lat="45.68099" lon="3.14344">
        <ele>430.552185</ele>
        <time>2012-01-12T11:14:06Z</time>
      </trkpt>
      <trkpt lat="45.68085" lon="3.14342">
        <ele>429.722076</ele>
        <time>2012-01-12T11:14:09Z</time>
      </trkpt>
      <trkpt lat="45.68076" lon="3.14341">
        <ele>429.168762</ele>
        <time>2012-01-12T11:14:11Z</time>
      </trkpt>
      <trkpt lat="45.68062" lon="3.14339">
        <ele>428.596252</ele>
        <time>2012-01-12T11:14:14Z</time>
      </trkpt>
      <trkpt lat="45.68053" lon="3.14338">
        <ele>428.195007</ele>
        <time>2012-01-12T11:14:16Z</time>
      </trkpt>
      <trkpt lat="45.68044" lon="3.14337">
        <ele>427.801239</ele>
        <time>2012-01-12T11:14:18Z</time>
      </trkpt>
      <trkpt lat="45.6803" lon="3.14336">
        <ele>427.223755</ele>
        <time>2012-01-12T11:14:21Z</time>
      </trkpt>
      <trkpt lat="45.68021" lon="3.14335">
        <ele>426.825012</ele>
        <time>2012-01-12T11:14:23Z</time>
      </trkpt>
      <trkpt lat="45.68012" lon="3.14334">
        <ele>426.411255</ele>
        <time>2012-01-12T11:14:25Z</time>
      </trkpt>
      <trkpt lat="45.68002" lon="3.14332">
        <ele>426.01001</ele>
        <time>2012-01-12T11:14:27Z</time>
      </trkpt>
      <trkpt lat="45.67989" lon="3.1433">
        <ele>425.454987</ele>
        <time>2012-01-12T11:14:30Z</time>
      </trkpt>
      <trkpt lat="45.67976" lon="3.1433">
        <ele>425.126251</ele>
        <time>2012-01-12T11:14:33Z</time>
      </trkpt>
      <trkpt lat="45.67962" lon="3.14329">
        <ele>424.834991</ele>
        <time>2012-01-12T11:14:36Z</time>
      </trkpt>
      <trkpt lat="45.67953" lon="3.14328">
        <ele>424.641235</ele>
        <time>2012-01-12T11:14:38Z</time>
      </trkpt>
      <trkpt lat="45.67944" lon="3.14327">
        <ele>424.438751</ele>
        <time>2012-01-12T11:14:40Z</time>
      </trkpt>
      <trkpt lat="45.67934" lon="3.14326">
        <ele>424.053741</ele>
        <time>2012-01-12T11:14:42Z</time>
      </trkpt>
      <trkpt lat="45.67921" lon="3.14324">
        <ele>423.501251</ele>
        <time>2012-01-12T11:14:45Z</time>
      </trkpt>
      <trkpt lat="45.67912" lon="3.14323">
        <ele>423.125</ele>
        <time>2012-01-12T11:14:47Z</time>
      </trkpt>
      <trkpt lat="45.67902" lon="3.14321">
        <ele>422.72998</ele>
        <time>2012-01-12T11:14:49Z</time>
      </trkpt>
      <trkpt lat="45.67893" lon="3.14319">
        <ele>422.380157</ele>
        <time>2012-01-12T11:14:51Z</time>
      </trkpt>
      <trkpt lat="45.6788" lon="3.14317">
        <ele>421.942474</ele>
        <time>2012-01-12T11:14:54Z</time>
      </trkpt>
      <trkpt lat="45.67871" lon="3.14316">
        <ele>421.641449</ele>
        <time>2012-01-12T11:14:56Z</time>
      </trkpt>
      <trkpt lat="45.67861" lon="3.14315">
        <ele>421.327057</ele>
        <time>2012-01-12T11:14:58Z</time>
      </trkpt>
      <trkpt lat="45.67852" lon="3.14314">
        <ele>421</ele>
        <time>2012-01-12T11:15:00Z</time>
      </trkpt>
      <trkpt lat="45.6784" lon="3.14311">
        <ele>420.645294</ele>
        <time>2012-01-12T11:15:03Z</time>
      </trkpt>
      <trkpt lat="45.67828" lon="3.14312">
        <ele>420.252777</ele>
        <time>2012-01-12T11:15:06Z</time>
      </trkpt>
      <trkpt lat="45.67818" lon="3.14312">
        <ele>419.942993</ele>
        <time>2012-01-12T11:15:08Z</time>
      </trkpt>
      <trkpt lat="45.67808" lon="3.14312">
        <ele>419.652893</ele>
        <time>2012-01-12T11:15:10Z</time>
      </trkpt>
      <trkpt lat="45.67795" lon="3.14312">
        <ele>419.495422</ele>
        <time>2012-01-12T11:15:13Z</time>
      </trkpt>
      <trkpt lat="45.67783" lon="3.14313">
        <ele>419.367584</ele>
        <time>2012-01-12T11:15:16Z</time>
      </trkpt>
      <trkpt lat="45.67773" lon="3.14314">
        <ele>419.241058</ele>
        <time>2012-01-12T11:15:19Z</time>
      </trkpt>
      <trkpt lat="45.67762" lon="3.14316">
        <ele>419.064606</ele>
        <time>2012-01-12T11:15:23Z</time>
      </trkpt>
      <trkpt lat="45.67752" lon="3.14317">
        <ele>418.689758</ele>
        <time>2012-01-12T11:15:26Z</time>
      </trkpt>
      <trkpt lat="45.67739" lon="3.1432">
        <ele>418.190338</ele>
        <time>2012-01-12T11:15:29Z</time>
      </trkpt>
      <trkpt lat="45.6773" lon="3.14322">
        <ele>417.842377</ele>
        <time>2012-01-12T11:15:31Z</time>
      </trkpt>
      <trkpt lat="45.67717" lon="3.14325">
        <ele>417.369995</ele>
        <time>2012-01-12T11:15:34Z</time>
      </trkpt>
      <trkpt lat="45.67704" lon="3.14328">
        <ele>416.767487</ele>
        <time>2012-01-12T11:15:37Z</time>
      </trkpt>
      <trkpt lat="45.67692" lon="3.14331">
        <ele>416.165009</ele>
        <time>2012-01-12T11:15:40Z</time>
      </trkpt>
      <trkpt lat="45.67683" lon="3.14333">
        <ele>415.747498</ele>
        <time>2012-01-12T11:15:42Z</time>
      </trkpt>
      <trkpt lat="45.67669" lon="3.14336">
        <ele>415.125641</ele>
        <time>2012-01-12T11:15:45Z</time>
      </trkpt>
      <trkpt lat="45.6766" lon="3.14338">
        <ele>414.843903</ele>
        <time>2012-01-12T11:15:47Z</time>
      </trkpt>
      <trkpt lat="45.67646" lon="3.14342">
        <ele>414.474518</ele>
        <time>2012-01-12T11:15:50Z</time>
      </trkpt>
      <trkpt lat="45.67637" lon="3.14343">
        <ele>414.242706</ele>
        <time>2012-01-12T11:15:52Z</time>
      </trkpt>
      <trkpt lat="45.67628" lon="3.14345">
        <ele>414.015747</ele>
        <time>2012-01-12T11:15:54Z</time>
      </trkpt>
      <trkpt lat="45.67618" lon="3.14347">
        <ele>413.609985</ele>
        <time>2012-01-12T11:15:56Z</time>
      </trkpt>
      <trkpt lat="45.67609" lon="3.14348">
        <ele>413.192993</ele>
        <time>2012-01-12T11:15:58Z</time>
      </trkpt>
      <trkpt lat="45.67595" lon="3.1435">
        <ele>412.544617</ele>
        <time>2012-01-12T11:16:01Z</time>
      </trkpt>
      <trkpt lat="45.67586" lon="3.14351">
        <ele>412.106812</ele>
        <time>2012-01-12T11:16:03Z</time>
      </trkpt>
      <trkpt lat="45.67576" lon="3.14353">
        <ele>411.653748</ele>
        <time>2012-01-12T11:16:05Z</time>
      </trkpt>
      <trkpt lat="45.67567" lon="3.14356">
        <ele>411.195007</ele>
        <time>2012-01-12T11:16:07Z</time>
      </trkpt>
      <trkpt lat="45.67557" lon="3.1436">
        <ele>410.709991</ele>
        <time>2012-01-12T11:16:09Z</time>
      </trkpt>
      <trkpt lat="45.67548" lon="3.14365">
        <ele>410.232513</ele>
        <time>2012-01-12T11:16:11Z</time>
      </trkpt>
      <trkpt lat="45.67539" lon="3.14369">
        <ele>409.76001</ele>
        <time>2012-01-12T11:16:13Z</time>
      </trkpt>
      <trkpt lat="45.67529" lon="3.14373">
        <ele>409.272491</ele>
        <time>2012-01-12T11:16:15Z</time>
      </trkpt>
      <trkpt lat="45.6752" lon="3.14377">
        <ele>408.804993</ele>
        <time>2012-01-12T11:16:17Z</time>
      </trkpt>
      <trkpt lat="45.67511" lon="3.1438">
        <ele>408.317505</ele>
        <time>2012-01-12T11:16:19Z</time>
      </trkpt>
      <trkpt lat="45.67501" lon="3.14384">
        <ele>407.828766</ele>
        <time>2012-01-12T11:16:21Z</time>
      </trkpt>
      <trkpt lat="45.67492" lon="3.14388">
        <ele>407.378754</ele>
        <time>2012-01-12T11:16:23Z</time>
      </trkpt>
      <trkpt lat="45.67483" lon="3.14392">
        <ele>406.92749</ele>
        <time>2012-01-12T11:16:25Z</time>
      </trkpt>
      <trkpt lat="45.67474" lon="3.14395">
        <ele>406.466248</ele>
        <time>2012-01-12T11:16:27Z</time>
      </trkpt>
      <trkpt lat="45.67465" lon="3.144">
        <ele>405.980011</ele>
        <time>2012-01-12T11:16:29Z</time>
      </trkpt>
      <trkpt lat="45.67456" lon="3.14404">
        <ele>405.503754</ele>
        <time>2012-01-12T11:16:31Z</time>
      </trkpt>
      <trkpt lat="45.67447" lon="3.14407">
        <ele>405.0625</ele>
        <time>2012-01-12T11:16:33Z</time>
      </trkpt>
      <trkpt lat="45.67433" lon="3.1441">
        <ele>404.415009</ele>
        <time>2012-01-12T11:16:36Z</time>
      </trkpt>
      <trkpt lat="45.67424" lon="3.14411">
        <ele>404</ele>
        <time>2012-01-12T11:16:38Z</time>
      </trkpt>
      <trkpt lat="45.67415" lon="3.14413">
        <ele>403.579987</ele>
        <time>2012-01-12T11:16:40Z</time>
      </trkpt>
      <trkpt lat="45.67405" lon="3.14415">
        <ele>403.149994</ele>
        <time>2012-01-12T11:16:42Z</time>
      </trkpt>
      <trkpt lat="45.67395" lon="3.14417">
        <ele>402.843719</ele>
        <time>2012-01-12T11:16:44Z</time>
      </trkpt>
      <trkpt lat="45.67386" lon="3.14418">
        <ele>402.598816</ele>
        <time>2012-01-12T11:16:46Z</time>
      </trkpt>
      <trkpt lat="45.67376" lon="3.1442">
        <ele>402.339661</ele>
        <time>2012-01-12T11:16:48Z</time>
      </trkpt>
      <trkpt lat="45.67366" lon="3.1442">
        <ele>402.081543</ele>
        <time>2012-01-12T11:16:50Z</time>
      </trkpt>
      <trkpt lat="45.67356" lon="3.14419">
        <ele>401.823303</ele>
        <time>2012-01-12T11:16:52Z</time>
      </trkpt>
      <trkpt lat="45.67346" lon="3.14418">
        <ele>401.211029</ele>
        <time>2012-01-12T11:16:54Z</time>
      </trkpt>
      <trkpt lat="45.67337" lon="3.14417">
        <ele>400.654541</ele>
        <time>2012-01-12T11:16:56Z</time>
      </trkpt>
      <trkpt lat="45.67329" lon="3.14416">
        <ele>400.099213</ele>
        <time>2012-01-12T11:17:04Z</time>
      </trkpt>
      <trkpt lat="45.67319" lon="3.14416">
        <ele>399.496155</ele>
        <time>2012-01-12T11:17:07Z</time>
      </trkpt>
      <trkpt lat="45.67306" lon="3.14417">
        <ele>398.76001</ele>
        <time>2012-01-12T11:17:10Z</time>
      </trkpt>
      <trkpt lat="45.67297" lon="3.14417">
        <ele>398.355011</ele>
        <time>2012-01-12T11:17:12Z</time>
      </trkpt>
      <trkpt lat="45.67283" lon="3.14417">
        <ele>397.75</ele>
        <time>2012-01-12T11:17:15Z</time>
      </trkpt>
      <trkpt lat="45.67274" lon="3.14416">
        <ele>397.345001</ele>
        <time>2012-01-12T11:17:17Z</time>
      </trkpt>
      <trkpt lat="45.67261" lon="3.14415">
        <ele>396.872498</ele>
        <time>2012-01-12T11:17:20Z</time>
      </trkpt>
      <trkpt lat="45.67251" lon="3.14415">
        <ele>396.657501</ele>
        <time>2012-01-12T11:17:22Z</time>
      </trkpt>
      <trkpt lat="45.67241" lon="3.14416">
        <ele>396.4375</ele>
        <time>2012-01-12T11:17:24Z</time>
      </trkpt>
      <trkpt lat="45.67232" lon="3.14418">
        <ele>396.232513</ele>
        <time>2012-01-12T11:17:26Z</time>
      </trkpt>
      <trkpt lat="45.67218" lon="3.14419">
        <ele>395.859985</ele>
        <time>2012-01-12T11:17:29Z</time>
      </trkpt>
      <trkpt lat="45.67209" lon="3.14419">
        <ele>395.434998</ele>
        <time>2012-01-12T11:17:31Z</time>
      </trkpt>
      <trkpt lat="45.67199" lon="3.14419">
        <ele>395.019989</ele>
        <time>2012-01-12T11:17:33Z</time>
      </trkpt>
      <trkpt lat="45.6719" lon="3.14419">
        <ele>394.605011</ele>
        <time>2012-01-12T11:17:35Z</time>
      </trkpt>
      <trkpt lat="45.6718" lon="3.1442">
        <ele>394.170013</ele>
        <time>2012-01-12T11:17:37Z</time>
      </trkpt>
      <trkpt lat="45.67171" lon="3.14419">
        <ele>393.755005</ele>
        <time>2012-01-12T11:17:39Z</time>
      </trkpt>
      <trkpt lat="45.67158" lon="3.14419">
        <ele>393.190002</ele>
        <time>2012-01-12T11:17:42Z</time>
      </trkpt>
      <trkpt lat="45.67147" lon="3.14421">
        <ele>392.695007</ele>
        <time>2012-01-12T11:17:46Z</time>
      </trkpt>
      <trkpt lat="45.67137" lon="3.14423">
        <ele>392.234985</ele>
        <time>2012-01-12T11:17:51Z</time>
      </trkpt>
      <trkpt lat="45.67125" lon="3.14423">
        <ele>391.758667</ele>
        <time>2012-01-12T11:17:54Z</time>
      </trkpt>
      <trkpt lat="45.67113" lon="3.14421">
        <ele>391.262726</ele>
        <time>2012-01-12T11:17:57Z</time>
      </trkpt>
      <trkpt lat="45.67103" lon="3.14421">
        <ele>390.899872</ele>
        <time>2012-01-12T11:17:59Z</time>
      </trkpt>
      <trkpt lat="45.67094" lon="3.1442">
        <ele>390.531219</ele>
        <time>2012-01-12T11:18:01Z</time>
      </trkpt>
      <trkpt lat="45.67084" lon="3.1442">
        <ele>390.142487</ele>
        <time>2012-01-12T11:18:03Z</time>
      </trkpt>
      <trkpt lat="45.67074" lon="3.1442">
        <ele>389.707489</ele>
        <time>2012-01-12T11:18:05Z</time>
      </trkpt>
      <trkpt lat="45.67065" lon="3.14421">
        <ele>389.28125</ele>
        <time>2012-01-12T11:18:07Z</time>
      </trkpt>
      <trkpt lat="45.67055" lon="3.14421">
        <ele>388.871246</ele>
        <time>2012-01-12T11:18:09Z</time>
      </trkpt>
      <trkpt lat="45.67046" lon="3.14422">
        <ele>388.471252</ele>
        <time>2012-01-12T11:18:11Z</time>
      </trkpt>
      <trkpt lat="45.67037" lon="3.14424">
        <ele>388.196259</ele>
        <time>2012-01-12T11:18:13Z</time>
      </trkpt>
      <trkpt lat="45.67023" lon="3.14423">
        <ele>387.887512</ele>
        <time>2012-01-12T11:18:16Z</time>
      </trkpt>
      <trkpt lat="45.67013" lon="3.14423">
        <ele>387.673737</ele>
        <time>2012-01-12T11:18:18Z</time>
      </trkpt>
      <trkpt lat="45.67004" lon="3.14423">
        <ele>387.459991</ele>
        <time>2012-01-12T11:18:20Z</time>
      </trkpt>
      <trkpt lat="45.6699" lon="3.14422">
        <ele>387.056305</ele>
        <time>2012-01-12T11:18:23Z</time>
      </trkpt>
      <trkpt lat="45.66981" lon="3.14422">
        <ele>386.694885</ele>
        <time>2012-01-12T11:18:25Z</time>
      </trkpt>
      <trkpt lat="45.66972" lon="3.14422">
        <ele>386.360382</ele>
        <time>2012-01-12T11:18:27Z</time>
      </trkpt>
      <trkpt lat="45.66959" lon="3.14421">
        <ele>385.839813</ele>
        <time>2012-01-12T11:18:30Z</time>
      </trkpt>
      <trkpt lat="45.66946" lon="3.14419">
        <ele>385.316498</ele>
        <time>2012-01-12T11:18:33Z</time>
      </trkpt>
      <trkpt lat="45.66937" lon="3.14418">
        <ele>384.913757</ele>
        <time>2012-01-12T11:18:35Z</time>
      </trkpt>
      <trkpt lat="45.66927" lon="3.14418">
        <ele>384.532776</ele>
        <time>2012-01-12T11:18:37Z</time>
      </trkpt>
      <trkpt lat="45.66918" lon="3.14417">
        <ele>384.120209</ele>
        <time>2012-01-12T11:18:39Z</time>
      </trkpt>
      <trkpt lat="45.66908" lon="3.14416">
        <ele>383.69632</ele>
        <time>2012-01-12T11:18:41Z</time>
      </trkpt>
      <trkpt lat="45.66898" lon="3.14416">
        <ele>383.300446</ele>
        <time>2012-01-12T11:18:43Z</time>
      </trkpt>
      <trkpt lat="45.66888" lon="3.14416">
        <ele>382.921112</ele>
        <time>2012-01-12T11:18:45Z</time>
      </trkpt>
      <trkpt lat="45.66878" lon="3.14417">
        <ele>382.58905</ele>
        <time>2012-01-12T11:18:47Z</time>
      </trkpt>
      <trkpt lat="45.66868" lon="3.14419">
        <ele>382.351135</ele>
        <time>2012-01-12T11:18:49Z</time>
      </trkpt>
      <trkpt lat="45.66859" lon="3.14421">
        <ele>382.09079</ele>
        <time>2012-01-12T11:18:51Z</time>
      </trkpt>
      <trkpt lat="45.66846" lon="3.14425">
        <ele>381.51828</ele>
        <time>2012-01-12T11:18:54Z</time>
      </trkpt>
      <trkpt lat="45.66837" lon="3.14429">
        <ele>381.182892</ele>
        <time>2012-01-12T11:18:56Z</time>
      </trkpt>
      <trkpt lat="45.6683" lon="3.14436">
        <ele>380.991821</ele>
        <time>2012-01-12T11:18:58Z</time>
      </trkpt>
      <trkpt lat="45.66821" lon="3.14451">
        <ele>380.945465</ele>
        <time>2012-01-12T11:19:01Z</time>
      </trkpt>
      <trkpt lat="45.66817" lon="3.14469">
        <ele>381.200592</ele>
        <time>2012-01-12T11:19:04Z</time>
      </trkpt>
      <trkpt lat="45.66813" lon="3.14481">
        <ele>381.430725</ele>
        <time>2012-01-12T11:19:06Z</time>
      </trkpt>
      <trkpt lat="45.66809" lon="3.14493">
        <ele>381.525696</ele>
        <time>2012-01-12T11:19:08Z</time>
      </trkpt>
      <trkpt lat="45.66805" lon="3.14506">
        <ele>381.519714</ele>
        <time>2012-01-12T11:19:10Z</time>
      </trkpt>
      <trkpt lat="45.668" lon="3.14519">
        <ele>381.280426</ele>
        <time>2012-01-12T11:19:12Z</time>
      </trkpt>
      <trkpt lat="45.66794" lon="3.14531">
        <ele>380.75705</ele>
        <time>2012-01-12T11:19:14Z</time>
      </trkpt>
      <trkpt lat="45.66789" lon="3.14542">
        <ele>380.331024</ele>
        <time>2012-01-12T11:19:16Z</time>
      </trkpt>
      <trkpt lat="45.66783" lon="3.14554">
        <ele>379.894714</ele>
        <time>2012-01-12T11:19:18Z</time>
      </trkpt>
      <trkpt lat="45.66775" lon="3.14571">
        <ele>379.1698</ele>
        <time>2012-01-12T11:19:21Z</time>
      </trkpt>
      <trkpt lat="45.6677" lon="3.14584">
        <ele>378.681335</ele>
        <time>2012-01-12T11:19:23Z</time>
      </trkpt>
      <trkpt lat="45.66765" lon="3.14596">
        <ele>378.486206</ele>
        <time>2012-01-12T11:19:25Z</time>
      </trkpt>
      <trkpt lat="45.6676" lon="3.14608">
        <ele>378.182312</ele>
        <time>2012-01-12T11:19:27Z</time>
      </trkpt>
      <trkpt lat="45.66754" lon="3.1462">
        <ele>377.815491</ele>
        <time>2012-01-12T11:19:29Z</time>
      </trkpt>
      <trkpt lat="45.6675" lon="3.14632">
        <ele>377.379761</ele>
        <time>2012-01-12T11:19:31Z</time>
      </trkpt>
      <trkpt lat="45.66745" lon="3.14641">
        <ele>376.871002</ele>
        <time>2012-01-12T11:19:33Z</time>
      </trkpt>
      <trkpt lat="45.6674" lon="3.14653">
        <ele>376.255646</ele>
        <time>2012-01-12T11:19:36Z</time>
      </trkpt>
      <trkpt lat="45.66735" lon="3.14665">
        <ele>375.522491</ele>
        <time>2012-01-12T11:19:39Z</time>
      </trkpt>
      <trkpt lat="45.6673" lon="3.14675">
        <ele>374.82251</ele>
        <time>2012-01-12T11:19:42Z</time>
      </trkpt>
      <trkpt lat="45.66723" lon="3.14688">
        <ele>373.880005</ele>
        <time>2012-01-12T11:19:46Z</time>
      </trkpt>
      <trkpt lat="45.66715" lon="3.14698">
        <ele>373.140015</ele>
        <time>2012-01-12T11:19:50Z</time>
      </trkpt>
      <trkpt lat="45.66708" lon="3.14706">
        <ele>372.529999</ele>
        <time>2012-01-12T11:19:54Z</time>
      </trkpt>
      <trkpt lat="45.66705" lon="3.1472">
        <ele>372.277863</ele>
        <time>2012-01-12T11:19:58Z</time>
      </trkpt>
      <trkpt lat="45.66704" lon="3.14733">
        <ele>372.055389</ele>
        <time>2012-01-12T11:20:02Z</time>
      </trkpt>
      <trkpt lat="45.66704" lon="3.14748">
        <ele>371.91217</ele>
        <time>2012-01-12T11:20:06Z</time>
      </trkpt>
      <trkpt lat="45.66699" lon="3.14759">
        <ele>371.472473</ele>
        <time>2012-01-12T11:20:10Z</time>
      </trkpt>
      <trkpt lat="45.6669" lon="3.1477">
        <ele>370.802185</ele>
        <time>2012-01-12T11:20:15Z</time>
      </trkpt>
      <trkpt lat="45.6669" lon="3.14786">
        <ele>370.714386</ele>
        <time>2012-01-12T11:20:18Z</time>
      </trkpt>
      <trkpt lat="45.6669" lon="3.14805">
        <ele>370.849792</ele>
        <time>2012-01-12T11:20:21Z</time>
      </trkpt>
      <trkpt lat="45.66691" lon="3.14822">
        <ele>370.996216</ele>
        <time>2012-01-12T11:20:24Z</time>
      </trkpt>
      <trkpt lat="45.66692" lon="3.14835">
        <ele>371.100922</ele>
        <time>2012-01-12T11:20:26Z</time>
      </trkpt>
      <trkpt lat="45.66692" lon="3.14848">
        <ele>371.190002</ele>
        <time>2012-01-12T11:20:28Z</time>
      </trkpt>
      <trkpt lat="45.66692" lon="3.14868">
        <ele>371.230011</ele>
        <time>2012-01-12T11:20:31Z</time>
      </trkpt>
      <trkpt lat="45.66693" lon="3.14881">
        <ele>371.299988</ele>
        <time>2012-01-12T11:20:33Z</time>
      </trkpt>
      <trkpt lat="45.66693" lon="3.14894">
        <ele>371.350006</ele>
        <time>2012-01-12T11:20:35Z</time>
      </trkpt>
      <trkpt lat="45.66693" lon="3.14908">
        <ele>371.359985</ele>
        <time>2012-01-12T11:20:37Z</time>
      </trkpt>
      <trkpt lat="45.66692" lon="3.14921">
        <ele>371.208191</ele>
        <time>2012-01-12T11:20:39Z</time>
      </trkpt>
      <trkpt lat="45.66691" lon="3.14935">
        <ele>371.010376</ele>
        <time>2012-01-12T11:20:41Z</time>
      </trkpt>
      <trkpt lat="45.6669" lon="3.14949">
        <ele>370.868103</ele>
        <time>2012-01-12T11:20:43Z</time>
      </trkpt>
      <trkpt lat="45.66689" lon="3.14967">
        <ele>370.625397</ele>
        <time>2012-01-12T11:20:46Z</time>
      </trkpt>
      <trkpt lat="45.66688" lon="3.14981">
        <ele>370.426147</ele>
        <time>2012-01-12T11:20:48Z</time>
      </trkpt>
      <trkpt lat="45.66687" lon="3.15">
        <ele>370.322021</ele>
        <time>2012-01-12T11:20:51Z</time>
      </trkpt>
      <trkpt lat="45.66687" lon="3.15019">
        <ele>370.467957</ele>
        <time>2012-01-12T11:20:54Z</time>
      </trkpt>
      <trkpt lat="45.66687" lon="3.15032">
        <ele>370.564636</ele>
        <time>2012-01-12T11:20:56Z</time>
      </trkpt>
      <trkpt lat="45.66687" lon="3.1505">
        <ele>370.693176</ele>
        <time>2012-01-12T11:20:59Z</time>
      </trkpt>
      <trkpt lat="45.66686" lon="3.15064">
        <ele>370.675415</ele>
        <time>2012-01-12T11:21:01Z</time>
      </trkpt>
      <trkpt lat="45.66685" lon="3.15079">
        <ele>370.738068</ele>
        <time>2012-01-12T11:21:03Z</time>
      </trkpt>
      <trkpt lat="45.66685" lon="3.15094">
        <ele>370.956024</ele>
        <time>2012-01-12T11:21:05Z</time>
      </trkpt>
      <trkpt lat="45.66686" lon="3.15108">
        <ele>371.151245</ele>
        <time>2012-01-12T11:21:07Z</time>
      </trkpt>
      <trkpt lat="45.66686" lon="3.15121">
        <ele>370.984985</ele>
        <time>2012-01-12T11:21:09Z</time>
      </trkpt>
      <trkpt lat="45.66686" lon="3.15135">
        <ele>370.746246</ele>
        <time>2012-01-12T11:21:11Z</time>
      </trkpt>
      <trkpt lat="45.66686" lon="3.15148">
        <ele>370.547516</ele>
        <time>2012-01-12T11:21:13Z</time>
      </trkpt>
      <trkpt lat="45.66686" lon="3.15162">
        <ele>370.381256</ele>
        <time>2012-01-12T11:21:15Z</time>
      </trkpt>
      <trkpt lat="45.66686" lon="3.15175">
        <ele>370.23764</ele>
        <time>2012-01-12T11:21:17Z</time>
      </trkpt>
      <trkpt lat="45.66688" lon="3.15189">
        <ele>370.17099</ele>
        <time>2012-01-12T11:21:19Z</time>
      </trkpt>
      <trkpt lat="45.6669" lon="3.15202">
        <ele>370.172241</ele>
        <time>2012-01-12T11:21:21Z</time>
      </trkpt>
      <trkpt lat="45.66692" lon="3.15216">
        <ele>370.102997</ele>
        <time>2012-01-12T11:21:23Z</time>
      </trkpt>
      <trkpt lat="45.66693" lon="3.15229">
        <ele>369.95578</ele>
        <time>2012-01-12T11:21:25Z</time>
      </trkpt>
      <trkpt lat="45.66694" lon="3.15243">
        <ele>369.987488</ele>
        <time>2012-01-12T11:21:27Z</time>
      </trkpt>
      <trkpt lat="45.66695" lon="3.15256">
        <ele>370.0289</ele>
        <time>2012-01-12T11:21:29Z</time>
      </trkpt>
      <trkpt lat="45.66696" lon="3.1527">
        <ele>370.012817</ele>
        <time>2012-01-12T11:21:31Z</time>
      </trkpt>
      <trkpt lat="45.66697" lon="3.15284">
        <ele>369.987457</ele>
        <time>2012-01-12T11:21:33Z</time>
      </trkpt>
      <trkpt lat="45.66697" lon="3.15298">
        <ele>369.932739</ele>
        <time>2012-01-12T11:21:35Z</time>
      </trkpt>
      <trkpt lat="45.66698" lon="3.15312">
        <ele>369.873718</ele>
        <time>2012-01-12T11:21:37Z</time>
      </trkpt>
      <trkpt lat="45.66698" lon="3.15326">
        <ele>369.785126</ele>
        <time>2012-01-12T11:21:39Z</time>
      </trkpt>
      <trkpt lat="45.66698" lon="3.1534">
        <ele>369.686066</ele>
        <time>2012-01-12T11:21:41Z</time>
      </trkpt>
      <trkpt lat="45.66698" lon="3.15354">
        <ele>369.587372</ele>
        <time>2012-01-12T11:21:43Z</time>
      </trkpt>
      <trkpt lat="45.66698" lon="3.15369">
        <ele>369.446259</ele>
        <time>2012-01-12T11:21:45Z</time>
      </trkpt>
      <trkpt lat="45.66699" lon="3.15383">
        <ele>369.286255</ele>
        <time>2012-01-12T11:21:47Z</time>
      </trkpt>
      <trkpt lat="45.66699" lon="3.15397">
        <ele>369.105011</ele>
        <time>2012-01-12T11:21:49Z</time>
      </trkpt>
      <trkpt lat="45.667" lon="3.15412">
        <ele>368.899994</ele>
        <time>2012-01-12T11:21:52Z</time>
      </trkpt>
      <trkpt lat="45.66702" lon="3.15427">
        <ele>368.818817</ele>
        <time>2012-01-12T11:22:00Z</time>
      </trkpt>
      <trkpt lat="45.66705" lon="3.1544">
        <ele>368.680695</ele>
        <time>2012-01-12T11:22:03Z</time>
      </trkpt>
      <trkpt lat="45.66707" lon="3.15456">
        <ele>368.368408</ele>
        <time>2012-01-12T11:22:06Z</time>
      </trkpt>
      <trkpt lat="45.66708" lon="3.15469">
        <ele>368.093414</ele>
        <time>2012-01-12T11:22:08Z</time>
      </trkpt>
      <trkpt lat="45.66709" lon="3.15483">
        <ele>367.770813</ele>
        <time>2012-01-12T11:22:10Z</time>
      </trkpt>
      <trkpt lat="45.6671" lon="3.15496">
        <ele>367.505463</ele>
        <time>2012-01-12T11:22:12Z</time>
      </trkpt>
      <trkpt lat="45.66713" lon="3.15517">
        <ele>367.269653</ele>
        <time>2012-01-12T11:22:15Z</time>
      </trkpt>
      <trkpt lat="45.66715" lon="3.15533">
        <ele>367.105652</ele>
        <time>2012-01-12T11:22:17Z</time>
      </trkpt>
      <trkpt lat="45.66718" lon="3.15548">
        <ele>367.043823</ele>
        <time>2012-01-12T11:22:19Z</time>
      </trkpt>
      <trkpt lat="45.6672" lon="3.15562">
        <ele>366.912506</ele>
        <time>2012-01-12T11:22:21Z</time>
      </trkpt>
      <trkpt lat="45.66723" lon="3.15579">
        <ele>366.644989</ele>
        <time>2012-01-12T11:22:24Z</time>
      </trkpt>
      <trkpt lat="45.66726" lon="3.15592">
        <ele>366.524994</ele>
        <time>2012-01-12T11:22:27Z</time>
      </trkpt>
      <trkpt lat="45.6673" lon="3.15606">
        <ele>366.429993</ele>
        <time>2012-01-12T11:22:31Z</time>
      </trkpt>
      <trkpt lat="45.66733" lon="3.15618">
        <ele>366.390015</ele>
        <time>2012-01-12T11:22:36Z</time>
      </trkpt>
      <trkpt lat="45.66736" lon="3.1563">
        <ele>366.575226</ele>
        <time>2012-01-12T11:22:43Z</time>
      </trkpt>
      <trkpt lat="45.66741" lon="3.15642">
        <ele>366.862305</ele>
        <time>2012-01-12T11:22:51Z</time>
      </trkpt>
      <trkpt lat="45.66746" lon="3.15654">
        <ele>367.142883</ele>
        <time>2012-01-12T11:23:00Z</time>
      </trkpt>
      <trkpt lat="45.66751" lon="3.15665">
        <ele>367.401672</ele>
        <time>2012-01-12T11:23:09Z</time>
      </trkpt>
      <trkpt lat="45.66753" lon="3.15677">
        <ele>367.454559</ele>
        <time>2012-01-12T11:23:13Z</time>
      </trkpt>
      <trkpt lat="45.66757" lon="3.15691">
        <ele>367.640198</ele>
        <time>2012-01-12T11:23:17Z</time>
      </trkpt>
      <trkpt lat="45.66761" lon="3.15704">
        <ele>367.933441</ele>
        <time>2012-01-12T11:23:21Z</time>
      </trkpt>
      <trkpt lat="45.66763" lon="3.1572">
        <ele>368.06778</ele>
        <time>2012-01-12T11:23:26Z</time>
      </trkpt>
      <trkpt lat="45.66762" lon="3.15737">
        <ele>368.025787</ele>
        <time>2012-01-12T11:23:30Z</time>
      </trkpt>
      <trkpt lat="45.66763" lon="3.1575">
        <ele>368.024994</ele>
        <time>2012-01-12T11:23:33Z</time>
      </trkpt>
      <trkpt lat="45.66764" lon="3.15763">
        <ele>367.787506</ele>
        <time>2012-01-12T11:23:36Z</time>
      </trkpt>
      <trkpt lat="45.66767" lon="3.15776">
        <ele>367.657501</ele>
        <time>2012-01-12T11:23:39Z</time>
      </trkpt>
      <trkpt lat="45.6677" lon="3.1579">
        <ele>367.582489</ele>
        <time>2012-01-12T11:23:42Z</time>
      </trkpt>
      <trkpt lat="45.66773" lon="3.15802">
        <ele>367.619995</ele>
        <time>2012-01-12T11:23:45Z</time>
      </trkpt>
      <trkpt lat="45.66778" lon="3.15812">
        <ele>367.775024</ele>
        <time>2012-01-12T11:23:48Z</time>
      </trkpt>
      <trkpt lat="45.66783" lon="3.15828">
        <ele>367.656525</ele>
        <time>2012-01-12T11:23:52Z</time>
      </trkpt>
      <trkpt lat="45.66787" lon="3.1584">
        <ele>367.485046</ele>
        <time>2012-01-12T11:23:55Z</time>
      </trkpt>
      <trkpt lat="45.66793" lon="3.15855">
        <ele>367.227509</ele>
        <time>2012-01-12T11:23:59Z</time>
      </trkpt>
      <trkpt lat="45.66797" lon="3.15865">
        <ele>366.990173</ele>
        <time>2012-01-12T11:24:02Z</time>
      </trkpt>
      <trkpt lat="45.66804" lon="3.1588">
        <ele>366.732513</ele>
        <time>2012-01-12T11:24:06Z</time>
      </trkpt>
      <trkpt lat="45.66812" lon="3.15893">
        <ele>367.208466</ele>
        <time>2012-01-12T11:24:10Z</time>
      </trkpt>
      <trkpt lat="45.66817" lon="3.15904">
        <ele>367.425018</ele>
        <time>2012-01-12T11:24:13Z</time>
      </trkpt>
      <trkpt lat="45.66823" lon="3.15917">
        <ele>367.571228</ele>
        <time>2012-01-12T11:24:17Z</time>
      </trkpt>
      <trkpt lat="45.66829" lon="3.15931">
        <ele>367.51886</ele>
        <time>2012-01-12T11:24:21Z</time>
      </trkpt>
      <trkpt lat="45.66835" lon="3.15944">
        <ele>367.441132</ele>
        <time>2012-01-12T11:24:25Z</time>
      </trkpt>
      <trkpt lat="45.66839" lon="3.15957">
        <ele>367.314026</ele>
        <time>2012-01-12T11:24:29Z</time>
      </trkpt>
      <trkpt lat="45.66844" lon="3.15971">
        <ele>367.101044</ele>
        <time>2012-01-12T11:24:33Z</time>
      </trkpt>
      <trkpt lat="45.66848" lon="3.15982">
        <ele>366.930786</ele>
        <time>2012-01-12T11:24:36Z</time>
      </trkpt>
      <trkpt lat="45.66853" lon="3.15997">
        <ele>366.681946</ele>
        <time>2012-01-12T11:24:40Z</time>
      </trkpt>
      <trkpt lat="45.66858" lon="3.16012">
        <ele>366.458679</ele>
        <time>2012-01-12T11:24:44Z</time>
      </trkpt>
      <trkpt lat="45.66862" lon="3.16025">
        <ele>366.340149</ele>
        <time>2012-01-12T11:24:48Z</time>
      </trkpt>
      <trkpt lat="45.66866" lon="3.16039">
        <ele>366.21524</ele>
        <time>2012-01-12T11:24:52Z</time>
      </trkpt>
      <trkpt lat="45.6687" lon="3.16052">
        <ele>366.051392</ele>
        <time>2012-01-12T11:24:56Z</time>
      </trkpt>
      <trkpt lat="45.66877" lon="3.1606">
        <ele>366.235901</ele>
        <time>2012-01-12T11:25:03Z</time>
      </trkpt>
      <trkpt lat="45.66882" lon="3.16072">
        <ele>366.0914</ele>
        <time>2012-01-12T11:25:08Z</time>
      </trkpt>
      <trkpt lat="45.66887" lon="3.16083">
        <ele>366.112671</ele>
        <time>2012-01-12T11:25:12Z</time>
      </trkpt>
      <trkpt lat="45.66893" lon="3.16094">
        <ele>366.15155</ele>
        <time>2012-01-12T11:25:16Z</time>
      </trkpt>
      <trkpt lat="45.66899" lon="3.16106">
        <ele>366.182495</ele>
        <time>2012-01-12T11:25:20Z</time>
      </trkpt>
      <trkpt lat="45.66905" lon="3.16117">
        <ele>366.222504</ele>
        <time>2012-01-12T11:25:24Z</time>
      </trkpt>
      <trkpt lat="45.6691" lon="3.16128">
        <ele>366.257507</ele>
        <time>2012-01-12T11:25:28Z</time>
      </trkpt>
      <trkpt lat="45.66915" lon="3.16139">
        <ele>366.306244</ele>
        <time>2012-01-12T11:25:32Z</time>
      </trkpt>
      <trkpt lat="45.66919" lon="3.16151">
        <ele>366.436249</ele>
        <time>2012-01-12T11:25:36Z</time>
      </trkpt>
      <trkpt lat="45.66925" lon="3.16165">
        <ele>366.582489</ele>
        <time>2012-01-12T11:25:40Z</time>
      </trkpt>
      <trkpt lat="45.6693" lon="3.16179">
        <ele>366.700012</ele>
        <time>2012-01-12T11:25:44Z</time>
      </trkpt>
      <trkpt lat="45.66935" lon="3.16193">
        <ele>366.816254</ele>
        <time>2012-01-12T11:25:48Z</time>
      </trkpt>
      <trkpt lat="45.6694" lon="3.16206">
        <ele>366.904633</ele>
        <time>2012-01-12T11:25:52Z</time>
      </trkpt>
      <trkpt lat="45.66946" lon="3.16218">
        <ele>367.166168</ele>
        <time>2012-01-12T11:25:56Z</time>
      </trkpt>
      <trkpt lat="45.66953" lon="3.16227">
        <ele>367.468933</ele>
        <time>2012-01-12T11:26:00Z</time>
      </trkpt>
      <trkpt lat="45.66963" lon="3.16233">
        <ele>368.076965</ele>
        <time>2012-01-12T11:26:04Z</time>
      </trkpt>
      <trkpt lat="45.66972" lon="3.16238">
        <ele>368.653595</ele>
        <time>2012-01-12T11:26:08Z</time>
      </trkpt>
      <trkpt lat="45.66982" lon="3.1624">
        <ele>369.383057</ele>
        <time>2012-01-12T11:26:12Z</time>
      </trkpt>
      <trkpt lat="45.66992" lon="3.16241">
        <ele>370.314758</ele>
        <time>2012-01-12T11:26:16Z</time>
      </trkpt>
      <trkpt lat="45.67003" lon="3.1624">
        <ele>371.527893</ele>
        <time>2012-01-12T11:26:21Z</time>
      </trkpt>
      <trkpt lat="45.67013" lon="3.16237">
        <ele>372.697754</ele>
        <time>2012-01-12T11:26:25Z</time>
      </trkpt>
      <trkpt lat="45.67022" lon="3.16239">
        <ele>373.578522</ele>
        <time>2012-01-12T11:26:30Z</time>
      </trkpt>
      <trkpt lat="45.67027" lon="3.16251">
        <ele>373.481903</ele>
        <time>2012-01-12T11:26:33Z</time>
      </trkpt>
      <trkpt lat="45.67032" lon="3.16266">
        <ele>373.585114</ele>
        <time>2012-01-12T11:26:36Z</time>
      </trkpt>
      <trkpt lat="45.67038" lon="3.16282">
        <ele>373.74881</ele>
        <time>2012-01-12T11:26:39Z</time>
      </trkpt>
      <trkpt lat="45.67042" lon="3.16297">
        <ele>373.765381</ele>
        <time>2012-01-12T11:26:42Z</time>
      </trkpt>
      <trkpt lat="45.67046" lon="3.16313">
        <ele>373.856384</ele>
        <time>2012-01-12T11:26:45Z</time>
      </trkpt>
      <trkpt lat="45.67051" lon="3.16329">
        <ele>374.147491</ele>
        <time>2012-01-12T11:26:48Z</time>
      </trkpt>
      <trkpt lat="45.67057" lon="3.16345">
        <ele>374.067505</ele>
        <time>2012-01-12T11:26:51Z</time>
      </trkpt>
      <trkpt lat="45.67064" lon="3.16359">
        <ele>374.128754</ele>
        <time>2012-01-12T11:26:54Z</time>
      </trkpt>
      <trkpt lat="45.6707" lon="3.16374">
        <ele>374.152496</ele>
        <time>2012-01-12T11:26:57Z</time>
      </trkpt>
      <trkpt lat="45.67076" lon="3.1639">
        <ele>374.51001</ele>
        <time>2012-01-12T11:27:00Z</time>
      </trkpt>
      <trkpt lat="45.67083" lon="3.16406">
        <ele>374.950348</ele>
        <time>2012-01-12T11:27:03Z</time>
      </trkpt>
      <trkpt lat="45.67089" lon="3.16422">
        <ele>375.142609</ele>
        <time>2012-01-12T11:27:06Z</time>
      </trkpt>
      <trkpt lat="45.67095" lon="3.16439">
        <ele>374.838379</ele>
        <time>2012-01-12T11:27:09Z</time>
      </trkpt>
      <trkpt lat="45.67101" lon="3.16456">
        <ele>374.102631</ele>
        <time>2012-01-12T11:27:12Z</time>
      </trkpt>
      <trkpt lat="45.67106" lon="3.16473">
        <ele>374.080109</ele>
        <time>2012-01-12T11:27:15Z</time>
      </trkpt>
      <trkpt lat="45.6711" lon="3.16485">
        <ele>374.057068</ele>
        <time>2012-01-12T11:27:17Z</time>
      </trkpt>
      <trkpt lat="45.67115" lon="3.16501">
        <ele>374.095886</ele>
        <time>2012-01-12T11:27:20Z</time>
      </trkpt>
      <trkpt lat="45.67119" lon="3.16513">
        <ele>374.021545</ele>
        <time>2012-01-12T11:27:22Z</time>
      </trkpt>
      <trkpt lat="45.67124" lon="3.1653">
        <ele>374.258331</ele>
        <time>2012-01-12T11:27:25Z</time>
      </trkpt>
      <trkpt lat="45.67127" lon="3.16542">
        <ele>374.790131</ele>
        <time>2012-01-12T11:27:27Z</time>
      </trkpt>
      <trkpt lat="45.67132" lon="3.16559">
        <ele>375.540619</ele>
        <time>2012-01-12T11:27:30Z</time>
      </trkpt>
      <trkpt lat="45.67137" lon="3.16575">
        <ele>376.393494</ele>
        <time>2012-01-12T11:27:33Z</time>
      </trkpt>
      <trkpt lat="45.6714" lon="3.16594">
        <ele>376.580078</ele>
        <time>2012-01-12T11:27:36Z</time>
      </trkpt>
      <trkpt lat="45.6714" lon="3.16612">
        <ele>375.868774</ele>
        <time>2012-01-12T11:27:39Z</time>
      </trkpt>
      <trkpt lat="45.67141" lon="3.1663">
        <ele>375.180786</ele>
        <time>2012-01-12T11:27:42Z</time>
      </trkpt>
      <trkpt lat="45.67143" lon="3.16648">
        <ele>374.872772</ele>
        <time>2012-01-12T11:27:45Z</time>
      </trkpt>
      <trkpt lat="45.67147" lon="3.16665">
        <ele>373.819214</ele>
        <time>2012-01-12T11:27:48Z</time>
      </trkpt>
      <trkpt lat="45.67154" lon="3.16682">
        <ele>372.593414</ele>
        <time>2012-01-12T11:27:51Z</time>
      </trkpt>
      <trkpt lat="45.67161" lon="3.16692">
        <ele>372.249146</ele>
        <time>2012-01-12T11:27:53Z</time>
      </trkpt>
      <trkpt lat="45.6717" lon="3.16706">
        <ele>371.795044</ele>
        <time>2012-01-12T11:27:56Z</time>
      </trkpt>
      <trkpt lat="45.67178" lon="3.1672">
        <ele>371.152374</ele>
        <time>2012-01-12T11:27:59Z</time>
      </trkpt>
      <trkpt lat="45.67186" lon="3.16734">
        <ele>370.956299</ele>
        <time>2012-01-12T11:28:02Z</time>
      </trkpt>
      <trkpt lat="45.67195" lon="3.16747">
        <ele>370.991608</ele>
        <time>2012-01-12T11:28:05Z</time>
      </trkpt>
      <trkpt lat="45.67205" lon="3.16759">
        <ele>371.059998</ele>
        <time>2012-01-12T11:28:08Z</time>
      </trkpt>
      <trkpt lat="45.67216" lon="3.16771">
        <ele>371.712494</ele>
        <time>2012-01-12T11:28:11Z</time>
      </trkpt>
      <trkpt lat="45.67227" lon="3.16781">
        <ele>372.445007</ele>
        <time>2012-01-12T11:28:14Z</time>
      </trkpt>
      <trkpt lat="45.67234" lon="3.1679">
        <ele>373.20697</ele>
        <time>2012-01-12T11:28:16Z</time>
      </trkpt>
      <trkpt lat="45.67241" lon="3.16799">
        <ele>373.794006</ele>
        <time>2012-01-12T11:28:18Z</time>
      </trkpt>
      <trkpt lat="45.6725" lon="3.16814">
        <ele>374.139526</ele>
        <time>2012-01-12T11:28:21Z</time>
      </trkpt>
      <trkpt lat="45.67258" lon="3.16829">
        <ele>373.82309</ele>
        <time>2012-01-12T11:28:24Z</time>
      </trkpt>
      <trkpt lat="45.6726" lon="3.16842">
        <ele>372.854462</ele>
        <time>2012-01-12T11:28:28Z</time>
      </trkpt>
      <trkpt lat="45.6726" lon="3.16855">
        <ele>371.683258</ele>
        <time>2012-01-12T11:28:35Z</time>
      </trkpt>
      <trkpt lat="45.67259" lon="3.16868">
        <ele>370.589783</ele>
        <time>2012-01-12T11:28:43Z</time>
      </trkpt>
      <trkpt lat="45.67266" lon="3.16875">
        <ele>370.819061</ele>
        <time>2012-01-12T11:28:51Z</time>
      </trkpt>
      <trkpt lat="45.67272" lon="3.16886">
        <ele>370.668854</ele>
        <time>2012-01-12T11:29:00Z</time>
      </trkpt>
      <trkpt lat="45.67278" lon="3.16896">
        <ele>370.518005</ele>
        <time>2012-01-12T11:29:04Z</time>
      </trkpt>
      <trkpt lat="45.67286" lon="3.16909">
        <ele>370.286438</ele>
        <time>2012-01-12T11:29:08Z</time>
      </trkpt>
      <trkpt lat="45.67293" lon="3.16921">
        <ele>370.297943</ele>
        <time>2012-01-12T11:29:12Z</time>
      </trkpt>
      <trkpt lat="45.67301" lon="3.16932">
        <ele>370.055908</ele>
        <time>2012-01-12T11:29:16Z</time>
      </trkpt>
      <trkpt lat="45.67309" lon="3.16943">
        <ele>369.863007</ele>
        <time>2012-01-12T11:29:20Z</time>
      </trkpt>
      <trkpt lat="45.67317" lon="3.16953">
        <ele>369.748108</ele>
        <time>2012-01-12T11:29:24Z</time>
      </trkpt>
      <trkpt lat="45.67324" lon="3.16965">
        <ele>369.571808</ele>
        <time>2012-01-12T11:29:28Z</time>
      </trkpt>
      <trkpt lat="45.67331" lon="3.16975">
        <ele>369.515015</ele>
        <time>2012-01-12T11:29:32Z</time>
      </trkpt>
      <trkpt lat="45.67338" lon="3.16986">
        <ele>369.700012</ele>
        <time>2012-01-12T11:29:36Z</time>
      </trkpt>
      <trkpt lat="45.67345" lon="3.16995">
        <ele>370.054993</ele>
        <time>2012-01-12T11:29:40Z</time>
      </trkpt>
      <trkpt lat="45.67353" lon="3.17003">
        <ele>370.497498</ele>
        <time>2012-01-12T11:29:44Z</time>
      </trkpt>
      <trkpt lat="45.6736" lon="3.1701">
        <ele>370.917511</ele>
        <time>2012-01-12T11:29:47Z</time>
      </trkpt>
      <trkpt lat="45.67368" lon="3.1702">
        <ele>371.295013</ele>
        <time>2012-01-12T11:29:51Z</time>
      </trkpt>
      <trkpt lat="45.67374" lon="3.17034">
        <ele>371.412506</ele>
        <time>2012-01-12T11:29:55Z</time>
      </trkpt>
      <trkpt lat="45.67378" lon="3.17048">
        <ele>371.253754</ele>
        <time>2012-01-12T11:29:59Z</time>
      </trkpt>
      <trkpt lat="45.67383" lon="3.1706">
        <ele>371.220306</ele>
        <time>2012-01-12T11:30:03Z</time>
      </trkpt>
      <trkpt lat="45.67388" lon="3.17073">
        <ele>371.2677</ele>
        <time>2012-01-12T11:30:07Z</time>
      </trkpt>
      <trkpt lat="45.67392" lon="3.17086">
        <ele>371.361877</ele>
        <time>2012-01-12T11:30:11Z</time>
      </trkpt>
      <trkpt lat="45.67396" lon="3.17099">
        <ele>371.457214</ele>
        <time>2012-01-12T11:30:15Z</time>
      </trkpt>
      <trkpt lat="45.674" lon="3.1711">
        <ele>371.361023</ele>
        <time>2012-01-12T11:30:19Z</time>
      </trkpt>
      <trkpt lat="45.67404" lon="3.17123">
        <ele>371.03299</ele>
        <time>2012-01-12T11:30:23Z</time>
      </trkpt>
      <trkpt lat="45.67408" lon="3.17136">
        <ele>370.641357</ele>
        <time>2012-01-12T11:30:27Z</time>
      </trkpt>
      <trkpt lat="45.67413" lon="3.1715">
        <ele>370.135345</ele>
        <time>2012-01-12T11:30:32Z</time>
      </trkpt>
      <trkpt lat="45.67419" lon="3.17162">
        <ele>369.772614</ele>
        <time>2012-01-12T11:30:36Z</time>
      </trkpt>
      <trkpt lat="45.67425" lon="3.17172">
        <ele>369.54657</ele>
        <time>2012-01-12T11:30:40Z</time>
      </trkpt>
      <trkpt lat="45.67432" lon="3.17181">
        <ele>369.687653</ele>
        <time>2012-01-12T11:30:44Z</time>
      </trkpt>
      <trkpt lat="45.67439" lon="3.17188">
        <ele>369.960419</ele>
        <time>2012-01-12T11:30:48Z</time>
      </trkpt>
      <trkpt lat="45.67447" lon="3.17196">
        <ele>370.125519</ele>
        <time>2012-01-12T11:30:52Z</time>
      </trkpt>
      <trkpt lat="45.67456" lon="3.17205">
        <ele>370.257751</ele>
        <time>2012-01-12T11:30:57Z</time>
      </trkpt>
      <trkpt lat="45.67462" lon="3.17214">
        <ele>369.769012</ele>
        <time>2012-01-12T11:31:07Z</time>
      </trkpt>
      <trkpt lat="45.67467" lon="3.17226">
        <ele>368.66568</ele>
        <time>2012-01-12T11:31:18Z</time>
      </trkpt>
      <trkpt lat="45.67468" lon="3.17239">
        <ele>367.154938</ele>
        <time>2012-01-12T11:31:30Z</time>
      </trkpt>
      <trkpt lat="45.67473" lon="3.1725">
        <ele>366.52478</ele>
        <time>2012-01-12T11:31:42Z</time>
      </trkpt>
      <trkpt lat="45.67482" lon="3.17255">
        <ele>367.236816</ele>
        <time>2012-01-12T11:31:46Z</time>
      </trkpt>
      <trkpt lat="45.67492" lon="3.17262">
        <ele>367.872894</ele>
        <time>2012-01-12T11:31:50Z</time>
      </trkpt>
      <trkpt lat="45.67502" lon="3.1727">
        <ele>368.195984</ele>
        <time>2012-01-12T11:31:54Z</time>
      </trkpt>
      <trkpt lat="45.67511" lon="3.17276">
        <ele>368.504303</ele>
        <time>2012-01-12T11:31:58Z</time>
      </trkpt>
      <trkpt lat="45.67519" lon="3.17282">
        <ele>368.867645</ele>
        <time>2012-01-12T11:32:02Z</time>
      </trkpt>
      <trkpt lat="45.67528" lon="3.17288">
        <ele>369.0495</ele>
        <time>2012-01-12T11:32:06Z</time>
      </trkpt>
      <trkpt lat="45.67536" lon="3.17295">
        <ele>368.866943</ele>
        <time>2012-01-12T11:32:10Z</time>
      </trkpt>
      <trkpt lat="45.67544" lon="3.17302">
        <ele>368.724792</ele>
        <time>2012-01-12T11:32:14Z</time>
      </trkpt>
      <trkpt lat="45.67555" lon="3.17302">
        <ele>369.929962</ele>
        <time>2012-01-12T11:32:19Z</time>
      </trkpt>
      <trkpt lat="45.67564" lon="3.17298">
        <ele>371.632751</ele>
        <time>2012-01-12T11:32:24Z</time>
      </trkpt>
      <trkpt lat="45.67574" lon="3.17297">
        <ele>372.73175</ele>
        <time>2012-01-12T11:32:29Z</time>
      </trkpt>
      <trkpt lat="45.67584" lon="3.17298">
        <ele>373.536591</ele>
        <time>2012-01-12T11:32:34Z</time>
      </trkpt>
      <trkpt lat="45.67593" lon="3.17298">
        <ele>374.425934</ele>
        <time>2012-01-12T11:32:39Z</time>
      </trkpt>
      <trkpt lat="45.67604" lon="3.17298">
        <ele>375.398193</ele>
        <time>2012-01-12T11:32:44Z</time>
      </trkpt>
      <trkpt lat="45.67615" lon="3.17296">
        <ele>378.145508</ele>
        <time>2012-01-12T11:32:49Z</time>
      </trkpt>
      <trkpt lat="45.67624" lon="3.17291">
        <ele>381.543121</ele>
        <time>2012-01-12T11:32:54Z</time>
      </trkpt>
      <trkpt lat="45.67634" lon="3.17285">
        <ele>385.387756</ele>
        <time>2012-01-12T11:33:00Z</time>
      </trkpt>
      <trkpt lat="45.67644" lon="3.17287">
        <ele>386.98941</ele>
        <time>2012-01-12T11:33:05Z</time>
      </trkpt>
      <trkpt lat="45.67652" lon="3.17297">
        <ele>386.043488</ele>
        <time>2012-01-12T11:33:09Z</time>
      </trkpt>
      <trkpt lat="45.67659" lon="3.17305">
        <ele>385.248749</ele>
        <time>2012-01-12T11:33:13Z</time>
      </trkpt>
      <trkpt lat="45.67668" lon="3.17313">
        <ele>384.758759</ele>
        <time>2012-01-12T11:33:17Z</time>
      </trkpt>
      <trkpt lat="45.67676" lon="3.17321">
        <ele>384.261261</ele>
        <time>2012-01-12T11:33:21Z</time>
      </trkpt>
      <trkpt lat="45.67684" lon="3.17328">
        <ele>384.04126</ele>
        <time>2012-01-12T11:33:25Z</time>
      </trkpt>
      <trkpt lat="45.67694" lon="3.17334">
        <ele>384.230011</ele>
        <time>2012-01-12T11:33:29Z</time>
      </trkpt>
      <trkpt lat="45.67706" lon="3.17339">
        <ele>384.04126</ele>
        <time>2012-01-12T11:33:33Z</time>
      </trkpt>
      <trkpt lat="45.67717" lon="3.17345">
        <ele>383.776245</ele>
        <time>2012-01-12T11:33:36Z</time>
      </trkpt>
      <trkpt lat="45.67728" lon="3.1735">
        <ele>383.412506</ele>
        <time>2012-01-12T11:33:39Z</time>
      </trkpt>
      <trkpt lat="45.6774" lon="3.17356">
        <ele>383.105011</ele>
        <time>2012-01-12T11:33:42Z</time>
      </trkpt>
      <trkpt lat="45.67752" lon="3.17361">
        <ele>382.213715</ele>
        <time>2012-01-12T11:33:45Z</time>
      </trkpt>
      <trkpt lat="45.6776" lon="3.17365">
        <ele>381.746887</ele>
        <time>2012-01-12T11:33:47Z</time>
      </trkpt>
      <trkpt lat="45.6777" lon="3.17368">
        <ele>381.479401</ele>
        <time>2012-01-12T11:33:49Z</time>
      </trkpt>
      <trkpt lat="45.6778" lon="3.17369">
        <ele>381.555176</ele>
        <time>2012-01-12T11:33:51Z</time>
      </trkpt>
      <trkpt lat="45.67791" lon="3.17368">
        <ele>381.951721</ele>
        <time>2012-01-12T11:33:53Z</time>
      </trkpt>
      <trkpt lat="45.67801" lon="3.17366">
        <ele>382.460358</ele>
        <time>2012-01-12T11:33:55Z</time>
      </trkpt>
      <trkpt lat="45.6781" lon="3.17366">
        <ele>382.799408</ele>
        <time>2012-01-12T11:33:57Z</time>
      </trkpt>
      <trkpt lat="45.67825" lon="3.17366">
        <ele>383.034973</ele>
        <time>2012-01-12T11:34:00Z</time>
      </trkpt>
      <trkpt lat="45.67834" lon="3.17369">
        <ele>382.952484</ele>
        <time>2012-01-12T11:34:02Z</time>
      </trkpt>
      <trkpt lat="45.67848" lon="3.17372">
        <ele>382.932495</ele>
        <time>2012-01-12T11:34:05Z</time>
      </trkpt>
      <trkpt lat="45.67857" lon="3.17373">
        <ele>382.985016</ele>
        <time>2012-01-12T11:34:07Z</time>
      </trkpt>
      <trkpt lat="45.6787" lon="3.17374">
        <ele>383.089996</ele>
        <time>2012-01-12T11:34:10Z</time>
      </trkpt>
      <trkpt lat="45.67879" lon="3.17375">
        <ele>383.052032</ele>
        <time>2012-01-12T11:34:12Z</time>
      </trkpt>
      <trkpt lat="45.67888" lon="3.17376">
        <ele>382.756744</ele>
        <time>2012-01-12T11:34:14Z</time>
      </trkpt>
      <trkpt lat="45.67898" lon="3.17377">
        <ele>382.47522</ele>
        <time>2012-01-12T11:34:16Z</time>
      </trkpt>
      <trkpt lat="45.67908" lon="3.17378">
        <ele>382.2276</ele>
        <time>2012-01-12T11:34:18Z</time>
      </trkpt>
      <trkpt lat="45.67921" lon="3.17378">
        <ele>382.05249</ele>
        <time>2012-01-12T11:34:21Z</time>
      </trkpt>
      <trkpt lat="45.67935" lon="3.17376">
        <ele>382.536255</ele>
        <time>2012-01-12T11:34:24Z</time>
      </trkpt>
      <trkpt lat="45.67947" lon="3.17375">
        <ele>383.005005</ele>
        <time>2012-01-12T11:34:27Z</time>
      </trkpt>
      <trkpt lat="45.6796" lon="3.17373">
        <ele>383.483765</ele>
        <time>2012-01-12T11:34:30Z</time>
      </trkpt>
      <trkpt lat="45.67972" lon="3.17372">
        <ele>384.11377</ele>
        <time>2012-01-12T11:34:33Z</time>
      </trkpt>
      <trkpt lat="45.67986" lon="3.1737">
        <ele>384.873749</ele>
        <time>2012-01-12T11:34:36Z</time>
      </trkpt>
      <trkpt lat="45.67995" lon="3.1737">
        <ele>385.40329</ele>
        <time>2012-01-12T11:34:38Z</time>
      </trkpt>
      <trkpt lat="45.68008" lon="3.17368">
        <ele>386.238403</ele>
        <time>2012-01-12T11:34:41Z</time>
      </trkpt>
      <trkpt lat="45.68021" lon="3.17367">
        <ele>386.977509</ele>
        <time>2012-01-12T11:34:44Z</time>
      </trkpt>
      <trkpt lat="45.68033" lon="3.17366">
        <ele>387.70874</ele>
        <time>2012-01-12T11:34:47Z</time>
      </trkpt>
      <trkpt lat="45.68046" lon="3.17365">
        <ele>388.459991</ele>
        <time>2012-01-12T11:34:50Z</time>
      </trkpt>
      <trkpt lat="45.68058" lon="3.17364">
        <ele>389.22345</ele>
        <time>2012-01-12T11:34:53Z</time>
      </trkpt>
      <trkpt lat="45.68069" lon="3.17364">
        <ele>390.060638</ele>
        <time>2012-01-12T11:34:57Z</time>
      </trkpt>
      <trkpt lat="45.68079" lon="3.17363">
        <ele>390.909668</ele>
        <time>2012-01-12T11:35:01Z</time>
      </trkpt>
      <trkpt lat="45.68087" lon="3.17358">
        <ele>392.373993</ele>
        <time>2012-01-12T11:35:08Z</time>
      </trkpt>
      <trkpt lat="45.6809" lon="3.17344">
        <ele>394.826813</ele>
        <time>2012-01-12T11:35:15Z</time>
      </trkpt>
      <trkpt lat="45.68091" lon="3.1733">
        <ele>397.216095</ele>
        <time>2012-01-12T11:35:25Z</time>
      </trkpt>
      <trkpt lat="45.68091" lon="3.17317">
        <ele>399.398254</ele>
        <time>2012-01-12T11:35:30Z</time>
      </trkpt>
      <trkpt lat="45.68092" lon="3.17303">
        <ele>401.702515</ele>
        <time>2012-01-12T11:35:35Z</time>
      </trkpt>
      <trkpt lat="45.68093" lon="3.17288">
        <ele>403.649994</ele>
        <time>2012-01-12T11:35:40Z</time>
      </trkpt>
      <trkpt lat="45.68094" lon="3.17273">
        <ele>405.582489</ele>
        <time>2012-01-12T11:35:45Z</time>
      </trkpt>
      <trkpt lat="45.68094" lon="3.17259">
        <ele>407.329987</ele>
        <time>2012-01-12T11:35:50Z</time>
      </trkpt>
      <trkpt lat="45.68095" lon="3.17244">
        <ele>409.272491</ele>
        <time>2012-01-12T11:35:55Z</time>
      </trkpt>
      <trkpt lat="45.68097" lon="3.17228">
        <ele>411.013428</ele>
        <time>2012-01-12T11:35:59Z</time>
      </trkpt>
      <trkpt lat="45.681" lon="3.17213">
        <ele>412.753326</ele>
        <time>2012-01-12T11:36:03Z</time>
      </trkpt>
      <trkpt lat="45.68103" lon="3.17197">
        <ele>414.648102</ele>
        <time>2012-01-12T11:36:07Z</time>
      </trkpt>
      <trkpt lat="45.68106" lon="3.17184">
        <ele>416.461365</ele>
        <time>2012-01-12T11:36:12Z</time>
      </trkpt>
      <trkpt lat="45.68108" lon="3.1717">
        <ele>418.229797</ele>
        <time>2012-01-12T11:36:15Z</time>
      </trkpt>
      <trkpt lat="45.6811" lon="3.17155">
        <ele>420.38797</ele>
        <time>2012-01-12T11:36:19Z</time>
      </trkpt>
      <trkpt lat="45.6811" lon="3.1714">
        <ele>422.164063</ele>
        <time>2012-01-12T11:36:23Z</time>
      </trkpt>
      <trkpt lat="45.68111" lon="3.17126">
        <ele>423.936584</ele>
        <time>2012-01-12T11:36:29Z</time>
      </trkpt>
      <trkpt lat="45.6811" lon="3.17112">
        <ele>425.384979</ele>
        <time>2012-01-12T11:36:38Z</time>
      </trkpt>
      <trkpt lat="45.68111" lon="3.17098">
        <ele>426.39032</ele>
        <time>2012-01-12T11:36:49Z</time>
      </trkpt>
      <trkpt lat="45.68113" lon="3.17084">
        <ele>427.414673</ele>
        <time>2012-01-12T11:37:00Z</time>
      </trkpt>
      <trkpt lat="45.68116" lon="3.1707">
        <ele>428.492004</ele>
        <time>2012-01-12T11:37:12Z</time>
      </trkpt>
      <trkpt lat="45.68118" lon="3.17055">
        <ele>429.459412</ele>
        <time>2012-01-12T11:37:24Z</time>
      </trkpt>
      <trkpt lat="45.6812" lon="3.17041">
        <ele>430.31424</ele>
        <time>2012-01-12T11:37:32Z</time>
      </trkpt>
      <trkpt lat="45.68122" lon="3.17028">
        <ele>431.04361</ele>
        <time>2012-01-12T11:37:38Z</time>
      </trkpt>
      <trkpt lat="45.68119" lon="3.17013">
        <ele>431.830597</ele>
        <time>2012-01-12T11:37:43Z</time>
      </trkpt>
      <trkpt lat="45.68114" lon="3.17">
        <ele>432.668213</ele>
        <time>2012-01-12T11:37:48Z</time>
      </trkpt>
      <trkpt lat="45.68108" lon="3.16989">
        <ele>433.611206</ele>
        <time>2012-01-12T11:37:53Z</time>
      </trkpt>
      <trkpt lat="45.68102" lon="3.16976">
        <ele>434.337494</ele>
        <time>2012-01-12T11:37:57Z</time>
      </trkpt>
      <trkpt lat="45.68096" lon="3.16966">
        <ele>434.787048</ele>
        <time>2012-01-12T11:38:01Z</time>
      </trkpt>
      <trkpt lat="45.68089" lon="3.16955">
        <ele>435.424561</ele>
        <time>2012-01-12T11:38:05Z</time>
      </trkpt>
      <trkpt lat="45.68083" lon="3.16944">
        <ele>436.177185</ele>
        <time>2012-01-12T11:38:09Z</time>
      </trkpt>
      <trkpt lat="45.68078" lon="3.16933">
        <ele>437.041473</ele>
        <time>2012-01-12T11:38:13Z</time>
      </trkpt>
      <trkpt lat="45.68073" lon="3.16919">
        <ele>438.142517</ele>
        <time>2012-01-12T11:38:17Z</time>
      </trkpt>
      <trkpt lat="45.6807" lon="3.16907">
        <ele>439.165009</ele>
        <time>2012-01-12T11:38:21Z</time>
      </trkpt>
      <trkpt lat="45.68066" lon="3.16892">
        <ele>440.355011</ele>
        <time>2012-01-12T11:38:26Z</time>
      </trkpt>
      <trkpt lat="45.68064" lon="3.16876">
        <ele>441.42749</ele>
        <time>2012-01-12T11:38:31Z</time>
      </trkpt>
      <trkpt lat="45.68063" lon="3.16862">
        <ele>442.472504</ele>
        <time>2012-01-12T11:38:36Z</time>
      </trkpt>
      <trkpt lat="45.6806" lon="3.16846">
        <ele>443.461243</ele>
        <time>2012-01-12T11:38:41Z</time>
      </trkpt>
      <trkpt lat="45.68056" lon="3.16832">
        <ele>444.4375</ele>
        <time>2012-01-12T11:38:46Z</time>
      </trkpt>
      <trkpt lat="45.68051" lon="3.16818">
        <ele>445.522491</ele>
        <time>2012-01-12T11:38:51Z</time>
      </trkpt>
      <trkpt lat="45.68045" lon="3.16805">
        <ele>446.665009</ele>
        <time>2012-01-12T11:38:56Z</time>
      </trkpt>
      <trkpt lat="45.68039" lon="3.16793">
        <ele>447.785004</ele>
        <time>2012-01-12T11:39:01Z</time>
      </trkpt>
      <trkpt lat="45.68032" lon="3.16783">
        <ele>448.94928</ele>
        <time>2012-01-12T11:39:06Z</time>
      </trkpt>
      <trkpt lat="45.68025" lon="3.16771">
        <ele>450.253296</ele>
        <time>2012-01-12T11:39:12Z</time>
      </trkpt>
      <trkpt lat="45.68018" lon="3.16759">
        <ele>451.645721</ele>
        <time>2012-01-12T11:39:17Z</time>
      </trkpt>
      <trkpt lat="45.68012" lon="3.16749">
        <ele>452.959991</ele>
        <time>2012-01-12T11:39:22Z</time>
      </trkpt>
      <trkpt lat="45.68006" lon="3.16739">
        <ele>454.494995</ele>
        <time>2012-01-12T11:39:33Z</time>
      </trkpt>
      <trkpt lat="45.67999" lon="3.16728">
        <ele>456.109985</ele>
        <time>2012-01-12T11:39:42Z</time>
      </trkpt>
      <trkpt lat="45.67992" lon="3.16716">
        <ele>457.412506</ele>
        <time>2012-01-12T11:39:47Z</time>
      </trkpt>
      <trkpt lat="45.67985" lon="3.16705">
        <ele>458.644989</ele>
        <time>2012-01-12T11:39:52Z</time>
      </trkpt>
      <trkpt lat="45.67978" lon="3.16694">
        <ele>459.892487</ele>
        <time>2012-01-12T11:39:57Z</time>
      </trkpt>
      <trkpt lat="45.67972" lon="3.16684">
        <ele>461.130005</ele>
        <time>2012-01-12T11:40:02Z</time>
      </trkpt>
      <trkpt lat="45.67965" lon="3.16671">
        <ele>462.675293</ele>
        <time>2012-01-12T11:40:07Z</time>
      </trkpt>
      <trkpt lat="45.67959" lon="3.16659">
        <ele>464.054016</ele>
        <time>2012-01-12T11:40:11Z</time>
      </trkpt>
      <trkpt lat="45.67953" lon="3.16648">
        <ele>465.152313</ele>
        <time>2012-01-12T11:40:16Z</time>
      </trkpt>
      <trkpt lat="45.67946" lon="3.16636">
        <ele>466.322083</ele>
        <time>2012-01-12T11:40:22Z</time>
      </trkpt>
      <trkpt lat="45.67939" lon="3.16623">
        <ele>467.248749</ele>
        <time>2012-01-12T11:40:28Z</time>
      </trkpt>
      <trkpt lat="45.67934" lon="3.1661">
        <ele>467.899017</ele>
        <time>2012-01-12T11:40:34Z</time>
      </trkpt>
      <trkpt lat="45.6793" lon="3.16594">
        <ele>468.516724</ele>
        <time>2012-01-12T11:40:40Z</time>
      </trkpt>
      <trkpt lat="45.67927" lon="3.16579">
        <ele>469.406616</ele>
        <time>2012-01-12T11:40:46Z</time>
      </trkpt>
      <trkpt lat="45.67924" lon="3.16565">
        <ele>470.277252</ele>
        <time>2012-01-12T11:40:52Z</time>
      </trkpt>
      <trkpt lat="45.67921" lon="3.1655">
        <ele>471.138214</ele>
        <time>2012-01-12T11:40:58Z</time>
      </trkpt>
      <trkpt lat="45.67918" lon="3.16536">
        <ele>471.976379</ele>
        <time>2012-01-12T11:41:04Z</time>
      </trkpt>
      <trkpt lat="45.67915" lon="3.16522">
        <ele>473.720001</ele>
        <time>2012-01-12T11:41:09Z</time>
      </trkpt>
      <trkpt lat="45.67912" lon="3.16507">
        <ele>475.723755</ele>
        <time>2012-01-12T11:41:15Z</time>
      </trkpt>
      <trkpt lat="45.67907" lon="3.16494">
        <ele>477.883667</ele>
        <time>2012-01-12T11:41:21Z</time>
      </trkpt>
      <trkpt lat="45.67902" lon="3.16482">
        <ele>479.979462</ele>
        <time>2012-01-12T11:41:27Z</time>
      </trkpt>
      <trkpt lat="45.67897" lon="3.16468">
        <ele>482.562408</ele>
        <time>2012-01-12T11:41:39Z</time>
      </trkpt>
      <trkpt lat="45.67891" lon="3.16457">
        <ele>485.041016</ele>
        <time>2012-01-12T11:41:49Z</time>
      </trkpt>
      <trkpt lat="45.67883" lon="3.16447">
        <ele>487.484924</ele>
        <time>2012-01-12T11:42:02Z</time>
      </trkpt>
      <trkpt lat="45.67885" lon="3.16436">
        <ele>488.704041</ele>
        <time>2012-01-12T11:42:16Z</time>
      </trkpt>
      <trkpt lat="45.67894" lon="3.1644">
        <ele>486.637543</ele>
        <time>2012-01-12T11:42:22Z</time>
      </trkpt>
      <trkpt lat="45.67904" lon="3.16444">
        <ele>484.622314</ele>
        <time>2012-01-12T11:42:26Z</time>
      </trkpt>
      <trkpt lat="45.67912" lon="3.16445">
        <ele>482.993988</ele>
        <time>2012-01-12T11:42:31Z</time>
      </trkpt>
      <trkpt lat="45.67922" lon="3.16445">
        <ele>481.295135</ele>
        <time>2012-01-12T11:42:37Z</time>
      </trkpt>
      <trkpt lat="45.67932" lon="3.16443">
        <ele>480.191254</ele>
        <time>2012-01-12T11:42:44Z</time>
      </trkpt>
      <trkpt lat="45.67941" lon="3.16439">
        <ele>479.579987</ele>
        <time>2012-01-12T11:42:52Z</time>
      </trkpt>
      <trkpt lat="45.67952" lon="3.16434">
        <ele>478.73999</ele>
        <time>2012-01-12T11:43:00Z</time>
      </trkpt>
      <trkpt lat="45.67962" lon="3.16429">
        <ele>478.196259</ele>
        <time>2012-01-12T11:43:04Z</time>
      </trkpt>
      <trkpt lat="45.67971" lon="3.16425">
        <ele>477.540009</ele>
        <time>2012-01-12T11:43:08Z</time>
      </trkpt>
      <trkpt lat="45.67981" lon="3.1642">
        <ele>477.769531</ele>
        <time>2012-01-12T11:43:12Z</time>
      </trkpt>
      <trkpt lat="45.6799" lon="3.16417">
        <ele>477.877625</ele>
        <time>2012-01-12T11:43:16Z</time>
      </trkpt>
      <trkpt lat="45.68003" lon="3.16417">
        <ele>477.379272</ele>
        <time>2012-01-12T11:43:20Z</time>
      </trkpt>
      <trkpt lat="45.68012" lon="3.1642">
        <ele>476.673492</ele>
        <time>2012-01-12T11:43:23Z</time>
      </trkpt>
      <trkpt lat="45.6802" lon="3.16425">
        <ele>476.038208</ele>
        <time>2012-01-12T11:43:26Z</time>
      </trkpt>
      <trkpt lat="45.68031" lon="3.16434">
        <ele>475.605988</ele>
        <time>2012-01-12T11:43:30Z</time>
      </trkpt>
      <trkpt lat="45.68039" lon="3.1644">
        <ele>475.251862</ele>
        <time>2012-01-12T11:43:36Z</time>
      </trkpt>
      <trkpt lat="45.68048" lon="3.16448">
        <ele>474.740692</ele>
        <time>2012-01-12T11:43:41Z</time>
      </trkpt>
      <trkpt lat="45.68058" lon="3.16458">
        <ele>473.886017</ele>
        <time>2012-01-12T11:43:46Z</time>
      </trkpt>
      <trkpt lat="45.68065" lon="3.16465">
        <ele>473.068085</ele>
        <time>2012-01-12T11:43:50Z</time>
      </trkpt>
      <trkpt lat="45.68075" lon="3.16474">
        <ele>471.894928</ele>
        <time>2012-01-12T11:43:55Z</time>
      </trkpt>
      <trkpt lat="45.68083" lon="3.16481">
        <ele>470.954803</ele>
        <time>2012-01-12T11:43:59Z</time>
      </trkpt>
      <trkpt lat="45.68091" lon="3.16488">
        <ele>470.156799</ele>
        <time>2012-01-12T11:44:03Z</time>
      </trkpt>
      <trkpt lat="45.68099" lon="3.16495">
        <ele>469.489471</ele>
        <time>2012-01-12T11:44:07Z</time>
      </trkpt>
      <trkpt lat="45.68108" lon="3.16502">
        <ele>468.862335</ele>
        <time>2012-01-12T11:44:11Z</time>
      </trkpt>
      <trkpt lat="45.68117" lon="3.16508">
        <ele>468.247711</ele>
        <time>2012-01-12T11:44:15Z</time>
      </trkpt>
      <trkpt lat="45.68125" lon="3.16514">
        <ele>467.50766</ele>
        <time>2012-01-12T11:44:19Z</time>
      </trkpt>
      <trkpt lat="45.68135" lon="3.16518">
        <ele>466.923004</ele>
        <time>2012-01-12T11:44:23Z</time>
      </trkpt>
      <trkpt lat="45.68145" lon="3.16521">
        <ele>466.404816</ele>
        <time>2012-01-12T11:44:27Z</time>
      </trkpt>
      <trkpt lat="45.68155" lon="3.16525">
        <ele>465.677856</ele>
        <time>2012-01-12T11:44:31Z</time>
      </trkpt>
      <trkpt lat="45.68165" lon="3.16529">
        <ele>464.943726</ele>
        <time>2012-01-12T11:44:35Z</time>
      </trkpt>
      <trkpt lat="45.68175" lon="3.1653">
        <ele>464.528076</ele>
        <time>2012-01-12T11:44:39Z</time>
      </trkpt>
      <trkpt lat="45.68185" lon="3.16533">
        <ele>463.91925</ele>
        <time>2012-01-12T11:44:43Z</time>
      </trkpt>
      <trkpt lat="45.68195" lon="3.16537">
        <ele>463.235138</ele>
        <time>2012-01-12T11:44:46Z</time>
      </trkpt>
      <trkpt lat="45.68207" lon="3.1654">
        <ele>462.430054</ele>
        <time>2012-01-12T11:44:50Z</time>
      </trkpt>
      <trkpt lat="45.68216" lon="3.16542">
        <ele>461.776001</ele>
        <time>2012-01-12T11:44:53Z</time>
      </trkpt>
      <trkpt lat="45.68228" lon="3.16545">
        <ele>461.008881</ele>
        <time>2012-01-12T11:44:57Z</time>
      </trkpt>
      <trkpt lat="45.68239" lon="3.16549">
        <ele>460.315704</ele>
        <time>2012-01-12T11:45:01Z</time>
      </trkpt>
      <trkpt lat="45.68251" lon="3.16552">
        <ele>459.561249</ele>
        <time>2012-01-12T11:45:05Z</time>
      </trkpt>
      <trkpt lat="45.68261" lon="3.16554">
        <ele>459.008759</ele>
        <time>2012-01-12T11:45:09Z</time>
      </trkpt>
      <trkpt lat="45.68271" lon="3.16551">
        <ele>458.777496</ele>
        <time>2012-01-12T11:45:13Z</time>
      </trkpt>
      <trkpt lat="45.6828" lon="3.16554">
        <ele>458.136261</ele>
        <time>2012-01-12T11:45:17Z</time>
      </trkpt>
      <trkpt lat="45.6829" lon="3.16557">
        <ele>457.422729</ele>
        <time>2012-01-12T11:45:21Z</time>
      </trkpt>
      <trkpt lat="45.68299" lon="3.16561">
        <ele>456.627045</ele>
        <time>2012-01-12T11:45:25Z</time>
      </trkpt>
      <trkpt lat="45.68308" lon="3.16564">
        <ele>455.854736</ele>
        <time>2012-01-12T11:45:29Z</time>
      </trkpt>
      <trkpt lat="45.68317" lon="3.16566">
        <ele>455.16925</ele>
        <time>2012-01-12T11:45:33Z</time>
      </trkpt>
      <trkpt lat="45.68329" lon="3.16565">
        <ele>454.584808</ele>
        <time>2012-01-12T11:45:37Z</time>
      </trkpt>
      <trkpt lat="45.6834" lon="3.16564">
        <ele>454.019073</ele>
        <time>2012-01-12T11:45:41Z</time>
      </trkpt>
      <trkpt lat="45.68351" lon="3.16562">
        <ele>453.630035</ele>
        <time>2012-01-12T11:45:44Z</time>
      </trkpt>
      <trkpt lat="45.6836" lon="3.16557">
        <ele>453.503143</ele>
        <time>2012-01-12T11:45:46Z</time>
      </trkpt>
      <trkpt lat="45.68375" lon="3.1655">
        <ele>453.393494</ele>
        <time>2012-01-12T11:45:49Z</time>
      </trkpt>
      <trkpt lat="45.68385" lon="3.16544">
        <ele>452.966003</ele>
        <time>2012-01-12T11:45:51Z</time>
      </trkpt>
      <trkpt lat="45.68394" lon="3.16539">
        <ele>452.5</ele>
        <time>2012-01-12T11:45:53Z</time>
      </trkpt>
      <trkpt lat="45.68404" lon="3.16533">
        <ele>451.929993</ele>
        <time>2012-01-12T11:45:55Z</time>
      </trkpt>
      <trkpt lat="45.68413" lon="3.16528">
        <ele>451.383759</ele>
        <time>2012-01-12T11:45:57Z</time>
      </trkpt>
      <trkpt lat="45.68426" lon="3.1652">
        <ele>450.491241</ele>
        <time>2012-01-12T11:46:00Z</time>
      </trkpt>
      <trkpt lat="45.68435" lon="3.16516">
        <ele>449.698761</ele>
        <time>2012-01-12T11:46:02Z</time>
      </trkpt>
      <trkpt lat="45.68444" lon="3.1651">
        <ele>448.880005</ele>
        <time>2012-01-12T11:46:04Z</time>
      </trkpt>
      <trkpt lat="45.68454" lon="3.16506">
        <ele>448.049988</ele>
        <time>2012-01-12T11:46:06Z</time>
      </trkpt>
      <trkpt lat="45.68463" lon="3.16502">
        <ele>447.216248</ele>
        <time>2012-01-12T11:46:08Z</time>
      </trkpt>
      <trkpt lat="45.68472" lon="3.16497">
        <ele>446.153748</ele>
        <time>2012-01-12T11:46:10Z</time>
      </trkpt>
      <trkpt lat="45.68481" lon="3.16491">
        <ele>445.098755</ele>
        <time>2012-01-12T11:46:12Z</time>
      </trkpt>
      <trkpt lat="45.68489" lon="3.16484">
        <ele>444.204987</ele>
        <time>2012-01-12T11:46:14Z</time>
      </trkpt>
      <trkpt lat="45.68497" lon="3.16476">
        <ele>443.362488</ele>
        <time>2012-01-12T11:46:16Z</time>
      </trkpt>
      <trkpt lat="45.68504" lon="3.16467">
        <ele>442.55249</ele>
        <time>2012-01-12T11:46:18Z</time>
      </trkpt>
      <trkpt lat="45.68511" lon="3.16458">
        <ele>441.75</ele>
        <time>2012-01-12T11:46:20Z</time>
      </trkpt>
      <trkpt lat="45.68518" lon="3.16449">
        <ele>441.144745</ele>
        <time>2012-01-12T11:46:22Z</time>
      </trkpt>
      <trkpt lat="45.68529" lon="3.16435">
        <ele>440.185303</ele>
        <time>2012-01-12T11:46:25Z</time>
      </trkpt>
      <trkpt lat="45.68536" lon="3.16427">
        <ele>439.504486</ele>
        <time>2012-01-12T11:46:27Z</time>
      </trkpt>
      <trkpt lat="45.68547" lon="3.16415">
        <ele>438.219055</ele>
        <time>2012-01-12T11:46:30Z</time>
      </trkpt>
      <trkpt lat="45.68555" lon="3.16408">
        <ele>437.265533</ele>
        <time>2012-01-12T11:46:32Z</time>
      </trkpt>
      <trkpt lat="45.68562" lon="3.16398">
        <ele>436.412506</ele>
        <time>2012-01-12T11:46:35Z</time>
      </trkpt>
      <trkpt lat="45.68571" lon="3.16388">
        <ele>435.424988</ele>
        <time>2012-01-12T11:46:39Z</time>
      </trkpt>
      <trkpt lat="45.68579" lon="3.1638">
        <ele>434.475006</ele>
        <time>2012-01-12T11:46:43Z</time>
      </trkpt>
      <trkpt lat="45.68589" lon="3.16372">
        <ele>433.424988</ele>
        <time>2012-01-12T11:46:47Z</time>
      </trkpt>
      <trkpt lat="45.68599" lon="3.16365">
        <ele>432.362488</ele>
        <time>2012-01-12T11:46:51Z</time>
      </trkpt>
      <trkpt lat="45.68608" lon="3.16357">
        <ele>431.204987</ele>
        <time>2012-01-12T11:46:55Z</time>
      </trkpt>
      <trkpt lat="45.68617" lon="3.1635">
        <ele>430.109955</ele>
        <time>2012-01-12T11:46:59Z</time>
      </trkpt>
      <trkpt lat="45.68627" lon="3.16342">
        <ele>429.156281</ele>
        <time>2012-01-12T11:47:03Z</time>
      </trkpt>
      <trkpt lat="45.68636" lon="3.16335">
        <ele>428.198486</ele>
        <time>2012-01-12T11:47:07Z</time>
      </trkpt>
      <trkpt lat="45.68646" lon="3.16329">
        <ele>427.2789</ele>
        <time>2012-01-12T11:47:11Z</time>
      </trkpt>
      <trkpt lat="45.68655" lon="3.16323">
        <ele>426.546265</ele>
        <time>2012-01-12T11:47:15Z</time>
      </trkpt>
      <trkpt lat="45.68664" lon="3.16316">
        <ele>425.910004</ele>
        <time>2012-01-12T11:47:19Z</time>
      </trkpt>
      <trkpt lat="45.68669" lon="3.16305">
        <ele>425.882507</ele>
        <time>2012-01-12T11:47:23Z</time>
      </trkpt>
    </trkseg>
  </trk>
</gpx>